GEFSMW_con_prob3kmehi_006.txt.gz
EHI
68 48 37 44 51 49 40 29 17 6 2 1 0 0 0 0 0 0 0 0 0 1 7 22 43 64 75 76 62 33 9 0 0 0 0 0 0 0 0 0 0 0 0
50 34 23 26 28 24 18 12 7 3 1 0 0 0 0 0 0 0 0 0 0 3 8 17 31 46 57 59 49 28 8 0 0 0 0 0 0 0 0 0 0 0 0
21 15 9 8 7 4 2 0 0 1 1 1 1 0 0 0 0 0 0 0 0 3 8 11 14 20 25 28 25 15 5 0 0 0 0 0 0 0 0 0 0 0 0
4 3 3 2 1 1 0 0 0 1 3 3 2 0 0 0 0 0 0 0 0 1 4 5 4 4 5 6 6 5 2 0 0 0 0 0 0 0 0 0 0 0 0
0 0 0 0 0 0 0 0 0 1 3 3 1 0 0 0 0 0 0 0 0 0 0 1 0 0 0 0 0 1 1 0 0 0 0 0 0 0 0 0 0 0 0
0 0 0 0 0 0 0 0 0 1 2 3 1 0 0 0 0 0 0 0 0 0 0 0 0 0 0 0 0 0 0 0 0 0 0 0 0 0 0 0 0 0 0
0 0 0 0 0 0 0 0 0 1 3 5 3 0 0 0 0 0 0 0 0 0 0 0 0 0 0 0 0 0 0 0 0 0 0 0 0 0 0 0 0 0 0
0 0 0 0 0 0 0 0 0 1 3 4 2 0 0 0 0 0 0 0 0 0 0 0 0 0 0 0 0 0 0 0 0 0 0 0 0 0 0 0 0 0 0
0 0 0 0 0 0 0 0 0 0 1 1 1 0 0 0 0 0 0 0 0 0 0 0 0 0 0 0 0 0 0 0 0 0 0 0 0 0 0 0 0 0 0
0 0 0 0 0 0 0 0 0 0 0 0 0 0 0 0 0 0 0 0 0 0 0 0 0 0 0 0 0 0 0 0 0 0 0 0 0 0 0 0 0 0 0
0 0 0 0 0 0 0 0 0 0 0 0 0 0 0 0 0 0 0 0 0 0 0 0 0 0 0 0 0 0 0 0 0 0 0 0 0 0 0 0 0 0 0
0 0 0 0 0 0 0 0 0 0 0 0 0 0 0 0 0 0 0 0 0 0 0 0 0 0 0 0 0 0 0 0 0 0 0 0 0 0 0 0 0 0 0
0 0 0 0 0 0 0 0 0 0 0 0 0 0 0 0 0 0 0 0 0 0 0 0 0 0 0 0 0 0 0 0 0 0 0 0 0 0 0 0 0 0 0
0 0 0 0 0 0 0 0 0 0 0 0 0 0 0 0 0 0 0 0 0 0 0 0 0 0 0 0 0 0 0 0 0 0 0 0 0 0 0 0 0 0 0
0 0 0 0 0 0 0 0 0 0 0 0 0 0 0 0 0 0 0 0 0 0 0 0 0 0 0 0 0 0 0 0 0 0 0 0 0 0 0 0 0 0 0
0 0 0 0 0 0 0 0 0 0 0 0 0 0 0 0 0 0 0 0 0 0 0 0 0 0 0 0 0 0 0 0 0 0 0 0 0 0 0 0 0 0 0
0 0 0 0 0 0 0 0 0 0 0 0 0 0 0 0 0 0 0 0 0 0 0 0 0 0 0 0 0 0 0 0 0 0 0 0 0 0 0 0 0 0 0
0 0 0 0 0 0 0 0 0 0 0 0 0 0 0 0 0 0 0 0 0 0 0 0 0 0 0 0 0 0 0 0 0 0 0 0 0 0 0 0 0 0 0
0 0 0 0 0 0 0 0 0 0 0 0 0 0 0 0 0 0 0 0 0 0 0 0 0 0 0 0 0 0 0 0 0 0 0 0 0 0 0 0 0 0 0
0 0 0 0 0 0 0 0 0 0 0 0 0 0 0 0 0 0 0 0 0 0 0 0 0 0 0 0 0 0 0 0 0 0 0 0 0 0 0 0 0 0 0
0 0 0 0 0 0 0 0 0 0 0 0 0 0 0 0 0 0 0 0 0 0 0 0 0 0 0 0 0 0 0 0 0 0 0 0 0 0 0 0 0 0 0
0 0 0 0 0 0 0 0 0 0 0 0 0 0 0 0 0 0 0 0 0 0 0 0 0 0 0 0 0 0 0 0 0 0 0 0 0 0 0 0 0 0 0
0 0 0 0 0 0 0 0 0 0 0 0 0 0 0 0 0 0 0 0 0 0 0 0 0 0 0 0 0 0 0 0 0 0 0 0 0 0 0 0 0 0 0
0 0 0 0 0 0 0 0 0 0 0 0 0 0 0 0 0 0 0 0 0 0 0 0 0 0 0 0 0 0 0 0 0 0 0 0 0 0 0 0 0 0 0
0 0 0 0 0 0 0 0 0 0 0 0 0 0 0 0 0 0 0 0 0 0 0 0 0 0 0 0 0 0 0 0 0 0 0 0 0 0 0 0 0 0 0
0 0 0 0 0 0 0 0 0 0 0 0 0 0 0 0 0 0 0 0 0 0 0 0 0 0 0 0 0 0 0 0 0 0 0 0 0 0 0 0 0 0 0

GEFSMW_con_prob3kmehi_012.txt.gz
EHI
35 27 18 13 11 11 12 14 12 5 1 0 0 0 0 0 0 0 0 0 0 0 0 1 2 2 3 4 6 6 4 2 1 0 0 0 0 0 0 0 0 0 0
23 16 9 6 5 5 6 7 5 2 0 0 0 0 0 0 0 0 0 0 0 0 0 0 1 1 1 3 5 6 5 3 1 0 0 0 0 0 0 0 0 0 0
7 4 1 0 1 1 1 1 0 0 0 0 1 1 0 0 0 0 0 0 0 0 0 0 0 0 0 1 4 6 6 5 3 1 0 0 0 0 0 0 0 0 0
0 0 0 0 0 0 0 0 0 0 0 0 1 2 1 0 0 0 0 0 0 0 0 0 0 0 0 1 2 4 5 6 5 3 1 0 0 0 0 0 0 0 0
0 0 0 0 0 0 0 0 0 0 0 0 1 1 1 0 0 0 0 0 0 0 0 0 0 0 0 0 1 2 3 4 4 2 1 0 0 0 0 0 0 0 0
0 0 0 0 0 0 0 0 0 0 0 0 0 0 0 0 0 0 0 0 0 0 0 0 0 0 0 0 0 1 1 1 1 1 1 1 0 0 0 0 0 0 0
0 0 0 0 0 0 0 0 0 0 0 0 0 0 0 0 0 0 0 0 0 0 0 0 0 0 0 0 0 0 0 0 0 0 0 0 0 0 0 0 0 0 0
0 0 0 0 0 0 0 0 0 0 0 0 0 0 0 0 0 0 0 0 0 0 0 0 0 0 0 0 0 0 0 0 0 0 0 0 0 0 0 0 0 0 0
0 0 0 0 0 0 0 0 0 0 0 0 0 0 0 0 0 0 0 0 0 0 0 0 0 0 0 0 0 0 0 0 0 0 0 0 0 0 0 0 0 0 0
0 0 0 0 0 0 0 0 0 0 0 0 0 0 0 0 0 0 0 0 0 0 0 0 0 0 0 0 0 0 0 0 0 0 0 0 0 0 0 0 0 0 0
0 0 0 0 0 0 0 0 0 0 0 0 0 0 0 0 0 0 0 0 0 0 0 0 0 0 0 0 0 0 0 0 0 0 0 0 0 0 0 0 0 0 0
0 0 0 0 0 0 0 0 0 0 0 0 0 0 0 0 0 0 0 0 0 0 0 0 0 0 0 0 0 0 0 0 0 0 0 0 0 0 0 0 0 0 0
0 0 0 0 0 0 0 0 0 0 0 0 0 0 0 0 0 0 0 0 0 0 0 0 0 0 0 0 0 0 0 0 0 0 0 0 0 0 0 0 0 0 0
0 0 0 0 0 0 0 0 0 0 0 0 0 0 0 0 0 0 0 0 0 0 0 0 0 0 0 0 0 0 0 0 0 0 0 0 0 0 0 0 0 0 0
0 0 0 0 0 0 0 0 0 0 0 0 0 0 0 0 0 0 0 0 0 0 0 0 0 0 0 0 0 0 0 0 0 0 0 0 0 0 0 0 0 0 0
0 0 0 0 0 0 0 0 0 0 0 0 0 0 0 0 0 0 0 0 0 0 0 0 0 0 0 0 0 0 0 0 0 0 0 0 0 0 0 0 0 0 0
0 0 0 0 0 0 0 0 0 0 0 0 0 0 0 0 0 0 0 0 0 0 0 0 0 0 0 0 0 0 0 0 0 0 0 0 0 0 0 0 0 0 0
0 0 0 0 0 0 0 0 0 0 0 0 0 0 0 0 0 0 0 0 0 0 0 0 0 0 0 0 0 0 0 0 0 0 0 0 0 0 0 0 0 0 0
0 0 0 0 0 0 0 0 0 0 0 0 0 0 0 0 0 0 0 0 0 0 0 0 0 0 0 0 0 0 0 0 0 0 0 0 0 0 0 0 0 0 0
0 0 0 0 0 0 0 0 0 0 0 0 0 0 0 0 0 0 0 0 0 0 0 0 0 0 0 0 0 0 0 0 0 0 0 0 0 0 0 0 0 0 0
0 0 0 0 0 0 0 0 0 0 0 0 0 0 0 0 0 0 0 0 0 0 0 0 0 0 0 0 0 0 0 0 0 0 0 0 0 0 0 0 0 0 0
0 0 0 0 0 0 0 0 0 0 0 0 0 0 0 0 0 0 0 0 0 0 0 0 0 0 0 0 0 0 0 0 0 0 0 0 0 0 0 0 0 0 0
0 0 0 0 0 0 0 0 0 0 0 0 0 0 0 0 0 0 0 0 0 0 0 0 0 0 0 0 0 0 0 0 0 0 0 0 0 0 0 0 0 0 0
0 0 0 0 0 0 0 0 0 0 0 0 0 0 0 0 0 0 0 0 0 0 0 0 0 0 0 0 0 0 0 0 0 0 0 0 0 0 0 0 0 0 0
0 0 0 0 0 0 0 0 0 0 0 0 0 0 0 0 0 0 0 0 0 0 0 0 0 0 0 0 0 0 0 0 0 0 0 0 0 0 0 0 0 0 0
0 0 0 0 0 0 0 0 0 0 0 0 0 0 0 0 0 0 0 0 0 0 0 0 0 0 0 0 0 0 0 0 0 0 0 0 0 0 0 0 0 0 0

GEFSMW_con_prob3kmehi_018.txt.gz
EHI
78 75 72 66 54 42 36 33 31 24 11 4 2 1 0 0 0 0 0 0 0 0 0 0 0 0 0 0 2 4 5 13 26 30 24 17 19 32 48 53 43 22 8
79 75 70 60 46 34 27 22 19 14 8 4 2 1 1 0 0 0 0 0 0 0 0 0 0 0 0 0 1 1 2 6 12 17 15 10 12 22 32 42 43 29 18
80 72 59 42 28 20 14 10 8 8 8 8 5 3 2 1 0 0 0 1 0 0 0 0 0 0 0 0 0 0 0 0 2 4 5 4 5 9 19 30 34 32 29
74 62 40 21 13 9 6 4 6 12 17 18 14 9 4 1 0 0 1 2 1 0 0 0 0 0 0 0 0 0 0 0 0 1 1 1 3 5 11 18 19 21 26
57 47 27 12 8 6 3 2 8 20 32 34 27 18 9 2 0 0 1 2 1 0 0 0 0 0 0 0 0 0 0 0 0 0 1 2 3 4 4 6 10 14 17
41 35 25 17 12 8 4 3 9 23 40 45 39 30 19 8 3 1 0 1 0 0 0 0 0 0 0 0 0 0 0 0 0 0 0 2 3 2 1 3 8 14 20
28 26 22 18 14 10 5 5 11 23 37 47 50 48 35 18 6 2 0 0 0 0 0 0 0 0 0 0 0 0 0 0 0 0 0 1 2 2 3 4 7 14 23
12 12 10 9 7 6 5 8 17 30 41 51 63 66 54 30 13 6 3 1 1 0 0 0 0 0 0 0 0 0 0 0 0 0 0 0 1 1 2 4 6 12 19
1 1 1 1 1 2 5 11 22 37 49 59 69 72 63 47 29 16 9 4 3 2 0 0 0 0 0 0 0 0 0 0 0 0 0 0 0 0 1 2 4 9 15
0 0 0 0 0 1 4 8 16 27 39 50 58 63 64 59 46 29 16 9 8 7 3 1 0 0 0 0 0 0 0 0 0 0 0 0 0 0 0 1 3 10 17
0 0 0 0 0 0 1 3 5 10 16 24 32 43 54 57 50 37 24 15 13 12 8 2 0 0 0 0 0 0 0 0 0 0 0 0 0 0 1 1 4 13 21
0 0 0 0 0 0 0 0 0 1 2 4 9 17 29 38 41 36 25 16 13 13 9 4 1 0 0 0 0 0 0 0 0 0 0 0 0 0 1 2 7 14 18
0 0 0 0 0 0 0 0 0 0 0 0 0 2 7 15 22 24 20 13 9 9 9 4 1 0 0 0 0 0 0 0 0 0 0 0 0 0 1 2 8 11 11
0 0 0 0 0 0 0 0 0 0 0 0 0 0 0 2 6 10 11 8 5 5 6 3 1 0 0 0 0 0 0 0 0 0 0 0 0 0 0 1 5 6 6
0 0 0 0 0 0 0 0 0 0 0 0 0 0 0 0 0 2 3 3 2 2 2 1 0 0 0 0 0 0 0 0 0 0 0 0 0 0 0 0 1 2 2
0 0 0 0 0 0 0 0 0 0 0 0 0 0 0 0 0 0 0 0 0 0 0 1 0 0 0 0 0 0 0 0 0 0 0 0 0 0 0 0 0 0 0
0 0 0 0 0 0 0 0 0 0 0 0 0 0 0 0 0 0 0 0 0 0 0 0 0 0 0 0 0 0 0 0 0 0 0 0 0 0 0 0 0 0 0
0 0 0 0 0 0 0 0 0 0 0 0 0 0 0 0 0 0 0 0 0 0 0 0 0 0 0 0 0 0 0 0 0 0 0 0 0 0 0 0 0 0 0
0 0 0 0 0 0 0 0 0 0 0 0 0 0 0 0 0 0 0 0 0 0 0 0 0 0 0 0 0 0 0 0 0 0 0 0 0 0 0 0 0 0 0
0 0 0 0 0 0 0 0 0 0 0 0 0 0 0 0 0 0 0 0 0 0 0 0 0 0 0 0 0 0 0 0 0 0 0 0 0 0 0 0 0 0 0
0 0 0 0 0 0 0 0 0 0 0 0 0 0 0 0 0 0 0 0 0 0 0 0 0 0 0 0 0 0 0 0 0 0 0 0 0 0 0 0 0 0 0
0 0 0 0 0 0 0 0 0 0 0 0 0 0 0 0 0 0 0 0 0 0 0 0 0 0 0 0 0 0 0 0 0 0 0 0 0 0 0 0 0 0 0
0 0 0 0 0 0 0 0 0 0 0 0 0 0 0 0 0 0 0 0 0 0 0 0 0 0 0 0 0 0 0 0 0 0 0 0 0 0 0 0 0 0 0
0 0 0 0 0 0 0 0 0 0 0 0 0 0 0 0 0 0 0 0 0 0 0 0 0 0 0 0 0 0 0 0 0 0 0 0 0 0 0 0 0 0 0
0 0 0 0 0 0 0 0 0 0 0 0 0 0 0 0 0 0 0 0 0 0 0 0 0 0 0 0 0 0 0 0 0 0 0 0 0 0 0 0 0 0 0
0 0 0 0 0 0 0 0 0 0 0 0 0 0 0 0 0 0 0 0 0 0 0 0 0 0 0 0 0 0 0 0 0 0 0 0 0 0 0 0 0 0 0

GEFSMW_con_prob3kmehi_024.txt.gz
EHI
87 86 83 81 82 84 87 90 92 88 82 76 71 63 45 20 10 19 25 18 6 3 3 3 3 3 2 2 1 0 1 2 2 3 2 2 3 8 24 44 57 58 57
78 74 68 64 66 73 77 80 82 75 67 65 59 52 40 20 10 17 27 25 14 7 5 4 4 2 1 1 0 0 0 1 1 2 1 1 2 5 15 34 52 62 64
59 52 42 38 41 49 58 66 71 62 53 48 38 33 33 20 12 21 37 45 33 18 11 7 3 1 0 0 0 0 0 0 0 0 0 0 0 1 6 17 33 53 66
33 27 21 19 20 24 38 56 64 59 51 43 36 34 32 23 23 36 54 60 47 27 18 11 5 1 0 0 0 0 0 0 0 0 0 0 0 0 2 5 13 31 48
12 10 8 7 6 9 23 43 55 58 57 55 58 58 49 39 43 56 67 64 48 33 25 20 13 6 1 0 0 0 0 0 0 0 0 0 0 0 0 1 3 12 22
3 2 2 1 1 4 13 27 39 47 54 61 71 78 74 66 67 70 69 60 48 40 36 33 29 18 6 1 0 0 0 0 0 0 0 0 0 0 0 0 0 4 8
1 0 0 0 0 1 6 13 21 29 37 46 59 72 79 82 83 81 73 62 54 51 51 49 43 29 14 4 0 0 0 0 0 0 1 1 0 0 0 0 0 2 6
0 0 0 0 0 1 2 5 8 13 18 25 34 47 59 69 78 84 83 78 71 68 67 62 49 36 21 9 3 1 0 0 0 0 1 1 1 1 1 0 0 2 4
0 0 0 0 0 0 1 1 2 3 6 9 13 21 29 39 51 65 76 81 82 80 76 68 54 40 27 17 9 3 0 0 0 0 1 1 1 1 1 0 0 1 2
0 0 0 0 0 0 0 0 0 0 1 1 3 5 9 14 22 33 45 56 67 74 75 69 57 43 30 22 14 6 1 0 0 0 0 0 0 0 0 0 0 0 1
0 0 0 0 0 0 0 0 0 0 0 0 0 0 1 3 5 10 16 23 35 47 56 60 54 40 27 22 17 8 2 0 0 0 0 0 0 0 0 0 0 0 0
0 0 0 0 0 0 0 0 0 0 0 0 0 0 0 0 0 1 2 5 10 17 26 36 39 31 23 19 14 5 1 0 0 0 0 0 0 0 0 0 0 0 0
0 0 0 0 0 0 0 0 0 0 0 0 0 0 0 0 0 0 0 1 1 3 7 14 19 21 21 16 8 2 1 0 0 0 0 0 0 0 0 0 0 0 0
0 0 0 0 0 0 0 0 0 0 0 0 0 0 0 0 0 0 0 0 0 1 2 4 8 13 15 11 4 1 2 2 1 0 0 0 0 0 0 0 0 0 0
0 0 0 0 0 0 0 0 0 0 0 0 0 0 0 0 0 0 0 0 0 0 0 1 3 5 6 4 1 0 2 4 3 1 0 0 0 0 0 0 0 0 0
0 0 0 0 0 0 0 0 0 0 0 0 0 0 0 0 0 0 0 0 0 0 0 0 0 1 1 0 0 0 1 4 3 1 0 0 0 0 0 0 0 0 0
0 0 0 0 0 0 0 0 0 0 0 0 0 0 0 0 0 0 0 0 0 0 0 0 0 0 0 0 0 0 1 2 2 1 0 0 0 0 0 0 0 0 0
0 0 0 0 0 0 0 0 0 0 0 0 0 0 0 0 0 0 0 0 0 0 0 0 0 0 0 0 0 0 0 0 0 0 0 0 0 0 0 0 0 0 0
0 0 0 0 0 0 0 0 0 0 0 0 0 0 0 0 0 0 0 0 0 0 0 0 0 0 0 0 0 0 0 0 0 0 0 0 0 0 0 0 0 0 0
0 0 0 0 0 0 0 0 0 0 0 0 0 0 0 0 0 0 0 0 0 0 0 0 0 0 0 0 0 0 0 0 0 0 0 0 0 0 0 0 0 0 0
0 0 0 0 0 1 1 0 0 0 0 0 0 0 0 0 0 0 0 0 0 0 0 0 0 0 0 0 0 0 0 0 0 0 0 0 0 0 0 0 0 0 0
0 0 0 0 0 1 1 0 0 0 0 0 0 0 0 0 0 0 0 0 0 0 0 0 0 0 0 0 0 0 0 0 0 0 0 0 0 0 0 0 0 0 0
0 0 0 0 0 0 0 0 0 0 0 0 0 0 0 0 0 0 0 0 0 0 0 0 0 0 0 0 0 0 0 0 0 0 0 0 0 0 0 0 0 0 0
0 0 0 0 0 0 0 0 0 0 0 0 0 0 0 0 0 0 0 0 0 0 0 0 0 0 0 0 0 0 0 0 0 0 0 0 0 0 0 0 0 0 0
0 0 0 0 0 0 0 0 0 0 0 0 0 0 0 0 0 0 0 0 0 0 0 0 0 0 0 0 0 0 0 0 0 0 0 0 0 0 0 0 0 0 0
0 0 0 0 0 0 0 0 0 0 0 0 0 0 0 0 0 0 0 0 0 0 0 0 0 0 0 0 0 0 0 0 0 0 0 0 0 0 0 0 0 0 0

GEFSMW_con_prob3kmehi_030.txt.gz
EHI
7 6 4 5 5 4 4 5 4 4 4 7 9 8 7 6 4 3 3 1 0 0 0 0 0 0 0 0 0 0 0 0 0 0 0 0 0 0 0 0 0 0 0
5 3 2 2 2 2 2 2 2 1 2 4 5 4 3 3 3 2 1 0 0 0 0 0 0 0 0 0 0 0 0 0 0 0 0 0 0 0 0 0 0 0 0
1 1 0 0 0 0 0 0 0 0 0 1 2 1 1 1 1 0 0 0 0 0 0 0 0 0 0 0 0 0 0 0 0 0 0 0 0 0 0 0 0 0 0
0 0 0 0 0 0 0 0 0 0 0 0 0 1 1 1 0 0 0 0 0 0 1 1 0 0 0 0 0 0 0 0 0 0 0 0 0 0 0 0 0 0 0
0 0 0 0 0 0 0 0 0 0 0 0 0 0 0 0 0 0 0 0 0 0 1 2 1 0 0 0 0 0 0 0 0 0 0 0 0 0 0 0 0 0 0
0 0 0 0 0 0 0 0 0 0 0 0 0 0 0 0 0 0 0 0 0 0 1 2 1 0 0 0 0 0 0 0 0 0 0 0 0 0 0 0 0 0 0
0 0 0 0 0 0 0 0 0 0 0 0 0 0 0 0 0 0 0 0 0 0 0 1 1 0 0 0 0 0 0 0 0 0 0 0 0 0 0 0 0 0 0
0 0 0 0 0 0 0 0 0 0 0 0 0 0 0 0 0 0 0 0 0 0 0 0 0 0 0 0 0 0 0 0 0 0 0 0 0 0 0 0 0 0 0
0 0 0 0 0 0 0 0 0 0 0 0 0 0 0 0 0 0 0 0 0 0 0 0 0 0 0 0 0 0 0 0 0 0 0 0 0 0 0 0 0 0 0
0 0 0 0 0 0 0 0 0 0 0 0 0 0 0 0 0 0 0 0 0 0 0 0 0 0 0 0 0 0 0 0 0 0 0 0 0 0 0 0 0 0 0
0 0 0 0 0 0 0 0 0 0 0 0 0 0 0 0 0 0 0 0 0 0 0 0 0 0 0 0 0 0 0 0 0 0 0 0 0 0 0 0 0 0 0
0 0 0 0 0 0 0 0 0 0 0 0 0 0 0 0 0 0 0 0 0 0 0 0 0 0 0 0 0 0 0 0 0 0 0 0 0 0 0 0 0 0 0
0 0 0 0 0 0 0 0 0 0 0 0 0 0 0 0 0 0 0 0 0 0 0 0 0 0 0 0 0 0 0 0 0 0 0 0 0 0 0 0 0 0 0
0 0 0 0 0 0 0 0 0 0 0 0 0 0 0 0 0 0 0 0 0 0 0 0 0 0 0 0 0 0 0 0 0 0 0 0 0 0 0 0 0 0 0
0 0 0 0 0 0 0 0 0 0 0 0 0 0 0 0 0 0 0 0 0 0 0 0 0 0 0 0 0 0 0 0 0 0 0 0 0 0 0 0 0 0 0
0 0 0 0 0 0 0 0 0 0 0 0 0 0 0 0 0 0 0 0 0 0 0 0 0 0 0 0 0 0 0 0 0 0 0 0 0 0 0 0 0 0 0
0 0 0 0 0 0 0 0 0 0 0 0 0 0 0 0 0 0 0 0 0 0 0 0 0 0 0 0 0 0 0 0 0 0 0 0 0 0 0 0 0 0 0
0 0 0 0 0 0 0 0 0 0 0 0 0 0 0 0 0 0 0 0 0 0 0 0 0 0 0 0 0 0 0 0 0 0 0 0 0 0 0 0 0 0 0
0 0 0 0 0 0 0 0 0 0 0 0 0 0 0 0 0 0 0 0 0 0 0 0 0 0 0 0 0 0 0 0 0 0 0 0 0 0 0 0 0 0 0
0 0 0 0 0 0 0 0 0 0 0 0 0 0 0 0 0 0 0 0 0 0 0 0 0 0 0 0 0 0 0 0 0 0 0 0 0 0 0 0 0 0 0
0 0 0 0 0 0 0 0 0 0 0 0 0 0 0 0 0 0 0 0 0 0 0 0 0 0 0 0 0 0 0 0 0 0 0 0 0 0 0 0 0 0 0
0 0 0 0 0 0 0 0 0 0 0 0 0 0 0 0 0 0 0 0 0 0 0 0 0 0 0 0 0 0 0 0 0 0 0 0 0 0 0 0 0 0 0
0 0 0 0 0 0 0 0 0 0 0 0 0 0 0 0 0 0 0 0 0 0 0 0 0 0 0 0 0 0 0 0 0 0 0 0 0 0 0 0 0 0 0
0 0 0 0 0 0 0 0 0 0 0 0 0 0 0 0 0 0 0 0 0 0 0 0 0 0 0 0 0 0 0 0 0 0 0 0 0 0 0 0 0 0 0
0 0 0 0 0 0 0 0 0 0 0 0 0 0 0 0 0 0 0 0 0 0 0 0 0 0 0 0 0 0 0 0 0 0 0 0 0 0 0 0 0 0 0
0 0 0 0 0 0 0 0 0 0 0 0 0 0 0 0 0 0 0 0 0 0 0 0 0 0 0 0 0 0 0 0 0 0 0 0 0 0 0 0 0 0 0

GEFSMW_con_prob3kmehi_036.txt.gz
EHI
0 0 0 0 0 0 0 0 0 0 0 0 0 0 1 1 2 3 4 3 2 1 0 0 0 0 0 0 0 0 0 0 0 0 0 0 0 0 0 0 0 0 0
0 0 0 0 0 0 0 0 0 0 0 0 0 0 0 1 2 2 2 1 1 1 0 0 0 0 0 0 0 0 0 0 0 0 0 0 0 0 0 0 0 0 0
0 0 0 0 0 0 0 0 0 0 0 0 0 0 0 0 1 1 1 0 0 0 0 0 0 0 0 0 0 0 0 0 0 0 0 0 0 0 0 0 0 0 0
0 0 0 0 0 0 0 0 0 0 0 0 0 0 0 0 0 0 0 0 0 0 0 0 0 0 0 0 0 0 0 0 0 0 0 0 0 0 0 0 0 0 0
0 0 0 0 0 0 0 0 0 0 0 0 0 0 0 0 0 0 0 0 0 0 0 0 0 0 0 0 0 0 0 0 0 0 0 0 0 0 0 0 0 0 0
0 0 0 0 0 0 0 0 0 0 0 0 0 0 0 0 0 0 0 0 0 0 0 0 0 0 0 0 0 0 0 0 0 0 0 0 0 0 0 0 0 0 0
0 0 0 0 0 0 0 0 0 0 0 0 0 0 0 0 0 0 0 0 0 0 0 0 0 0 0 0 0 0 0 0 0 0 0 0 0 0 0 0 0 0 0
0 0 0 0 0 0 0 0 0 0 0 0 0 0 0 0 0 0 0 0 0 0 0 0 0 0 0 0 0 0 0 0 0 0 0 0 0 0 0 0 0 0 0
0 0 0 0 0 0 0 0 0 0 0 0 0 0 0 0 0 0 0 0 0 0 0 0 0 0 0 0 0 0 0 0 0 0 0 0 0 0 0 0 0 0 0
0 0 0 0 0 0 0 0 0 0 0 0 0 0 0 0 0 0 0 0 0 0 0 0 0 0 0 0 0 0 0 0 0 0 0 0 0 0 0 0 0 0 0
0 0 0 0 0 0 0 0 0 0 0 0 0 0 0 0 0 0 0 0 0 0 0 0 0 0 0 0 0 0 0 0 0 0 0 0 0 0 0 0 0 0 0
0 0 0 0 0 0 0 0 0 0 0 0 0 0 0 0 0 0 0 0 0 0 0 0 0 0 0 0 0 0 0 0 0 0 0 0 0 0 0 0 0 0 0
0 0 0 0 0 0 0 0 0 0 0 0 0 0 0 0 0 0 0 0 0 0 0 0 0 0 0 0 0 0 0 0 0 0 0 0 0 0 0 0 0 0 0
0 0 0 0 0 0 0 0 0 0 0 0 0 0 0 0 0 0 0 0 0 0 0 0 0 0 0 0 0 0 0 0 0 0 0 0 0 0 0 0 0 0 0
0 0 0 0 0 0 0 0 0 0 0 0 0 0 0 0 0 0 0 0 0 0 0 0 0 0 0 0 0 0 0 0 0 0 0 0 0 0 0 0 0 0 0
0 0 0 0 0 0 0 0 0 0 0 0 0 0 0 0 0 0 0 0 0 0 0 0 0 0 0 0 0 0 0 0 0 0 0 0 0 0 0 0 0 0 0
0 0 0 0 0 0 0 0 0 0 0 0 0 0 0 0 0 0 0 0 0 0 0 0 0 0 0 0 0 0 0 0 0 0 0 0 0 0 0 0 0 0 0
0 0 0 0 0 0 0 0 0 0 0 0 0 0 0 0 0 0 0 0 0 0 0 0 0 0 0 0 0 0 0 0 0 0 0 0 0 0 0 0 0 0 0
0 0 0 0 0 0 0 0 0 0 0 0 0 0 0 0 0 0 0 0 0 0 0 0 0 0 0 0 0 0 0 0 0 0 0 0 0 0 0 0 0 0 0
0 0 0 0 0 0 0 0 0 0 0 0 0 0 0 0 0 0 0 0 0 0 0 0 0 0 0 0 0 0 0 0 0 0 0 0 0 0 0 0 0 0 0
0 0 0 0 0 0 0 0 0 0 0 0 0 0 0 0 0 0 0 0 0 0 0 0 0 0 0 0 0 0 0 0 0 0 0 0 0 0 0 0 0 0 0
0 0 0 0 0 0 0 0 0 0 0 0 0 0 0 0 0 0 0 0 0 0 0 0 0 0 0 0 0 0 0 0 0 0 0 0 0 0 0 0 0 0 0
0 0 0 0 0 0 0 0 0 0 0 0 0 0 0 0 0 0 0 0 0 0 0 0 0 0 0 0 0 0 0 0 0 0 0 0 0 0 0 0 0 0 0
0 0 0 0 0 0 0 0 0 0 0 0 0 0 0 0 0 0 0 0 0 0 0 0 0 0 0 0 0 0 0 0 0 0 0 0 0 0 0 0 0 0 0
0 0 0 0 0 0 0 0 0 0 0 0 0 0 0 0 0 0 0 0 0 0 0 0 0 0 0 0 0 0 0 0 0 0 0 0 0 0 0 0 0 0 0
0 0 0 0 0 0 0 0 0 0 0 0 0 0 0 0 0 0 0 0 0 0 0 0 0 0 0 0 0 0 0 0 0 0 0 0 0 0 0 0 0 0 0

GEFSMW_con_prob3kmehi_042.txt.gz
EHI
0 0 0 0 0 1 2 2 1 0 1 2 3 4 4 5 5 3 1 0 0 2 6 9 12 16 16 14 11 8 5 4 4 3 2 1 1 0 0 1 0 0 0
0 0 0 0 0 0 1 1 0 0 0 1 1 2 3 4 4 2 0 0 0 1 2 5 9 12 13 12 10 8 5 3 2 3 2 1 0 0 0 1 0 0 0
0 0 0 0 0 0 0 0 0 0 0 0 0 1 1 1 1 0 0 0 0 0 0 2 5 7 10 10 8 5 4 3 2 2 2 1 0 0 0 0 0 0 0
0 0 0 0 0 0 0 0 0 0 0 0 0 0 0 0 0 0 0 0 0 0 0 0 1 4 7 8 5 3 3 3 1 1 1 1 1 0 0 0 0 0 0
0 0 0 0 0 0 0 0 0 0 0 0 0 0 0 0 0 0 0 0 0 0 0 0 0 1 4 4 4 3 2 2 1 0 0 0 0 0 0 0 0 0 0
0 0 0 0 0 0 0 0 0 0 0 0 0 0 0 0 0 0 0 0 0 0 0 0 0 0 1 2 3 3 2 1 0 0 0 0 0 0 0 0 0 0 0
0 0 0 0 0 0 0 0 0 0 0 0 0 0 0 0 0 0 0 0 0 0 0 0 0 0 0 1 1 2 2 1 0 0 1 1 1 0 0 0 0 0 0
0 0 0 0 0 0 0 0 0 0 0 0 0 0 0 0 0 0 0 0 0 0 0 0 0 0 0 0 0 1 1 1 0 0 1 2 2 1 0 0 0 0 0
0 0 0 0 0 0 0 0 0 0 0 0 0 0 0 0 0 0 0 0 0 0 0 0 0 0 0 0 0 0 0 0 0 0 1 2 3 2 1 0 0 0 0
0 0 0 0 0 0 0 0 0 0 0 0 0 0 0 0 0 0 0 0 0 0 0 0 0 0 0 0 0 0 0 0 0 0 0 1 2 4 3 2 1 1 0
0 0 0 0 0 0 0 0 0 0 0 0 0 0 0 0 0 0 0 0 0 0 0 0 0 0 0 0 0 0 0 0 0 0 0 0 1 3 4 3 3 2 2
0 0 0 0 0 0 0 0 0 0 0 0 0 0 0 0 0 0 0 0 0 0 0 0 0 0 0 0 0 0 0 0 0 0 0 0 0 1 2 3 4 4 3
0 0 0 0 0 0 0 0 0 0 0 0 0 0 0 0 0 0 0 0 0 0 0 0 0 0 0 0 0 0 0 0 0 0 0 0 0 1 1 2 3 3 2
0 0 0 0 0 0 0 0 0 0 0 0 0 0 0 0 0 0 0 0 0 0 0 0 0 0 0 0 0 0 0 0 0 0 0 0 0 1 1 1 2 2 2
0 0 0 0 0 0 0 0 0 0 0 0 0 0 0 0 0 0 0 0 0 0 0 0 0 0 0 0 0 0 0 0 0 0 0 0 0 0 0 0 1 1 1
0 0 0 0 0 0 0 0 0 0 0 0 0 0 0 0 0 0 0 0 0 0 0 0 0 0 0 0 0 0 0 0 0 0 0 0 0 0 0 0 0 0 0
0 0 0 0 0 0 0 0 0 0 0 0 0 0 0 0 0 0 0 0 0 0 0 0 0 0 0 0 0 0 0 0 0 0 0 0 0 0 0 0 0 0 0
0 0 0 0 0 0 0 0 0 0 0 0 0 0 0 0 0 0 0 0 0 0 0 0 0 0 0 0 0 0 0 0 0 0 0 0 0 0 0 0 0 0 0
0 0 0 0 0 0 0 0 0 0 0 0 0 0 0 0 0 0 0 0 0 0 0 0 0 0 0 0 0 0 0 0 0 0 0 0 0 0 0 0 0 0 0
0 0 0 0 0 0 0 0 0 0 0 0 0 0 0 0 0 0 0 0 0 0 0 0 0 0 0 0 0 0 0 0 0 0 0 0 0 0 0 0 0 0 0
0 0 0 0 0 0 0 0 0 0 0 0 0 0 0 0 0 0 0 0 0 0 0 0 0 0 0 0 0 0 0 0 0 0 0 0 0 0 0 0 0 0 0
0 0 0 0 0 0 0 0 0 0 0 0 0 0 0 0 0 0 0 0 0 0 0 0 0 0 0 0 0 0 0 0 0 0 0 0 0 0 0 0 0 0 0
0 0 0 0 0 0 0 0 0 0 0 0 0 0 0 0 0 0 0 0 0 0 0 0 0 0 0 0 0 0 0 0 0 0 0 0 0 0 0 0 0 0 0
0 0 0 0 0 0 0 0 0 0 0 0 0 0 0 0 0 0 0 0 0 0 0 0 0 0 0 0 0 0 0 0 0 0 0 0 0 0 0 0 0 0 0
0 0 0 0 0 0 0 0 0 0 0 0 0 0 0 0 0 0 0 0 0 0 0 0 0 0 0 0 0 0 0 0 0 0 0 0 0 0 0 0 0 0 0
0 0 0 0 0 0 0 0 0 0 0 0 0 0 0 0 0 0 0 0 0 0 0 0 0 0 0 0 0 0 0 0 0 0 0 0 0 0 0 0 0 0 0

GEFSMW_con_prob3kmehi_048.txt.gz
EHI
0 1 1 1 1 2 7 11 12 11 11 13 16 16 14 14 15 16 15 11 9 9 9 8 7 6 4 3 4 5 3 2 3 3 2 1 1 2 3 5 5 4 4
0 0 1 1 1 2 4 6 6 6 7 8 10 9 8 7 8 9 9 7 6 7 7 6 5 4 3 3 3 3 2 2 2 2 1 0 1 2 2 4 4 2 2
0 0 1 1 2 2 2 3 4 4 4 4 4 3 2 1 1 2 3 2 2 3 4 4 2 2 3 3 2 1 1 1 1 1 0 1 2 2 2 3 2 1 1
0 0 1 2 2 2 2 4 7 7 6 4 2 1 0 0 0 0 0 0 0 0 1 1 1 2 2 1 1 0 0 0 0 0 0 1 3 3 3 2 1 0 0
0 0 0 1 1 1 1 4 8 10 9 5 2 0 0 0 0 0 0 0 0 0 0 0 0 1 1 0 0 0 0 0 0 0 0 1 2 2 2 1 0 0 0
0 0 0 0 1 1 0 2 6 8 7 4 1 0 0 0 0 0 0 0 0 0 0 0 0 0 0 0 0 0 0 0 0 0 0 0 0 1 1 0 0 0 1
0 0 0 0 1 1 0 1 2 3 2 1 0 0 0 0 0 0 0 0 0 0 0 0 0 0 0 0 0 0 0 1 0 0 0 0 0 0 0 0 0 1 2
0 0 0 0 1 1 0 0 0 0 0 0 0 0 0 0 0 0 0 0 0 0 0 0 0 0 0 0 0 0 0 0 0 0 1 1 1 1 0 0 0 0 1
0 0 0 0 0 0 0 0 0 0 0 0 0 0 0 0 0 0 0 0 0 0 0 0 0 0 0 0 0 0 0 0 0 1 2 3 3 2 1 0 0 0 0
0 0 0 0 0 0 0 0 0 0 0 0 0 0 0 0 0 0 0 0 0 0 0 0 0 0 0 0 0 0 0 0 0 1 2 3 4 4 2 1 1 0 0
0 0 0 0 0 0 0 0 0 0 0 0 0 0 0 0 0 0 0 0 0 0 0 0 0 0 0 0 0 0 0 0 0 0 1 1 3 4 3 2 1 1 1
0 0 0 0 0 0 0 0 0 0 0 0 0 0 0 0 0 0 0 0 0 0 0 0 0 0 0 0 0 0 0 0 0 0 0 0 1 3 3 1 1 1 2
0 0 0 0 0 0 0 0 0 0 0 0 0 0 0 0 0 0 0 0 0 0 0 0 0 0 0 0 0 0 0 0 0 0 0 0 0 1 1 1 0 1 1
0 0 0 0 0 0 0 0 0 0 0 0 0 0 0 0 0 0 0 0 0 0 0 0 0 0 0 0 0 0 0 0 0 0 0 0 0 0 0 0 0 0 0
0 0 0 0 0 0 0 0 0 0 0 0 0 0 0 0 0 0 0 0 0 0 0 0 0 0 0 0 0 0 0 0 0 0 0 0 0 0 0 0 0 0 0
0 0 0 0 0 0 0 0 0 0 0 0 0 0 0 0 0 0 0 0 0 0 0 0 0 0 0 0 0 0 0 0 0 0 0 0 0 0 0 0 0 0 0
0 0 0 0 0 0 0 0 0 0 0 0 0 0 0 0 0 0 0 0 0 0 0 0 0 0 0 0 0 0 0 0 0 0 0 0 0 0 0 0 0 0 0
0 0 0 0 0 0 0 0 0 0 0 0 0 0 0 0 0 0 0 0 0 0 0 0 0 0 0 0 0 0 0 0 0 0 0 0 0 0 0 0 0 0 0
0 0 0 0 0 0 0 0 0 0 0 0 0 0 0 0 0 0 0 0 0 0 0 0 0 0 0 0 0 0 0 0 0 0 0 0 0 0 0 0 0 0 0
0 0 0 0 0 0 0 0 0 0 0 0 0 0 0 0 0 0 0 0 0 0 0 0 0 0 0 0 0 0 0 0 0 0 0 0 0 0 0 0 0 0 0
0 0 0 0 0 0 0 0 0 0 0 0 0 0 0 0 0 0 0 0 0 0 0 0 0 0 0 0 0 0 0 0 0 0 0 0 0 0 0 0 0 0 0
0 0 0 0 0 0 0 0 0 0 0 0 0 0 0 0 0 0 0 0 0 0 0 0 0 0 0 0 0 0 0 0 0 0 0 0 0 0 0 0 0 0 0
0 0 0 0 0 0 0 0 0 0 0 0 0 0 0 0 0 0 0 0 0 0 0 0 0 0 0 0 0 0 0 0 0 0 0 0 0 0 0 0 0 0 0
0 0 0 0 0 0 0 0 0 0 0 0 0 0 0 0 0 0 0 0 0 0 0 0 0 0 0 0 0 0 0 0 0 0 0 0 0 0 0 0 0 0 0
0 0 0 0 0 0 0 0 0 0 0 0 0 0 0 0 0 0 0 0 0 0 0 0 0 0 0 0 0 0 0 0 0 0 0 0 0 0 0 0 0 0 0
0 0 0 0 0 0 0 0 0 0 0 0 0 0 0 0 0 0 0 0 0 0 0 0 0 0 0 0 0 0 0 0 0 0 0 0 0 0 0 0 0 0 0

GEFSMW_con_prob3kmehi_054.txt.gz
EHI
0 0 0 0 0 0 0 0 0 0 0 0 0 0 0 0 0 0 0 0 0 0 0 0 0 0 0 0 0 0 0 0 0 0 0 0 0 0 0 0 0 0 0
0 0 0 0 0 0 0 0 0 0 0 0 0 0 0 0 0 0 0 0 0 0 0 0 0 0 0 0 0 0 0 0 0 0 0 0 0 0 0 0 0 0 0
0 0 0 0 0 0 0 0 0 0 0 0 0 0 0 0 0 0 0 0 0 0 0 0 0 0 0 0 0 0 0 0 0 0 0 0 0 0 0 0 0 0 0
0 0 0 0 0 0 0 0 0 0 0 0 0 0 0 0 0 0 0 0 0 0 0 0 0 0 0 0 0 0 0 0 0 0 0 0 0 0 0 0 0 0 0
1 1 0 0 0 0 0 0 0 0 0 0 0 0 0 0 0 0 0 0 0 0 0 0 0 0 0 0 0 0 0 0 0 0 0 0 0 0 0 0 0 0 0
1 1 0 0 0 0 0 0 0 0 0 0 0 0 0 0 0 0 0 0 0 0 0 0 0 0 0 0 0 0 0 0 0 0 0 0 0 0 0 0 0 0 0
1 0 0 0 0 0 0 0 0 0 0 0 0 0 0 0 0 0 0 0 0 0 0 0 0 0 0 0 0 0 0 0 0 0 0 0 0 0 0 0 0 0 0
0 0 0 0 0 0 0 0 0 0 0 0 0 0 0 0 0 0 0 0 0 0 0 0 0 0 0 0 0 0 0 0 0 0 0 0 0 0 0 0 0 0 0
0 0 0 0 0 0 0 0 0 0 0 0 0 0 0 0 0 0 0 0 0 0 0 0 0 0 0 0 0 0 0 0 0 0 0 0 0 0 0 0 0 0 0
0 0 0 0 0 0 0 0 0 0 0 0 0 0 0 0 0 0 0 0 0 0 0 0 0 0 0 0 0 0 0 0 0 0 0 0 0 0 0 0 0 0 0
0 0 0 0 0 0 0 0 0 0 0 0 0 0 0 0 0 0 0 0 0 0 0 0 0 0 0 0 0 0 0 0 0 0 0 0 0 0 0 0 0 0 0
0 0 0 0 0 0 0 0 0 0 0 0 0 0 0 0 0 0 0 0 0 0 0 0 0 0 0 0 0 0 0 0 0 0 0 0 0 0 0 0 0 0 0
0 0 0 0 0 0 0 0 0 0 0 0 0 0 0 0 0 0 0 0 0 0 0 0 0 0 0 0 0 0 0 0 0 0 0 0 0 0 0 0 0 0 0
0 0 0 0 0 0 0 0 0 0 0 0 0 0 0 0 0 0 0 0 0 0 0 0 0 0 0 0 0 0 0 0 0 0 0 0 0 0 0 0 0 0 0
0 0 0 0 0 0 0 0 0 0 0 0 0 0 0 0 0 0 0 0 0 0 0 0 0 0 0 0 0 0 0 0 0 0 0 0 0 0 0 0 0 0 0
0 0 0 0 0 0 0 0 0 0 0 0 0 0 0 0 0 0 0 0 0 0 0 0 0 0 0 0 0 0 0 0 0 0 0 0 0 0 0 0 0 0 0
0 0 0 0 0 0 0 0 0 0 0 0 0 0 0 0 0 0 0 0 0 0 0 0 0 0 0 0 0 0 0 0 0 0 0 0 0 0 0 0 0 0 0
0 0 0 0 0 0 0 0 0 0 0 0 0 0 0 0 0 0 0 0 0 0 0 0 0 0 0 0 0 0 0 0 0 0 0 0 0 0 0 0 0 0 0
0 0 0 0 0 0 0 0 0 0 0 0 0 0 0 0 0 0 0 0 0 0 0 0 0 0 0 0 0 0 0 0 0 0 0 0 0 0 0 0 0 0 0
0 0 0 0 0 0 0 0 0 0 0 0 0 0 0 0 0 0 0 0 0 0 0 0 0 0 0 0 0 0 0 0 0 0 0 0 0 0 0 0 0 0 0
0 0 0 0 0 0 0 0 0 0 0 0 0 0 0 0 0 0 0 0 0 0 0 0 0 0 0 0 0 0 0 0 0 0 0 0 0 0 0 0 0 0 0
0 0 0 0 0 0 0 0 0 0 0 0 0 0 0 0 0 0 0 0 0 0 0 0 0 0 0 0 0 0 0 0 0 0 0 0 0 0 0 0 0 0 0
0 0 0 0 0 0 0 0 0 0 0 0 0 0 0 0 0 0 0 0 0 0 0 0 0 0 0 0 0 0 0 0 0 0 0 0 0 0 0 0 0 0 0
0 0 0 0 0 0 0 0 0 0 0 0 0 0 0 0 0 0 0 0 0 0 0 0 0 0 0 0 0 0 0 0 0 0 0 0 0 0 0 0 0 0 0
0 0 0 0 0 0 0 0 0 0 0 0 0 0 0 0 0 0 0 0 0 0 0 0 0 0 0 0 0 0 0 0 0 0 0 0 0 0 0 0 0 0 0
0 0 0 0 0 0 0 0 0 0 0 0 0 0 0 0 0 0 0 0 0 0 0 0 0 0 0 0 0 0 0 0 0 0 0 0 0 0 0 0 0 0 0

GEFSMW_con_prob3kmehi_060.txt.gz
EHI
0 0 0 0 0 0 0 0 0 0 0 0 0 0 0 0 0 0 0 0 0 0 0 0 0 0 0 0 0 0 0 0 0 0 0 0 0 0 0 0 0 0 0
0 0 0 0 0 0 0 0 0 0 0 0 0 0 0 0 0 0 0 0 0 0 0 0 0 0 0 0 0 0 0 0 0 0 0 0 0 0 0 0 0 0 0
0 0 0 0 0 0 0 0 0 0 0 0 0 0 0 0 0 0 0 0 0 0 0 0 0 0 0 0 0 0 0 0 0 0 0 0 0 0 0 0 0 0 0
0 0 0 0 0 0 0 0 0 0 0 0 0 0 0 0 0 0 0 0 0 0 0 0 0 0 0 0 0 0 0 0 0 0 0 0 0 0 0 0 0 0 0
0 0 0 0 0 0 0 0 0 0 0 0 0 0 0 0 0 0 0 0 0 0 0 0 0 0 0 0 0 0 0 0 0 0 0 0 0 0 0 0 0 0 0
0 0 0 0 0 0 0 0 0 0 0 0 0 0 0 0 0 0 0 0 0 0 0 0 0 0 0 0 0 0 0 0 0 0 0 0 0 0 0 0 0 0 0
0 0 0 0 0 0 0 0 0 0 0 0 0 0 0 0 0 0 0 0 0 0 0 0 0 0 0 0 0 0 0 0 0 0 0 0 0 0 0 0 0 0 0
0 0 0 0 0 0 0 0 0 0 0 0 0 0 0 0 0 0 0 0 0 0 0 0 0 0 0 0 0 0 0 0 0 0 0 0 0 0 0 0 0 0 0
0 0 0 0 0 0 0 0 0 0 0 0 0 0 0 0 0 0 0 0 0 0 0 0 0 0 0 0 0 0 0 0 0 0 0 0 0 0 0 0 0 0 0
0 0 0 0 0 0 0 0 0 0 0 0 0 0 0 0 0 0 0 0 0 0 0 0 0 0 0 0 0 0 0 0 0 0 0 0 0 0 0 0 0 0 0
0 0 0 0 0 0 0 0 0 0 0 0 0 0 0 0 0 0 0 0 0 0 0 0 0 0 0 0 0 0 0 0 0 0 0 0 0 0 0 0 0 0 0
0 0 0 0 0 0 0 0 0 0 0 0 0 0 0 0 0 0 0 0 0 0 0 0 0 0 0 0 0 0 0 0 0 0 0 0 0 0 0 0 0 0 0
0 0 0 0 0 0 0 0 0 0 0 0 0 0 0 0 0 0 0 0 0 0 0 0 0 0 0 0 0 0 0 0 0 0 0 0 0 0 0 0 0 0 0
0 0 0 0 0 0 0 0 0 0 0 0 0 0 0 0 0 0 0 0 0 0 0 0 0 0 0 0 0 0 0 0 0 0 0 0 0 0 0 0 0 0 0
0 0 0 0 0 0 0 0 0 0 0 0 0 0 0 0 0 0 0 0 0 0 0 0 0 0 0 0 0 0 0 0 0 0 0 0 0 0 0 0 0 0 0
0 0 0 0 0 0 0 0 0 0 0 0 0 0 0 0 0 0 0 0 0 0 0 0 0 0 0 0 0 0 0 0 0 0 0 0 0 0 0 0 0 0 0
0 0 0 0 0 0 0 0 0 0 0 0 0 0 0 0 0 0 0 0 0 0 0 0 0 0 0 0 0 0 0 0 0 0 0 0 0 0 0 0 0 0 0
0 0 0 0 0 0 0 0 0 0 0 0 0 0 0 0 0 0 0 0 0 0 0 0 0 0 0 0 0 0 0 0 0 0 0 0 0 0 0 0 0 0 0
0 0 0 0 0 0 0 0 0 0 0 0 0 0 0 0 0 0 0 0 0 0 0 0 0 0 0 0 0 0 0 0 0 0 0 0 0 0 0 0 0 0 0
0 0 0 0 0 0 0 0 0 0 0 0 0 0 0 0 0 0 0 0 0 0 0 0 0 0 0 0 0 0 0 0 0 0 0 0 0 0 0 0 0 0 0
0 0 0 0 0 0 0 0 0 0 0 0 0 0 0 0 0 0 0 0 0 0 0 0 0 0 0 0 0 0 0 0 0 0 0 0 0 0 0 0 0 0 0
0 0 0 0 0 0 0 0 0 0 0 0 0 0 0 0 0 0 0 0 0 0 0 0 0 0 0 0 0 0 0 0 0 0 0 0 0 0 0 0 0 0 0
0 0 0 0 0 0 0 0 0 0 0 0 0 0 0 0 0 0 0 0 0 0 0 0 0 0 0 0 0 0 0 0 0 0 0 0 0 0 0 0 0 0 0
0 0 0 0 0 0 0 0 0 0 0 0 0 0 0 0 0 0 0 0 0 0 0 0 0 0 0 0 0 0 0 0 0 0 0 0 0 0 0 0 0 0 0
0 0 0 0 0 0 0 0 0 0 0 0 0 0 0 0 0 0 0 0 0 0 0 0 0 0 0 0 0 0 0 0 0 0 0 0 0 0 0 0 0 0 0
0 0 0 0 0 0 0 0 0 0 0 0 0 0 0 0 0 0 0 0 0 0 0 0 0 0 0 0 0 0 0 0 0 0 0 0 0 0 0 0 0 0 0

GEFSMW_con_prob3kmehi_066.txt.gz
EHI
14 13 11 10 8 8 8 6 4 3 3 3 3 3 2 1 0 0 0 0 0 0 0 0 0 0 0 0 0 0 0 0 0 0 0 0 0 1 1 1 0 0 0
11 10 9 7 6 5 5 4 2 1 2 2 2 1 1 1 0 0 0 0 0 0 0 0 0 0 0 0 0 0 0 0 0 0 0 0 0 0 0 0 0 0 0
6 6 5 3 2 2 3 3 2 2 2 2 1 1 1 1 0 0 0 0 0 0 0 0 0 0 0 0 0 0 0 0 0 0 0 0 0 0 0 0 0 0 0
3 3 2 1 0 1 3 4 7 10 10 7 4 3 1 1 0 0 0 0 0 0 0 0 0 0 0 0 0 0 0 0 0 0 0 0 0 0 0 0 0 0 0
1 1 0 0 0 2 4 8 15 19 18 13 8 5 2 1 0 0 0 0 0 0 0 0 0 0 0 0 0 0 0 0 0 0 0 0 0 0 0 0 0 0 0
0 0 0 0 2 4 7 12 19 23 20 14 9 5 3 1 0 0 0 0 0 0 0 0 0 0 0 0 0 0 0 0 0 0 0 0 0 0 0 0 0 0 0
0 0 1 2 4 6 9 13 18 19 14 8 5 3 1 1 0 0 0 0 0 0 0 0 0 0 0 0 0 0 0 0 0 0 0 0 0 0 0 0 0 0 0
0 0 1 3 5 7 10 12 13 11 7 4 2 1 0 0 0 0 0 0 0 0 0 0 0 0 0 0 0 0 0 0 0 0 0 0 0 0 0 0 0 0 0
0 0 1 3 6 8 10 9 7 5 4 2 1 0 0 0 0 0 0 0 0 0 0 0 0 0 0 0 0 0 0 0 0 0 0 0 0 0 0 0 0 0 0
0 0 1 3 5 6 7 5 4 3 3 1 0 0 0 0 0 0 0 0 0 0 0 0 0 0 0 0 0 0 0 0 0 0 0 0 0 0 0 0 0 0 0
0 1 2 3 4 3 2 2 2 2 2 1 0 0 0 0 0 0 0 0 0 0 0 0 0 0 0 0 0 0 0 0 0 0 0 0 0 0 0 0 0 0 0
1 1 2 2 1 0 0 1 1 1 1 0 0 0 0 0 0 0 0 0 0 0 0 0 0 0 0 0 0 0 0 0 0 0 0 0 0 0 0 0 0 0 0
0 1 1 1 0 0 0 0 0 0 0 0 0 0 0 0 0 0 0 0 0 0 0 0 0 0 0 0 0 0 0 0 0 0 0 0 0 0 0 0 0 0 0
0 0 0 0 0 0 0 0 0 0 0 0 0 0 0 0 0 0 0 0 0 0 0 0 0 0 0 0 0 0 0 0 0 0 0 0 0 0 0 0 0 0 0
0 0 0 0 0 0 0 0 0 0 0 0 0 0 0 0 0 0 0 0 0 0 0 0 0 0 0 0 0 0 0 0 0 0 0 0 0 0 0 0 0 0 0
0 0 0 0 0 0 0 0 0 0 0 0 0 0 0 0 0 0 0 0 0 0 0 0 0 0 0 0 0 0 0 0 0 0 0 0 0 0 0 0 0 0 0
0 0 0 0 0 0 0 0 0 0 0 0 0 0 0 0 0 0 0 0 0 0 0 0 0 0 0 0 0 0 0 0 0 0 0 0 0 0 0 0 0 0 0
0 0 0 0 0 0 0 0 0 0 0 0 0 0 0 0 0 0 0 0 0 0 0 0 0 0 0 0 0 0 0 0 0 0 0 0 0 0 0 0 0 0 0
0 0 0 0 0 0 0 0 0 0 0 0 0 0 0 0 0 0 0 0 0 0 0 0 0 0 0 0 0 0 0 0 0 0 0 0 0 0 0 0 0 0 0
0 0 0 0 0 0 0 0 0 0 0 0 0 0 0 0 0 0 0 0 0 0 0 0 0 0 0 0 0 0 0 0 0 0 0 0 0 0 0 0 0 0 0
0 0 0 0 0 0 0 0 0 0 0 0 0 0 0 0 0 0 0 0 0 0 0 0 0 0 0 0 0 0 0 0 0 0 0 0 0 0 0 0 0 0 0
0 0 0 0 0 1 1 1 0 0 0 0 0 0 0 0 0 0 0 0 0 0 0 0 0 0 0 0 0 0 0 0 0 0 0 0 0 0 0 0 0 0 0
0 0 0 0 0 1 2 1 0 0 0 0 0 0 0 0 0 0 0 0 0 0 0 0 0 0 0 0 0 0 0 0 0 0 0 0 0 0 0 0 0 0 0
0 0 0 0 0 1 1 1 1 0 0 0 0 0 0 0 0 0 0 0 0 0 0 0 0 0 0 0 0 0 0 0 0 0 0 0 0 0 0 0 0 0 0
0 0 0 0 0 0 0 0 0 0 0 0 0 0 0 0 0 0 0 0 0 0 0 0 0 0 0 0 0 0 0 0 0 0 0 0 0 0 0 0 0 0 0
0 0 0 0 0 0 0 0 0 0 0 0 0 0 0 0 0 0 0 0 0 0 0 0 0 0 0 0 0 0 0 0 0 0 0 0 0 0 0 0 0 0 0

GEFSMW_con_prob3kmehi_072.txt.gz
EHI
52 50 49 49 48 47 49 50 47 39 31 26 25 22 17 13 13 12 10 7 3 1 0 0 0 0 0 0 0 0 0 0 0 0 0 0 0 1 2 5 7 8 7
43 39 37 38 39 41 45 46 44 39 30 24 21 19 15 13 13 13 12 10 6 2 1 0 0 0 0 0 0 0 0 0 0 0 0 0 0 0 2 4 6 6 6
33 28 24 25 27 32 37 41 45 43 35 25 17 14 13 12 13 15 16 12 7 3 1 0 0 0 0 0 0 0 0 0 0 0 0 0 0 0 1 3 4 4 4
29 25 20 20 23 28 35 45 55 55 45 32 20 13 11 12 14 17 17 13 8 4 1 0 0 0 0 0 0 0 0 0 0 0 0 0 0 0 0 1 2 3 3
27 24 21 22 25 28 38 54 66 67 56 41 28 18 13 12 14 16 14 11 8 5 3 1 0 0 0 0 0 0 0 0 0 0 0 0 0 0 0 0 1 1 2
22 23 25 30 32 33 40 56 71 73 62 47 35 26 19 14 12 10 8 5 4 4 3 1 0 0 0 0 0 0 0 0 0 0 0 0 0 0 0 0 0 0 1
19 24 31 38 41 42 46 57 70 72 59 43 33 27 20 13 8 5 2 1 1 1 1 0 0 0 0 0 0 0 0 0 0 0 0 0 0 0 0 0 0 0 0
19 25 33 40 43 46 53 62 67 63 49 35 27 21 14 7 3 1 0 0 0 0 0 0 0 0 0 0 0 0 0 0 0 0 0 0 0 0 0 0 0 0 0
14 18 25 30 34 42 53 60 58 49 37 28 21 15 9 3 0 0 0 0 0 0 0 0 0 0 0 0 0 0 0 0 0 0 0 0 0 0 0 0 0 0 0
7 10 16 21 26 35 43 47 44 36 27 21 16 10 6 2 0 0 0 0 0 0 0 0 0 0 0 0 0 0 0 0 0 0 0 0 0 0 0 0 0 0 0
3 6 13 19 24 27 29 31 30 25 19 15 11 7 3 1 0 0 0 0 0 0 0 0 0 0 0 0 0 0 0 0 0 0 0 0 0 0 0 0 0 0 0
2 6 15 21 20 18 18 20 20 17 14 12 9 6 3 2 1 1 0 0 0 0 0 0 0 0 0 0 0 0 0 0 0 0 0 0 0 0 0 0 0 0 0
6 12 22 24 18 15 16 16 13 11 9 8 6 5 3 3 4 3 1 1 1 1 1 0 0 0 0 0 0 0 0 0 0 0 0 0 0 0 0 0 0 0 0
13 20 30 30 23 20 17 13 9 6 4 3 2 2 3 4 5 5 3 2 2 2 1 0 0 0 0 0 0 0 0 0 1 1 1 0 0 0 0 0 0 0 0
16 24 33 35 30 24 18 12 8 5 3 1 0 1 3 4 5 4 3 3 3 2 1 0 0 0 0 0 0 0 0 0 1 2 2 1 0 0 0 0 0 0 0
18 24 33 37 34 26 17 12 9 7 5 3 2 2 3 4 3 3 2 3 3 3 2 1 1 0 0 0 0 0 0 0 1 2 3 2 0 0 0 0 0 0 0
19 25 30 34 34 26 18 13 10 8 7 6 5 4 3 3 3 1 1 2 3 4 4 3 2 1 0 0 0 0 0 0 1 2 3 2 1 0 0 0 0 0 0
17 21 24 24 24 23 19 16 11 7 6 6 6 5 4 4 3 2 2 4 4 4 3 3 3 2 1 0 0 0 0 0 1 2 3 3 2 1 0 0 0 0 0
11 13 13 11 16 21 22 18 13 8 6 7 8 6 5 5 5 5 6 7 7 6 3 2 3 3 2 1 0 0 0 0 1 2 3 3 2 1 0 0 0 0 0
7 8 8 11 19 26 26 22 17 13 10 9 8 7 7 8 9 10 12 12 10 7 4 2 3 4 3 1 0 0 0 0 1 2 3 2 1 0 0 0 0 0 0
4 9 17 26 32 35 34 30 24 19 14 11 9 10 10 10 11 13 16 15 11 7 5 3 2 3 3 1 0 0 0 0 1 2 3 2 1 0 0 0 0 0 0
7 16 33 43 45 43 42 39 32 25 18 14 13 15 16 13 11 13 14 13 10 6 4 2 1 2 2 1 0 0 0 0 0 1 2 2 1 0 0 0 0 0 0
15 25 41 49 48 45 45 43 38 31 24 20 19 20 19 16 13 11 8 7 7 4 2 1 1 1 3 3 2 1 0 0 0 0 1 1 0 0 0 0 0 0 0
24 32 41 46 46 44 42 41 39 36 32 27 23 20 17 14 13 9 4 3 5 5 2 1 1 1 2 4 4 2 1 0 0 0 0 0 0 0 0 0 0 0 0
31 34 38 39 40 40 39 37 36 36 34 27 20 14 8 6 7 5 1 1 4 4 3 2 1 1 1 2 2 1 0 0 0 0 0 0 0 0 0 0 0 0 0
34 35 35 33 32 35 36 34 33 33 31 24 14 7 2 1 2 1 0 1 2 3 2 1 1 1 0 0 0 0 0 0 0 0 0 0 0 0 0 0 0 0 0

GEFSMW_con_prob3kmehi_078.txt.gz
EHI
20 25 30 29 25 22 21 22 19 13 9 6 3 2 1 0 0 0 0 0 0 0 0 0 0 0 0 0 0 0 0 0 0 0 0 0 0 0 0 0 0 0 0
20 24 26 25 23 20 20 19 16 10 6 3 1 1 0 0 0 0 0 0 0 0 0 0 0 0 0 0 0 0 0 0 0 0 0 0 0 0 0 0 0 0 0
19 20 21 19 17 16 16 16 12 7 2 1 0 0 0 0 0 0 0 0 0 0 0 0 0 0 0 0 0 0 0 0 0 0 0 0 0 0 0 0 0 0 0
13 14 15 13 10 10 13 13 9 3 0 0 0 0 0 0 0 0 0 0 0 0 0 0 0 0 0 0 0 0 0 0 0 0 0 0 0 0 0 0 0 0 0
8 10 11 10 8 8 10 10 5 1 0 1 1 1 0 0 0 0 0 0 0 0 0 0 0 0 0 0 0 0 0 0 0 0 0 0 0 0 0 0 0 0 0
9 10 10 9 8 8 9 7 3 0 1 2 3 2 1 0 0 0 0 0 0 0 0 0 0 0 0 0 0 0 0 0 0 0 0 0 0 0 0 0 0 0 0
12 10 9 8 8 10 11 8 5 4 6 6 5 4 2 1 0 0 0 0 0 0 0 0 0 0 0 0 0 0 0 0 0 0 0 0 0 0 0 0 0 0 0
15 11 8 8 10 12 13 13 12 12 12 11 7 4 3 1 0 0 0 0 0 0 0 0 0 0 0 0 0 0 0 0 0 0 0 0 0 0 0 0 0 0 0
16 12 9 9 11 13 14 16 18 16 14 11 8 5 3 1 0 0 0 0 0 0 0 0 0 0 0 0 0 0 0 0 0 0 0 0 0 0 0 0 0 0 0
15 13 10 10 12 12 13 15 16 15 12 10 8 6 2 0 0 0 0 0 0 0 0 0 0 0 0 0 0 0 0 0 0 0 0 0 0 0 0 0 0 0 0
11 10 9 10 12 13 12 12 11 11 11 10 9 6 3 1 0 0 0 0 0 0 0 0 0 0 0 0 0 0 0 0 0 0 0 0 0 0 0 0 0 0 0
8 6 6 7 11 13 13 11 11 12 12 10 8 5 3 1 0 0 0 0 0 0 0 0 0 0 0 0 0 0 0 0 0 0 0 0 0 0 0 0 0 0 0
4 3 4 5 8 12 13 13 14 14 12 9 6 4 2 1 0 0 0 0 0 0 0 0 0 0 0 0 0 0 0 0 0 0 0 0 0 0 0 0 0 0 0
2 2 2 2 4 8 12 13 13 12 10 8 5 3 2 1 0 0 0 0 0 0 0 0 0 0 0 0 0 0 0 0 0 0 0 0 0 0 0 0 0 0 0
1 1 1 1 2 6 9 9 8 8 7 5 3 2 1 0 0 0 0 0 0 0 0 0 0 0 0 0 0 0 0 0 0 0 0 0 0 0 0 0 0 0 0
0 1 1 2 3 4 4 4 4 4 4 3 2 1 0 0 0 0 0 0 0 0 0 0 0 0 0 0 0 0 0 0 0 0 0 0 0 0 0 0 0 0 0
0 0 1 2 1 1 1 1 2 2 2 1 1 0 0 0 0 0 0 0 0 0 0 0 0 0 0 0 0 0 0 0 0 0 0 0 0 0 0 0 0 0 0
0 0 1 1 0 0 0 0 0 1 1 0 0 0 0 0 0 0 0 0 0 0 0 0 0 0 0 0 0 0 0 0 0 0 0 0 0 0 0 0 0 0 0
0 0 0 0 0 0 0 0 0 0 0 0 0 0 0 0 0 0 0 0 0 0 0 0 0 0 0 0 0 0 0 0 0 0 0 0 0 0 0 0 0 0 0
1 0 0 0 0 0 0 0 0 0 0 0 0 0 0 0 0 0 0 0 0 0 0 0 0 0 0 0 0 0 0 0 0 0 0 0 0 0 0 0 0 0 0
1 0 0 0 0 0 0 0 0 0 0 0 0 0 0 0 0 0 0 0 0 0 0 0 0 0 0 0 0 0 0 0 0 0 0 0 0 0 0 0 0 0 0
1 0 0 0 0 0 0 0 0 0 0 0 0 0 0 0 0 0 0 0 0 0 0 0 0 0 0 0 0 0 0 0 0 0 0 0 0 0 0 0 0 0 0
0 0 0 0 0 0 0 0 0 0 0 0 0 0 0 0 0 0 0 0 0 0 0 0 0 0 0 0 0 0 0 0 0 0 0 0 0 0 0 0 0 0 0
0 0 0 0 0 0 0 0 0 0 0 0 0 0 0 0 0 0 0 0 0 0 0 0 0 0 0 0 0 0 0 0 0 0 0 0 0 0 0 0 0 0 0
0 0 0 0 0 0 0 0 0 0 0 0 0 0 0 0 0 0 0 0 0 0 0 0 0 0 0 0 0 0 0 0 0 0 0 0 0 0 0 0 0 0 0
0 0 0 0 0 0 0 0 0 0 0 0 0 0 0 0 0 0 0 0 0 0 0 0 0 0 0 0 0 0 0 0 0 0 0 0 0 0 0 0 0 0 0

GEFSMW_con_prob3kmehi_084.txt.gz
EHI
3 3 5 8 9 6 4 4 4 4 3 3 3 2 1 0 0 0 0 0 0 0 0 0 0 0 0 0 0 0 0 0 0 0 0 0 0 0 0 0 0 0 0
2 3 5 9 10 7 4 4 4 3 3 3 2 1 0 0 0 0 0 0 0 0 0 0 0 0 0 0 0 0 0 0 0 0 0 0 0 0 0 0 0 0 0
3 3 5 9 10 7 5 4 4 3 3 3 1 0 0 0 0 0 0 0 0 0 0 0 0 0 0 0 0 0 0 0 0 0 0 0 0 0 0 0 0 0 0
3 3 5 8 8 7 6 5 4 3 3 2 1 0 0 0 0 0 0 0 0 0 0 0 0 0 0 0 0 0 0 0 0 0 0 0 0 0 0 0 0 0 0
3 3 5 7 7 6 6 6 4 3 2 1 0 0 0 0 0 0 0 0 0 0 0 0 0 0 0 0 0 0 0 0 0 0 0 0 0 0 0 0 0 0 0
1 2 4 6 5 5 6 5 4 3 1 0 0 0 0 0 0 0 0 0 0 0 0 0 0 0 0 0 0 0 0 0 0 0 0 0 0 0 0 0 0 0 0
0 2 4 5 4 4 5 4 3 2 1 0 0 0 0 0 0 0 0 0 0 0 0 0 0 0 0 0 0 0 0 0 0 0 0 0 0 0 0 0 0 0 0
0 1 3 4 4 5 5 4 3 2 0 0 0 0 0 0 0 0 0 0 0 0 0 0 0 0 0 0 0 0 0 0 0 0 0 0 0 0 0 0 0 0 0
1 2 3 3 3 4 4 3 3 2 1 0 0 0 0 0 0 0 0 0 0 0 0 0 0 0 0 0 0 0 0 0 0 0 0 0 0 0 0 0 0 0 0
1 2 2 1 1 3 3 3 3 3 2 0 0 0 1 1 1 1 0 0 0 0 0 0 0 0 0 0 0 0 0 0 0 0 0 0 0 0 0 0 0 0 0
0 1 1 0 0 1 2 3 3 2 1 0 0 1 2 2 2 2 1 0 0 0 0 0 0 0 0 0 0 0 0 0 0 0 0 0 0 0 0 0 0 0 0
0 0 0 0 0 0 1 2 2 1 0 0 0 1 3 3 3 2 1 0 0 0 0 0 0 0 0 0 0 0 0 0 0 0 0 0 0 0 0 0 0 0 0
1 0 0 0 0 0 0 1 2 1 0 0 1 2 2 3 3 2 1 0 0 0 0 0 0 0 0 0 0 0 0 0 0 0 0 0 0 0 0 0 0 0 0
2 1 0 0 0 0 0 1 1 1 0 1 2 2 2 2 2 1 0 0 0 0 0 0 0 0 0 0 0 0 0 0 0 0 0 0 0 0 0 0 0 0 0
2 2 1 1 1 1 0 0 0 0 0 1 2 2 1 1 1 2 1 0 0 0 0 0 0 0 0 0 0 0 0 0 0 0 0 0 0 0 0 0 0 0 0
1 1 1 1 2 2 0 0 0 0 0 0 1 1 1 0 1 2 1 0 0 0 0 0 0 0 0 0 0 0 0 0 0 0 0 0 0 0 0 0 0 0 0
0 0 0 1 3 3 1 0 0 0 0 0 0 0 0 0 0 1 1 0 0 0 0 0 0 0 0 0 0 0 0 0 0 0 0 0 0 0 0 0 0 0 0
0 0 0 0 1 1 0 0 0 0 0 0 0 0 0 0 0 0 0 0 0 0 0 0 0 0 0 0 0 0 0 0 0 0 0 0 0 0 0 0 0 0 0
0 0 0 0 0 0 0 0 0 0 0 0 0 0 0 0 0 0 0 0 0 0 0 0 0 0 0 0 0 0 0 0 0 0 0 0 0 0 0 0 0 0 0
0 0 0 0 0 0 0 0 0 0 0 0 0 0 0 0 0 0 0 0 0 0 0 0 0 0 0 0 0 0 0 0 0 0 0 0 0 0 0 0 0 0 0
0 0 0 0 0 0 0 0 0 0 0 0 0 0 0 0 0 0 0 0 0 0 0 0 0 0 0 0 0 0 0 0 0 0 0 0 0 0 0 0 0 0 0
0 0 0 0 0 0 0 0 0 0 0 0 0 0 0 0 0 0 0 0 0 0 0 0 0 0 0 0 0 0 0 0 0 0 0 0 0 0 0 0 0 0 0
0 0 0 0 0 0 0 0 0 0 0 0 0 0 0 0 0 0 0 0 0 0 0 0 0 0 0 0 0 0 0 0 0 0 0 0 0 0 0 0 0 0 0
0 0 0 0 0 0 0 0 0 0 0 0 0 0 0 0 0 0 0 0 0 0 0 0 0 0 0 0 0 0 0 0 0 0 0 0 0 0 0 0 0 0 0
0 0 0 0 0 0 0 0 0 0 0 0 0 0 0 0 0 0 0 0 0 0 0 0 0 0 0 0 0 0 0 0 0 0 0 0 0 0 0 0 0 0 0
0 0 0 0 0 0 0 0 0 0 0 0 0 0 0 0 0 0 0 0 0 0 0 0 0 0 0 0 0 0 0 0 0 0 0 0 0 0 0 0 0 0 0

GEFSMW_con_prob3kmehi_090.txt.gz
EHI
7 7 7 8 9 9 9 12 15 17 16 15 13 10 7 4 4 5 4 3 3 3 3 3 3 3 1 0 0 0 0 0 0 0 0 0 0 0 0 0 0 0 0
5 6 7 7 8 9 10 13 17 17 16 16 13 9 7 6 6 5 4 3 3 3 3 3 3 3 2 1 0 0 0 0 0 0 0 0 0 0 0 0 0 0 0
4 5 6 6 7 10 11 14 18 18 16 15 11 7 7 7 7 6 5 4 3 3 3 3 3 3 2 1 0 0 0 0 0 0 0 0 0 0 0 0 0 0 0
4 4 4 5 8 11 13 18 21 19 15 12 9 7 6 6 6 5 5 4 3 3 3 3 3 3 3 1 1 0 0 0 0 0 0 0 0 0 0 0 0 0 0
6 4 4 6 9 12 16 21 23 20 15 11 9 7 5 5 5 5 5 4 3 3 3 3 3 3 3 3 2 1 0 0 0 0 0 0 0 0 0 0 0 0 0
8 7 6 9 12 15 18 22 23 19 15 13 11 8 6 6 5 4 4 4 3 3 3 3 3 3 3 3 3 2 1 0 0 0 0 0 0 0 0 0 0 0 0
10 10 11 14 17 19 20 22 22 19 15 14 12 8 6 6 5 4 4 3 3 3 3 3 3 3 3 3 3 2 1 0 0 0 0 0 0 0 0 0 0 0 0
11 12 15 17 19 20 21 24 23 18 15 14 13 10 8 6 4 3 3 3 3 3 3 3 3 3 3 3 3 1 0 0 0 0 0 0 0 0 0 0 0 0 0
9 12 15 18 18 18 22 25 23 19 16 15 15 14 10 7 5 4 3 3 3 3 3 3 3 3 3 3 2 1 0 0 0 0 0 0 0 0 0 0 0 0 0
5 9 14 18 17 17 19 21 21 19 18 19 19 16 13 10 8 5 4 3 3 3 4 3 3 3 3 3 2 1 0 0 0 0 0 0 0 0 0 0 0 0 0
3 5 11 15 16 15 15 16 16 17 19 22 22 19 17 14 11 8 5 4 3 4 4 4 3 3 3 3 3 1 0 0 0 0 0 0 0 0 0 0 0 0 0
3 4 7 11 13 13 12 12 13 15 19 24 25 23 22 19 14 11 8 5 4 4 4 4 4 3 3 3 3 2 0 0 0 0 0 1 1 1 1 0 0 0 0
4 4 5 8 11 11 10 10 13 15 19 24 26 27 27 25 19 15 12 9 6 5 4 4 3 3 3 3 3 1 0 0 0 0 0 1 2 2 1 1 1 1 0
6 6 6 7 8 9 9 11 14 16 19 23 27 30 33 30 24 19 15 12 9 6 5 4 3 3 3 3 3 1 0 0 0 0 0 1 2 2 2 2 2 2 1
9 9 10 10 10 11 14 16 18 21 24 27 29 32 34 31 26 21 17 13 10 7 6 5 4 3 3 3 2 2 1 1 1 1 1 0 1 1 2 2 2 2 2
12 15 18 19 19 21 24 26 28 30 34 36 34 33 33 30 27 23 19 14 11 9 7 4 3 3 3 1 1 1 1 2 2 2 2 1 0 0 0 0 1 1 1
17 21 25 28 30 31 32 34 37 40 43 44 40 36 34 31 27 23 19 15 13 12 10 5 3 3 2 1 0 0 1 1 2 3 3 1 1 0 0 0 0 0 0
19 23 28 32 34 35 36 37 38 40 44 45 43 40 37 34 28 22 18 15 15 15 12 7 4 3 2 1 0 0 0 0 1 2 2 2 1 0 0 0 0 0 0
21 24 28 32 33 33 35 37 36 36 38 40 40 37 35 32 26 19 14 14 14 14 11 6 4 3 3 1 0 0 0 0 0 1 1 1 1 0 0 0 0 0 0
20 22 25 27 29 29 31 33 31 29 29 30 28 25 23 21 17 13 11 11 11 10 7 5 4 5 4 2 0 0 0 0 0 1 1 1 0 0 0 0 0 0 0
13 15 17 19 20 21 24 25 22 19 17 17 14 11 9 9 8 9 10 10 8 7 5 5 6 7 5 2 0 0 0 0 0 1 2 2 1 0 0 0 0 0 0
8 8 10 10 10 11 14 17 14 10 8 6 5 4 4 3 4 6 9 10 8 5 4 5 5 5 5 2 0 0 0 0 0 1 2 2 1 0 0 0 0 0 0
5 4 5 5 4 3 5 8 8 6 3 2 2 4 4 3 2 4 6 7 7 4 3 4 4 5 5 4 2 1 0 0 0 0 1 1 0 0 0 0 0 0 0
3 3 3 3 2 0 0 2 3 3 1 1 1 3 4 3 3 3 3 4 4 4 4 5 5 7 7 5 3 1 0 0 0 0 0 0 0 0 0 0 0 0 0
2 2 2 3 2 1 1 0 1 1 0 0 0 1 1 2 3 3 1 2 3 3 4 4 5 6 5 3 2 1 0 0 0 0 0 0 0 0 0 0 0 0 0
1 1 2 3 3 2 2 1 0 0 0 0 0 0 0 1 1 1 1 1 2 2 2 2 3 2 2 1 0 0 0 0 0 0 0 0 0 0 0 0 0 0 0

GEFSMW_con_prob3kmehi_096.txt.gz
EHI
39 39 36 34 39 44 45 44 45 49 48 42 34 28 21 18 15 11 8 4 1 2 1 2 3 1 0 0 0 0 0 0 0 0 0 0 0 0 0 0 0 0 0
40 39 34 31 35 39 40 38 37 40 43 41 36 28 20 14 11 9 7 4 2 2 1 2 2 1 0 0 1 1 0 0 0 0 0 0 0 0 0 0 0 0 0
39 37 32 29 28 29 30 29 29 32 36 37 34 26 17 9 7 9 8 5 3 2 1 1 1 0 0 1 2 2 1 0 0 0 0 0 0 0 0 0 0 0 0
37 36 32 28 24 23 24 27 29 32 34 34 32 24 14 7 8 12 13 10 7 3 1 0 0 0 0 1 2 2 2 1 0 0 0 0 0 0 0 0 0 0 0
32 34 32 26 22 21 24 30 34 37 37 35 32 24 13 8 11 17 21 16 10 6 2 1 1 2 1 0 1 1 2 2 1 0 0 0 0 0 0 0 0 0 0
27 31 31 27 23 22 27 34 38 41 41 37 32 23 15 14 18 22 24 17 11 8 5 4 4 3 1 0 0 1 3 2 1 0 0 0 0 0 0 0 0 0 0
28 31 33 30 28 29 34 39 43 46 44 37 30 23 19 20 21 20 18 13 9 9 9 8 6 5 2 1 1 2 3 3 1 1 0 0 0 0 0 0 0 0 0
31 31 34 35 34 36 41 47 51 51 47 40 34 30 25 20 17 15 12 7 5 9 12 11 7 5 3 2 2 3 3 3 3 2 1 0 0 0 0 0 0 0 0
27 31 36 39 39 42 49 55 59 60 54 47 41 38 30 19 15 15 11 5 3 7 12 12 9 6 4 3 3 3 3 3 3 3 2 1 0 0 0 0 0 0 0
22 30 39 42 43 48 56 61 65 66 61 52 43 36 30 21 18 20 16 10 8 10 13 13 10 8 6 4 4 3 3 3 3 3 3 2 1 1 1 0 0 0 0
21 32 44 48 49 53 60 66 68 66 60 52 43 38 34 28 25 29 28 24 19 17 17 16 13 10 7 6 5 4 3 3 3 3 3 3 3 3 2 1 1 0 0
23 35 51 57 58 61 65 68 67 61 55 51 49 50 48 42 37 38 40 37 32 25 20 17 13 10 9 8 6 5 3 3 2 2 2 3 4 5 4 3 2 1 0
26 38 57 66 67 69 70 69 65 58 53 52 54 57 56 52 46 46 48 47 41 32 24 19 15 11 10 9 8 6 5 3 2 1 1 1 3 5 6 5 3 3 2
31 42 59 68 71 73 74 71 65 59 57 57 57 57 57 55 50 49 51 51 45 38 31 24 18 13 11 9 9 8 7 5 3 1 1 1 2 4 5 6 5 5 5
32 45 60 69 73 75 75 70 65 63 64 65 62 59 59 58 54 51 52 50 45 40 36 29 20 14 10 6 6 8 8 6 5 5 4 2 1 1 3 4 5 5 5
32 44 59 71 78 80 77 72 68 69 71 69 65 63 63 61 57 53 52 50 45 41 38 31 22 15 9 3 2 4 5 6 8 9 8 3 0 0 1 2 2 2 2
39 45 56 70 78 80 80 77 74 73 73 71 68 68 68 66 60 55 54 53 50 45 42 36 29 21 12 3 0 1 2 5 7 9 9 5 2 1 1 1 1 1 0
47 50 56 66 74 75 78 80 78 75 74 72 70 70 71 69 65 60 57 58 56 52 48 44 37 29 18 5 0 0 1 2 4 5 6 5 3 2 2 2 2 2 1
48 50 54 61 69 71 74 77 75 73 71 69 67 68 70 70 67 63 59 59 58 53 48 45 40 34 22 7 0 0 0 1 2 2 2 3 2 1 1 1 1 2 2
42 44 47 50 57 62 66 68 66 64 62 60 58 59 62 63 63 60 56 54 54 48 40 37 38 35 23 9 1 0 1 2 3 2 1 0 0 0 0 0 0 1 1
30 34 36 37 40 45 49 51 51 49 46 46 47 48 49 49 50 51 49 48 46 41 34 32 33 32 23 10 2 0 1 2 2 1 1 0 0 0 0 0 0 0 0
19 22 24 25 26 27 30 32 33 32 32 32 35 37 36 34 35 39 40 38 35 31 27 25 25 24 19 11 3 0 0 1 1 0 0 0 0 0 0 0 0 0 0
12 13 14 16 16 16 17 18 19 20 21 22 23 24 24 23 25 29 31 29 25 20 17 16 16 15 13 10 4 1 0 0 0 0 0 0 0 0 0 0 0 0 0
9 9 10 10 9 9 10 10 10 12 13 13 13 14 14 16 18 21 22 20 15 12 10 10 10 10 9 7 5 2 0 0 0 0 0 0 0 0 0 0 0 0 0
9 8 7 6 5 5 5 6 6 6 7 8 9 9 9 10 12 14 13 11 8 6 6 6 6 6 5 3 2 1 0 0 0 0 0 0 0 0 0 0 0 0 0
9 7 6 5 4 3 4 5 4 4 4 5 6 7 8 9 9 10 8 4 2 2 2 2 2 2 2 1 0 1 0 0 0 0 0 0 0 0 0 0 0 0 0

GEFSMW_con_prob3kmehi_102.txt.gz
EHI
31 27 24 22 19 18 20 22 22 19 18 15 10 7 5 3 3 1 0 0 0 0 0 0 0 0 0 0 0 0 0 0 0 0 0 0 0 0 0 0 0 0 0
31 28 24 22 21 20 19 20 19 16 13 11 8 4 3 2 1 0 0 0 0 0 0 0 0 0 0 0 0 0 0 0 0 0 0 0 0 0 0 0 0 0 0
30 27 24 22 20 19 18 17 14 11 10 9 7 4 2 1 0 0 0 0 0 0 0 0 0 0 0 0 0 0 0 0 0 0 0 0 0 0 0 0 0 0 0
29 26 22 19 17 16 16 15 13 10 10 10 11 8 4 1 1 0 0 0 0 0 0 0 0 0 0 0 0 0 0 0 0 0 0 0 0 0 0 0 0 0 0
26 23 19 17 15 15 16 15 13 11 11 11 12 9 4 1 1 1 0 0 0 0 0 0 0 0 0 0 0 0 0 0 0 0 0 0 0 0 0 0 0 0 0
22 19 16 14 13 14 15 14 12 10 11 12 11 7 2 1 1 1 0 0 0 0 0 0 0 0 0 0 0 0 0 0 0 0 0 0 0 0 0 0 0 0 0
20 18 15 14 13 14 14 14 11 11 12 12 10 6 3 2 1 0 0 0 0 0 0 0 0 0 0 0 0 0 0 0 0 0 0 0 0 0 0 0 0 0 0
20 19 17 16 15 16 16 16 14 12 13 12 9 6 3 3 2 1 0 0 0 0 0 0 0 0 0 0 0 0 0 0 0 0 0 0 0 0 0 0 0 0 0
19 19 19 18 17 17 18 18 17 15 13 12 8 5 3 3 3 1 0 0 0 0 0 0 0 0 0 0 0 0 0 0 0 0 0 0 0 0 0 0 0 0 0
16 19 21 21 19 17 18 19 19 17 14 10 6 4 3 3 3 2 0 0 0 0 0 0 0 0 0 0 0 0 0 0 0 0 0 0 0 0 0 0 0 0 0
12 16 21 22 20 19 19 20 20 18 14 8 4 3 2 2 2 1 0 0 0 0 0 0 0 0 0 0 0 0 0 0 0 0 0 0 0 0 0 0 0 0 0
7 11 17 20 21 23 24 23 23 21 16 10 4 1 1 1 1 0 0 0 0 0 0 0 0 0 0 0 0 0 0 0 0 0 0 0 0 0 0 0 0 0 0
6 8 13 18 22 26 30 30 28 25 20 15 9 4 2 2 1 0 0 0 0 0 0 0 0 0 0 0 0 0 0 0 0 0 0 0 0 0 0 0 0 0 0
7 8 11 16 22 27 33 35 33 30 26 22 17 11 7 6 4 1 0 0 0 0 0 0 0 0 0 0 0 0 0 0 0 0 0 0 0 0 0 0 0 0 0
9 8 9 14 21 27 33 36 35 34 33 30 24 17 12 8 5 1 1 2 1 0 0 0 0 0 0 0 0 0 0 0 0 0 0 0 0 0 0 0 0 0 0
11 9 8 12 19 26 33 36 37 36 36 34 28 21 14 8 4 1 1 3 2 1 1 1 0 0 0 0 0 0 0 0 0 0 0 0 0 0 0 0 0 0 0
12 9 8 10 16 22 29 34 37 36 35 31 27 21 14 8 4 2 3 3 3 2 1 1 0 0 0 0 0 0 0 0 0 0 0 0 0 0 0 0 0 0 0
9 7 7 8 10 15 21 28 31 32 30 25 21 19 15 10 7 6 6 6 6 5 3 2 1 0 0 0 0 0 0 0 0 0 0 0 0 0 0 0 0 0 0
5 5 4 4 5 9 14 19 22 23 21 17 15 17 16 14 12 10 8 8 7 6 5 4 2 1 0 0 0 0 0 0 0 0 0 0 0 0 0 0 0 0 0
3 4 3 2 3 5 9 12 12 13 14 12 13 14 14 14 14 12 9 6 5 4 4 4 2 1 0 0 0 0 0 0 0 0 0 0 0 0 0 0 0 0 0
2 3 2 1 1 2 5 6 7 8 10 10 9 10 10 11 12 11 7 5 3 2 2 2 1 0 0 0 0 0 0 0 0 0 0 0 0 0 0 0 0 0 0
2 1 1 0 0 1 2 4 5 5 6 6 6 6 7 8 8 7 6 4 3 2 1 0 0 0 0 0 0 0 0 0 0 0 0 0 0 0 0 0 0 0 0
2 1 0 0 0 0 1 2 3 3 2 3 3 4 4 4 3 3 4 3 2 1 1 0 0 0 0 0 0 0 0 0 0 0 0 0 0 0 0 0 0 0 0
1 0 0 0 0 0 1 1 1 1 1 1 1 2 2 2 2 2 2 2 1 0 0 0 0 0 0 0 0 0 0 0 0 0 0 0 0 0 0 0 0 0 0
0 0 0 0 0 0 0 0 0 0 0 0 0 1 1 1 1 1 1 1 0 0 0 0 0 0 0 0 0 0 0 0 0 0 0 0 0 0 0 0 0 0 0
0 0 0 0 0 0 0 0 0 0 0 0 0 0 0 1 1 0 0 0 0 0 0 0 0 0 0 0 0 0 0 0 0 0 0 0 0 0 0 0 0 0 0

GEFSMW_con_prob3kmehi_108.txt.gz
EHI
23 23 22 23 21 14 8 6 7 8 8 6 4 3 3 2 1 0 0 0 0 0 0 0 0 0 0 0 0 0 0 0 0 0 0 0 0 0 0 0 0 0 0
21 21 21 21 20 15 10 8 8 9 8 6 5 3 3 2 1 0 0 0 0 0 0 0 0 0 0 0 0 0 0 0 0 0 0 0 0 0 0 0 0 0 0
21 21 20 18 15 13 10 9 9 9 8 7 5 3 2 1 1 1 0 0 0 0 0 0 0 0 0 0 0 0 0 0 0 0 0 0 0 0 0 0 0 0 0
23 22 18 14 11 10 8 7 7 7 8 7 5 3 3 2 2 2 1 0 0 0 0 0 0 0 0 0 0 0 0 0 0 0 0 0 0 0 0 0 0 0 0
21 20 15 10 8 7 6 5 6 6 7 7 5 3 3 3 3 3 1 0 0 0 0 0 0 0 0 0 0 0 0 0 0 0 0 0 0 0 0 0 0 0 0
15 14 11 8 7 7 5 4 5 6 7 7 5 4 3 3 3 3 2 1 0 0 0 0 0 0 0 0 0 0 0 0 0 0 0 0 0 0 0 0 0 0 0
8 9 9 8 8 8 6 5 5 6 7 7 5 3 3 3 3 3 3 1 0 0 0 0 0 0 0 0 0 0 0 0 0 0 0 0 0 0 0 0 0 0 0
5 6 6 7 8 8 7 7 7 7 7 6 4 3 3 3 3 3 3 2 1 0 0 0 0 0 0 0 0 0 0 0 0 0 0 0 0 0 0 0 0 0 0
2 3 4 4 5 6 7 7 7 7 6 6 5 4 3 3 3 3 3 2 1 0 0 0 0 0 0 0 0 0 0 0 0 0 0 0 0 0 0 0 0 0 0
0 1 1 2 3 4 5 6 6 6 6 5 5 4 3 3 3 3 3 2 1 0 0 0 0 0 0 0 0 0 0 0 0 0 0 0 0 0 0 0 0 0 0
0 0 0 1 1 2 4 6 7 7 6 6 5 4 2 1 2 3 2 1 0 0 0 0 0 0 0 0 0 0 0 0 0 0 0 0 0 0 0 0 0 0 0
0 0 0 0 0 1 4 7 9 8 8 7 6 4 1 0 1 2 1 0 0 0 0 0 0 0 0 0 0 0 0 0 0 0 0 0 0 0 0 0 0 0 0
0 0 0 0 0 0 3 7 9 9 9 8 8 5 2 0 1 1 0 0 0 0 0 0 0 0 0 0 0 0 0 0 0 0 0 0 0 0 0 0 0 0 0
0 0 0 0 0 0 1 4 7 8 9 9 9 6 2 0 0 0 0 1 1 0 0 0 0 0 0 0 0 0 0 0 0 0 0 0 0 0 0 0 0 0 0
0 0 0 0 0 0 0 2 4 7 9 9 9 6 3 1 0 0 1 2 2 1 1 0 0 0 0 0 0 0 0 0 0 0 0 0 0 0 0 0 0 0 0
1 1 0 0 0 0 0 1 3 7 10 10 9 7 4 2 1 0 1 3 3 2 1 0 0 0 0 0 0 0 0 0 0 0 0 0 0 0 0 0 0 0 0
2 1 0 0 0 1 1 1 3 8 11 12 11 8 5 3 2 1 1 2 2 1 1 0 0 0 0 0 0 0 0 0 0 0 0 0 0 0 0 0 0 0 0
1 1 0 0 1 1 2 2 3 6 10 12 10 8 5 4 3 1 1 1 1 0 0 0 0 0 0 0 0 0 0 0 0 0 0 0 0 0 0 0 0 0 0
0 0 0 1 2 2 2 2 3 4 6 7 5 5 5 4 4 2 1 0 0 0 0 0 0 0 0 0 0 0 0 0 0 0 0 0 0 0 0 0 0 0 0
0 0 1 2 3 2 1 2 3 3 2 2 1 1 3 4 4 2 1 0 0 0 0 0 0 0 0 0 0 0 0 0 0 0 0 0 0 0 0 0 0 0 0
0 0 1 2 2 1 0 1 2 2 1 0 0 0 1 2 2 1 2 1 1 0 0 0 0 0 0 0 0 0 0 0 0 0 0 0 0 0 0 0 0 0 0
0 0 0 1 1 0 0 0 1 1 0 0 0 0 0 0 0 1 2 2 1 0 0 0 0 0 0 0 0 0 0 0 0 0 0 0 0 0 0 0 0 0 0
0 0 0 0 0 0 0 0 0 0 0 0 0 0 0 0 0 0 1 1 1 0 0 0 0 0 0 0 0 0 0 0 0 0 0 0 0 0 0 0 0 0 0
0 0 0 0 0 0 0 0 0 0 0 0 0 0 0 0 0 0 0 0 0 0 0 0 0 0 0 0 0 0 0 0 0 0 0 0 0 0 0 0 0 0 0
0 0 0 0 0 0 0 0 0 0 0 0 0 0 0 0 0 0 0 0 0 0 0 0 0 0 0 0 0 0 0 0 0 0 0 0 0 0 0 0 0 0 0
0 0 0 0 0 0 0 0 0 0 0 0 0 0 0 0 0 0 0 0 0 0 0 0 0 0 0 0 0 0 0 0 0 0 0 0 0 0 0 0 0 0 0

GEFSMW_con_prob3kmehi_114.txt.gz
EHI
37 37 33 26 22 20 17 14 14 17 18 18 17 15 12 9 6 4 3 2 1 1 1 0 0 0 0 0 0 0 0 0 0 0 0 0 0 0 0 0 0 0 0
34 34 31 26 23 21 17 12 11 14 16 18 19 17 12 8 6 5 4 2 1 0 0 0 0 0 0 0 0 0 0 0 0 0 0 0 0 0 0 0 0 0 0
29 29 28 26 25 22 17 12 10 12 14 16 18 17 13 10 7 6 6 3 1 0 0 0 0 0 0 0 0 0 0 0 0 0 0 0 0 0 0 0 0 0 0
24 25 25 24 24 20 16 14 13 12 13 13 12 13 12 11 9 8 7 4 2 2 1 0 0 0 0 0 0 0 0 0 0 0 0 0 0 0 0 0 0 0 0
20 21 22 21 18 15 12 12 13 13 12 10 8 8 9 9 9 8 6 4 3 2 2 1 0 0 0 0 0 0 0 0 0 0 0 0 0 0 0 0 0 0 0
16 17 18 16 13 11 10 9 10 11 10 8 7 6 6 7 8 8 6 5 4 3 3 2 1 0 0 0 0 0 0 0 0 0 0 0 0 0 0 0 0 0 0
15 16 17 16 13 12 11 9 7 7 7 7 6 5 5 5 6 7 8 6 5 4 4 3 2 1 0 0 0 0 0 0 0 0 0 0 0 0 0 0 0 0 0
16 17 17 16 14 12 12 11 9 7 6 6 5 4 4 4 6 8 9 8 6 6 5 4 3 1 0 0 0 0 0 0 0 0 0 0 0 0 0 0 0 0 0
14 15 14 12 11 10 11 11 11 10 7 6 6 5 4 3 5 7 9 9 7 6 5 4 3 2 1 1 1 0 0 0 0 0 0 0 1 1 1 1 1 0 0
9 10 10 8 8 9 9 9 10 10 7 7 7 5 4 3 4 6 7 8 8 7 6 4 3 2 1 1 2 1 0 0 0 0 0 0 1 2 2 2 1 0 0
8 8 9 8 7 8 7 6 6 7 7 7 7 6 5 5 5 6 7 9 10 10 9 6 5 3 2 2 3 2 0 0 0 0 0 0 1 2 1 1 1 0 0
12 10 10 9 7 7 6 5 4 4 6 8 9 9 9 9 8 8 9 10 12 12 10 9 7 6 4 4 5 4 2 0 0 0 0 0 0 0 0 0 0 0 0
21 18 14 11 7 6 6 6 4 3 5 10 12 13 14 13 11 10 10 12 14 13 11 11 9 7 5 5 5 5 4 1 0 0 0 0 0 1 1 0 0 0 0
33 29 25 18 12 9 8 7 6 4 5 11 14 15 16 16 14 13 15 16 16 15 14 13 12 9 6 6 6 5 4 2 0 0 0 0 0 1 1 0 0 0 1
35 35 33 30 23 16 11 9 8 8 10 14 16 17 19 20 18 18 19 20 18 16 16 16 14 9 6 5 6 5 4 3 1 1 1 0 0 1 1 0 0 0 1
31 32 34 34 29 21 16 12 10 11 15 18 19 21 22 22 20 19 21 23 21 19 17 16 13 8 4 3 3 3 4 4 4 5 4 2 0 0 0 0 0 0 1
29 30 30 28 25 23 20 16 13 13 16 18 20 23 24 24 21 20 22 24 24 22 20 17 13 9 5 2 0 1 2 4 7 9 10 6 2 1 0 0 0 0 0
27 29 28 23 22 22 23 22 19 18 18 19 20 22 24 25 24 23 23 24 24 24 24 21 18 15 9 3 0 0 0 2 6 10 10 9 5 1 0 0 0 0 0
26 26 26 23 23 25 27 27 25 23 22 21 21 22 24 27 28 29 28 27 27 26 25 23 22 20 13 4 0 0 0 2 5 7 7 6 4 1 0 0 0 0 0
22 22 22 24 26 29 30 30 27 23 21 21 22 24 26 28 31 33 34 33 30 27 23 22 22 19 12 4 0 0 0 1 3 4 3 2 1 0 0 0 0 0 0
17 17 19 22 26 30 32 31 27 22 19 19 21 24 25 25 27 31 33 31 27 22 20 19 17 14 9 3 0 0 0 0 1 1 2 1 0 0 0 0 0 0 0
14 14 15 17 21 25 27 26 23 21 19 19 20 22 21 18 18 22 23 22 19 17 15 13 10 8 5 2 0 0 0 0 0 0 1 1 0 0 0 0 0 0 0
11 11 11 11 14 18 19 19 18 18 18 18 17 16 13 10 10 11 12 12 12 11 10 7 5 4 3 1 0 0 0 0 0 0 0 0 0 0 0 0 0 0 0
6 6 7 8 10 11 13 13 13 13 13 13 12 9 6 5 5 5 6 5 4 5 4 3 3 2 1 0 0 0 0 0 0 0 0 0 0 0 0 0 0 0 0
2 2 3 4 5 6 7 8 8 7 6 6 5 3 2 2 1 1 1 1 0 1 1 1 1 1 1 0 0 0 0 0 0 0 0 0 0 0 0 0 0 0 0
0 0 1 2 2 3 4 4 4 3 2 1 2 1 1 1 0 0 0 0 0 0 0 0 0 1 0 0 0 0 0 0 0 0 0 0 0 0 0 0 0 0 0

GEFSMW_con_prob3kmehi_120.txt.gz
EHI
70 68 64 59 55 52 52 49 42 37 38 42 43 39 36 35 32 29 29 28 24 17 14 15 14 11 9 6 1 0 0 0 0 0 0 0 0 0 0 0 0 0 0
69 68 64 60 56 52 48 46 42 37 36 40 41 38 36 34 28 26 28 27 21 14 13 15 13 10 9 4 1 0 0 0 0 0 0 0 0 0 0 0 0 1 1
68 66 61 57 54 50 45 42 41 39 36 36 36 35 33 28 22 22 25 24 18 11 11 15 13 9 6 2 0 0 0 0 0 0 0 0 0 0 0 0 0 1 2
66 62 58 54 49 45 41 40 41 41 38 35 34 32 27 22 17 19 23 22 17 11 11 15 15 9 4 1 1 0 0 0 0 0 0 0 0 0 0 0 0 1 1
61 60 56 49 42 37 35 38 40 42 39 35 34 31 24 18 16 19 23 22 18 13 12 16 15 10 4 2 1 1 0 0 0 0 0 0 0 0 0 0 0 0 0
56 55 50 44 38 33 32 35 40 41 37 33 32 29 24 20 19 22 21 19 18 14 13 14 14 10 5 2 1 1 0 0 1 0 0 0 0 0 0 0 0 0 0
53 51 48 44 39 34 34 38 43 42 36 31 28 26 24 22 21 21 18 15 14 14 14 14 13 10 6 3 1 0 0 0 0 0 0 0 0 0 0 0 0 0 0
49 50 49 45 40 36 36 40 44 43 36 29 26 25 23 20 17 16 13 12 12 14 18 20 17 12 6 3 1 0 0 0 0 0 0 0 0 0 0 0 0 0 0
45 47 47 42 37 35 36 39 41 38 30 26 24 23 20 16 13 12 11 11 12 16 22 25 20 13 7 4 3 2 2 1 0 0 0 0 0 0 0 0 0 0 0
40 42 43 39 35 35 37 39 38 32 25 22 21 19 16 14 13 13 14 14 15 18 23 24 20 15 10 7 5 4 3 1 0 0 0 0 0 1 0 0 0 0 0
37 42 44 40 37 38 40 40 37 29 22 20 20 18 15 14 15 15 15 16 18 20 22 22 19 16 13 11 8 6 3 1 1 1 0 0 0 1 1 1 1 0 0
37 42 45 43 41 40 40 38 33 26 20 19 20 19 18 16 16 16 14 15 18 21 23 22 20 18 16 15 12 7 3 1 1 1 1 0 0 1 2 2 2 1 0
39 43 46 47 44 42 38 34 30 25 20 19 20 20 19 17 17 15 14 16 19 22 23 22 19 17 18 17 14 7 3 1 1 1 1 1 2 3 4 4 3 2 1
45 49 53 53 52 48 41 34 31 29 25 24 24 22 21 19 17 15 16 21 23 23 22 21 18 17 17 16 14 9 5 4 3 2 2 2 4 5 6 5 5 4 2
51 56 60 61 61 58 48 38 34 35 35 33 31 29 27 25 21 20 22 26 28 26 25 23 20 17 15 13 12 12 10 9 8 7 6 4 4 5 5 4 4 4 4
59 62 65 68 68 64 56 47 43 43 43 40 36 34 33 31 30 29 31 32 33 34 32 28 23 18 13 8 7 10 13 13 13 13 11 6 3 2 2 2 1 2 3
67 68 68 71 71 67 63 58 53 50 46 41 36 33 33 33 33 34 36 37 37 37 35 30 25 20 13 5 2 5 11 14 15 16 14 9 4 2 2 1 0 0 1
67 67 68 70 71 67 64 61 57 53 48 40 34 32 32 32 33 34 37 39 38 36 35 33 29 22 13 5 1 2 7 12 14 15 13 11 7 3 2 2 0 0 0
62 61 62 66 67 63 60 57 54 53 48 40 35 33 33 33 34 33 34 38 38 37 35 34 32 24 14 5 1 1 4 8 11 11 9 7 5 2 1 1 0 1 1
52 52 54 58 60 58 55 53 52 50 46 41 38 36 36 36 35 35 34 36 38 36 32 30 29 23 13 5 1 1 3 6 7 7 5 3 2 0 0 0 0 1 2
39 41 45 48 51 52 50 49 48 46 42 40 40 38 35 33 35 37 36 35 34 31 27 24 21 16 10 4 0 0 1 3 4 4 3 2 0 0 0 0 0 1 1
26 29 33 36 40 43 42 42 41 39 37 36 36 33 28 26 28 32 31 28 26 23 21 18 14 10 7 3 0 0 0 1 2 2 2 1 0 0 0 0 0 0 0
17 18 21 23 26 30 31 32 32 31 29 28 27 24 20 17 19 20 20 17 15 14 13 11 9 7 6 3 1 0 0 0 0 1 1 1 0 0 0 0 0 0 0
12 13 13 14 16 18 20 22 23 22 21 20 19 18 14 11 9 9 9 7 6 5 5 5 4 4 3 2 0 0 0 0 0 0 0 0 0 0 0 0 0 0 0
9 10 11 11 12 13 14 14 15 15 14 14 13 11 8 5 3 2 2 2 1 1 1 1 1 1 1 0 0 0 0 0 0 0 0 0 0 0 0 0 0 0 0
6 8 10 10 11 11 11 11 11 12 11 10 8 6 3 1 0 0 0 0 0 0 0 0 0 0 0 0 0 0 0 0 0 0 0 0 0 0 0 0 0 0 0

GEFSMW_con_prob3kmehi_126.txt.gz
EHI
54 56 54 51 49 46 43 39 32 25 19 15 12 8 3 0 1 2 3 2 1 0 0 0 0 0 0 0 0 0 0 0 0 0 0 0 0 0 0 0 0 0 0
56 57 55 51 48 43 38 35 31 26 20 15 12 8 3 1 0 1 2 3 2 0 0 0 0 0 0 0 0 0 0 0 0 0 0 0 0 0 0 0 0 0 0
57 57 55 52 48 42 36 33 30 27 22 17 12 8 5 3 1 1 2 2 2 1 0 0 0 0 0 0 0 0 0 0 0 0 0 0 0 0 0 0 0 0 0
55 53 51 49 47 42 37 33 30 27 24 19 13 8 5 4 4 3 3 2 2 2 1 0 0 0 0 0 0 0 0 0 0 0 0 0 0 0 0 0 0 0 0
51 48 46 46 44 40 36 32 29 26 23 18 12 7 4 3 3 5 5 2 2 2 2 1 0 0 0 0 0 0 0 0 0 0 0 0 0 0 0 0 0 0 0
46 45 42 40 38 35 31 28 25 23 19 15 10 5 2 1 2 5 6 5 3 3 2 2 1 0 0 0 0 0 0 0 0 0 0 0 0 0 0 0 0 0 0
41 38 34 31 29 28 25 22 21 19 15 11 8 5 1 0 1 3 5 5 4 3 3 2 2 1 1 0 0 0 0 0 0 0 0 0 0 0 0 0 0 0 0
34 30 25 21 21 22 20 18 17 16 11 8 7 5 2 0 0 1 2 3 3 3 3 1 1 1 1 1 1 0 0 0 0 0 0 0 0 0 0 0 0 0 0
27 25 21 17 16 17 16 15 14 13 10 8 6 5 3 1 0 0 0 1 1 2 2 1 0 1 1 2 2 1 0 0 0 0 0 0 0 0 0 0 0 0 0
23 21 18 15 14 14 15 14 13 11 11 9 7 5 3 2 1 1 1 0 0 1 1 0 0 0 1 2 3 2 1 0 0 0 0 0 0 0 0 0 0 0 0
20 19 16 13 12 15 17 16 13 11 11 11 10 7 5 4 3 3 2 0 0 0 0 0 0 0 0 1 3 3 2 1 0 0 0 0 0 0 0 0 0 0 0
17 17 15 11 12 16 19 18 15 13 13 13 13 12 10 8 6 4 2 0 0 0 0 0 0 0 0 1 2 3 3 2 1 0 0 0 0 0 0 0 0 0 0
17 16 14 13 14 17 19 18 17 16 16 15 15 14 13 11 9 5 2 1 1 1 1 0 0 0 0 0 1 3 3 2 1 0 0 0 0 0 0 0 0 0 0
17 16 13 13 17 19 19 19 19 18 17 16 16 14 14 13 10 6 3 2 2 2 2 2 1 1 1 1 1 2 2 1 0 0 0 0 0 0 0 0 0 0 0
17 16 13 14 18 21 21 21 19 17 16 16 15 14 13 12 10 7 5 3 3 3 4 4 4 3 3 2 1 1 1 0 0 0 0 0 0 0 0 0 0 0 0
19 18 17 18 20 22 22 22 19 16 15 15 15 14 12 11 9 7 6 4 4 4 5 5 5 5 5 3 1 0 0 0 0 0 0 0 0 0 0 0 0 0 0
20 18 18 22 23 22 22 21 19 16 15 14 14 13 12 10 8 7 5 5 4 4 4 3 3 4 4 2 0 0 0 0 0 0 0 0 0 0 0 0 0 0 0
19 15 15 19 22 23 23 21 19 17 15 13 13 13 11 9 7 5 4 4 4 4 3 2 2 2 1 0 0 0 0 0 0 0 0 0 0 0 0 0 0 0 0
19 16 14 14 17 21 23 21 18 16 14 11 11 11 9 7 5 4 3 3 3 3 3 3 2 1 0 0 0 0 0 0 0 0 0 0 0 0 0 0 0 0 0
20 19 16 13 14 18 21 20 17 14 12 10 9 8 8 6 4 3 3 2 2 3 3 3 2 1 0 0 0 0 0 0 0 0 0 0 0 0 0 0 0 0 0
16 17 15 13 14 17 20 21 17 13 11 10 8 7 7 6 5 3 1 1 1 1 2 2 2 1 0 0 0 0 0 0 0 0 0 0 0 0 0 0 0 0 0
10 11 12 11 12 15 19 19 14 9 9 9 7 6 5 6 6 3 1 0 0 0 1 1 1 0 0 0 0 0 0 0 0 0 0 0 0 0 0 0 0 0 0
6 7 8 8 8 10 12 11 7 4 4 4 4 3 3 4 4 2 0 0 0 0 0 0 0 0 0 0 0 0 0 0 0 0 0 0 0 0 0 0 0 0 0
4 4 5 5 6 5 5 3 2 1 1 1 1 1 1 3 3 1 0 0 0 0 0 0 0 0 0 0 0 0 0 0 0 0 0 0 0 0 0 0 0 0 0
3 3 3 3 3 3 1 0 1 1 0 0 0 0 1 2 2 1 0 0 0 0 0 0 0 0 0 0 0 0 0 0 0 0 0 0 0 0 0 0 0 0 0
3 3 3 2 1 1 1 1 2 2 1 0 0 0 0 1 1 0 0 0 0 0 0 0 0 0 0 0 0 0 0 0 0 0 0 0 0 0 0 0 0 0 0

GEFSMW_con_prob3kmehi_132.txt.gz
EHI
42 46 48 47 45 40 30 22 16 11 5 3 2 2 1 0 0 0 0 0 0 0 0 0 0 0 0 0 0 0 0 0 0 0 0 0 0 0 0 0 0 0 0
40 43 43 41 40 37 29 21 15 11 6 3 2 1 0 0 0 0 0 0 0 0 0 0 0 0 0 0 0 0 0 0 0 0 0 0 0 0 0 0 0 0 0
37 39 38 35 35 35 29 21 16 12 7 3 2 2 1 0 0 0 0 0 0 0 0 0 0 0 0 0 0 0 0 0 0 0 0 0 0 0 0 0 0 0 0
34 33 32 32 32 32 28 22 18 15 9 5 4 3 2 1 0 0 0 0 0 0 0 0 0 0 0 0 0 0 0 0 0 0 0 0 0 0 0 0 0 0 0
27 25 25 28 30 28 24 21 19 17 11 5 4 3 2 1 0 0 0 0 0 0 0 0 0 0 0 0 0 0 0 0 0 0 0 0 0 0 0 0 0 0 0
20 19 21 25 27 24 21 19 18 15 9 4 3 2 1 0 0 0 0 0 0 0 0 0 0 0 0 0 0 0 0 0 0 0 0 0 0 0 0 0 0 0 0
20 21 22 23 24 22 19 17 15 13 9 5 3 1 0 0 0 0 0 0 0 0 0 0 0 0 0 0 0 0 0 0 0 0 0 0 0 0 0 0 0 0 0
19 20 20 19 20 19 17 15 15 14 12 8 4 1 0 0 0 0 0 0 0 0 0 0 0 0 0 0 0 0 0 0 0 0 0 0 0 0 0 0 0 0 0
11 12 13 13 15 14 13 12 14 14 13 11 6 2 0 0 0 0 0 0 0 0 0 0 0 0 0 0 0 0 0 0 0 0 0 0 0 0 0 0 0 0 0
6 6 6 8 9 8 8 9 11 13 12 10 6 3 1 0 0 0 0 0 0 0 0 0 0 0 0 0 0 0 0 0 0 0 0 0 0 0 0 0 0 0 0
5 4 4 4 4 4 5 6 8 10 10 8 5 3 2 1 0 0 0 0 0 0 0 0 0 0 0 0 0 0 0 0 0 0 0 0 0 0 0 0 0 0 0
5 4 2 2 2 3 4 4 5 8 9 8 5 4 3 2 1 0 0 0 0 0 0 0 0 0 0 0 0 0 0 0 0 0 0 0 0 0 0 0 0 0 0
4 3 2 1 2 3 4 4 4 5 8 9 7 5 4 3 2 1 0 0 0 0 0 0 0 0 0 0 0 0 0 0 0 0 0 0 0 0 0 0 0 0 0
4 3 2 2 3 3 4 4 3 3 5 7 7 6 5 4 4 2 1 1 0 0 0 0 0 0 0 0 0 0 0 0 0 0 0 0 0 0 0 0 0 0 0
4 3 2 3 3 3 2 2 1 2 3 5 6 6 6 6 5 4 3 2 1 0 0 0 0 0 0 0 0 0 0 0 0 0 0 0 0 0 0 0 0 0 0
3 3 1 1 2 2 1 0 0 1 2 4 6 7 6 6 6 6 4 3 1 0 0 0 0 0 0 0 0 0 0 0 0 0 0 0 0 0 0 0 0 0 0
1 1 1 0 1 1 0 0 0 0 1 4 7 9 8 6 5 6 6 4 3 1 1 0 0 0 0 0 0 0 0 0 0 0 0 0 0 0 0 0 0 0 0
1 1 1 1 1 0 0 1 1 1 1 4 7 8 8 6 5 5 5 5 5 4 2 1 1 1 0 0 0 0 0 0 0 0 0 0 0 0 0 0 0 0 0
2 2 2 2 2 1 1 3 3 2 2 4 6 7 7 7 6 5 4 4 5 5 4 2 2 2 1 0 0 0 0 0 0 0 0 0 0 0 0 0 0 0 0
3 3 3 3 2 1 1 4 5 3 2 3 5 6 7 6 6 5 4 4 4 4 3 2 2 1 1 0 0 0 0 0 0 0 0 0 0 0 0 0 0 0 0
2 2 2 2 1 1 2 4 5 4 4 4 6 7 7 6 6 6 5 4 3 2 1 1 0 0 0 0 0 0 0 0 0 0 0 0 0 0 0 0 0 0 0
1 1 1 0 1 2 4 5 6 6 5 6 6 7 7 6 6 6 6 4 1 0 0 0 0 0 0 0 0 0 0 0 0 0 0 0 0 0 0 0 0 0 0
0 0 0 0 1 3 4 5 5 5 4 4 5 5 6 6 6 5 4 2 0 0 0 0 0 0 0 0 0 0 0 0 0 0 0 0 0 0 0 0 0 0 0
0 0 0 1 2 3 3 3 3 3 2 1 2 3 3 3 3 3 2 0 0 0 0 0 0 0 0 0 0 0 0 0 0 0 0 0 0 0 0 0 0 0 0
0 0 1 2 3 3 2 1 1 1 0 0 0 1 1 1 1 1 0 0 0 0 0 0 0 0 0 0 0 0 0 0 0 0 0 0 0 0 0 0 0 0 0
0 1 2 3 3 3 1 0 0 0 0 0 0 0 0 0 0 0 0 0 0 0 0 0 0 0 0 0 0 0 0 0 0 0 0 0 0 0 0 0 0 0 0

GEFSMW_con_prob3kmehi_138.txt.gz
EHI
57 59 60 59 58 55 52 49 47 42 35 27 21 15 11 6 4 2 3 3 2 1 0 0 0 0 1 0 0 0 1 0 0 0 0 0 0 0 0 0 0 0 0
57 59 59 56 53 49 46 45 42 38 33 26 20 15 11 8 5 3 3 2 1 0 0 0 0 0 1 0 0 0 1 0 0 0 0 0 0 0 0 0 0 0 0
52 56 58 53 47 41 39 37 36 33 28 22 18 15 12 9 6 4 3 2 0 0 0 0 0 0 0 0 0 0 0 0 0 0 0 0 0 0 0 0 0 0 0
42 50 55 52 44 36 33 33 33 29 23 18 16 15 12 9 6 5 5 4 1 0 0 0 0 0 0 0 0 0 0 0 0 0 0 0 0 0 0 0 0 0 0
35 43 50 49 41 32 29 30 29 25 20 16 15 14 11 7 5 5 6 5 4 2 0 0 1 1 0 0 0 0 0 0 0 0 0 0 0 0 0 0 0 0 0
33 37 42 43 38 32 28 26 24 20 16 15 15 14 11 8 6 5 4 5 5 4 1 1 3 3 2 1 0 0 0 1 0 0 0 0 0 0 0 0 0 0 0
30 32 35 36 34 32 28 23 19 17 14 13 13 14 13 10 7 5 4 4 5 4 2 2 3 4 3 2 1 1 1 1 0 0 0 0 0 0 0 0 0 0 0
25 25 27 28 28 28 25 21 17 15 14 14 13 13 12 10 9 7 5 5 5 3 2 1 3 4 3 1 2 3 2 0 0 0 0 0 0 0 0 0 0 0 0
18 19 20 21 21 22 22 20 16 15 15 16 14 12 10 9 8 7 6 5 4 3 1 1 2 3 3 2 2 3 2 0 0 0 1 2 1 1 0 0 0 0 0
14 14 16 17 17 19 21 20 17 14 14 14 12 11 10 9 8 7 5 4 3 3 2 2 2 4 6 5 3 3 2 1 1 1 1 2 2 2 1 0 0 0 0
13 13 14 16 17 19 22 23 19 14 11 9 8 9 10 9 7 5 4 3 2 2 2 2 3 6 9 9 7 5 3 3 2 1 1 1 2 3 2 1 0 0 0
19 18 16 15 16 18 20 20 18 13 10 7 6 8 9 8 6 4 2 1 1 1 1 2 5 6 8 9 9 6 4 3 3 2 0 0 1 2 3 2 1 0 0
25 24 21 18 17 16 15 14 12 11 10 8 7 7 8 8 6 4 2 1 1 0 0 1 4 6 8 9 9 7 5 3 2 1 0 0 0 2 3 3 1 1 0
29 28 26 24 22 19 14 9 8 8 8 8 8 8 9 9 8 5 4 3 2 2 2 1 3 6 9 9 10 9 6 3 1 0 0 0 0 1 2 2 2 1 1
32 30 28 27 26 22 15 9 7 7 7 7 7 9 10 11 11 9 8 8 7 6 4 2 2 6 7 7 7 8 7 5 2 0 0 1 0 0 1 1 1 1 1
32 30 27 25 23 20 16 11 10 9 9 7 7 8 10 12 13 13 13 13 12 10 7 4 3 4 4 3 3 5 7 6 3 2 1 1 0 0 0 0 0 0 1
32 30 24 20 18 16 15 15 14 13 13 11 10 10 11 13 13 13 14 14 13 13 12 8 6 5 3 1 0 2 5 5 4 4 3 1 0 0 0 0 0 0 0
35 31 24 19 17 15 15 17 17 17 17 16 14 13 13 12 12 13 15 15 15 17 18 15 10 7 4 1 0 0 2 3 3 3 2 1 0 0 0 0 0 0 0
32 29 25 21 19 16 15 16 17 17 18 18 18 17 16 15 14 15 16 17 18 20 21 18 13 8 4 1 0 0 1 2 1 1 1 0 0 0 0 0 0 0 0
25 26 25 22 20 17 15 17 18 18 17 17 17 18 18 17 16 16 17 18 19 20 19 17 13 9 5 1 0 0 1 1 0 0 1 1 0 0 0 0 0 0 0
20 22 23 22 20 18 18 18 20 20 17 16 17 18 18 18 18 17 18 19 20 19 16 13 11 8 4 1 0 0 0 0 0 1 1 2 1 0 0 0 0 0 0
17 18 19 19 18 17 16 17 18 18 17 17 18 18 18 18 18 16 16 18 18 16 12 9 8 6 4 1 0 0 0 0 1 1 1 1 1 0 0 0 0 0 0
14 14 13 13 12 12 12 12 13 15 18 19 19 19 19 17 15 12 12 13 12 9 7 5 5 5 4 1 0 0 0 0 0 0 0 0 0 0 0 0 0 0 0
10 9 7 6 6 6 7 7 8 12 16 17 16 16 15 12 8 6 6 6 6 5 4 4 4 4 3 2 0 0 0 0 0 0 0 0 0 0 0 0 0 0 0
6 5 4 3 3 3 4 4 5 8 11 12 10 9 8 5 3 2 1 2 3 3 3 3 3 3 2 1 0 0 0 0 0 0 0 0 0 0 0 0 0 0 0
3 4 4 3 3 3 3 3 4 6 8 7 6 5 3 2 1 0 0 1 2 2 2 3 3 3 1 0 0 0 0 0 0 0 0 0 0 0 0 0 0 0 0

GEFSMW_con_prob3kmehi_144.txt.gz
EHI
92 91 88 85 84 80 75 72 68 64 60 51 42 39 37 33 28 25 23 20 17 15 13 12 15 16 14 10 6 5 3 2 3 3 2 1 0 1 1 1 0 2 4
92 89 87 85 83 80 75 72 68 64 57 48 41 39 38 34 27 26 25 20 15 13 12 13 16 17 15 12 7 5 4 3 3 3 1 0 0 0 1 1 1 2 4
88 87 84 82 79 75 73 72 70 64 56 46 39 35 34 29 24 25 26 21 15 13 14 16 18 18 15 11 7 5 4 4 3 3 1 0 0 0 0 0 1 2 5
84 84 82 78 72 68 68 69 68 62 55 46 38 32 26 21 19 23 26 22 15 13 15 17 19 19 15 10 7 6 5 4 3 3 2 1 0 0 0 0 0 2 3
80 81 81 76 68 63 62 64 63 57 51 44 39 33 24 18 18 21 23 20 15 12 14 18 22 22 19 14 10 8 6 4 3 4 3 1 0 0 0 0 0 0 1
74 80 81 75 67 60 57 57 56 52 46 41 36 29 24 20 17 17 18 17 15 13 13 18 24 25 23 21 17 11 7 5 5 6 5 2 0 0 0 0 0 0 0
70 76 76 70 63 58 55 54 53 48 43 40 32 24 21 19 15 14 15 15 14 13 13 19 26 25 23 24 22 16 10 7 7 7 5 2 1 1 1 1 0 0 0
66 68 66 60 55 53 55 56 52 46 40 36 30 24 20 19 16 15 16 15 12 13 17 25 29 27 21 21 23 21 16 12 10 7 5 3 2 2 2 2 1 0 0
58 58 56 50 46 50 55 56 50 43 37 31 26 22 21 22 20 17 15 16 15 15 23 30 32 30 24 23 25 24 21 18 15 11 9 6 4 3 4 4 3 1 0
49 51 51 46 44 48 53 53 48 41 34 26 19 16 19 22 20 16 15 18 19 20 24 29 31 30 29 27 27 24 21 20 19 14 12 10 8 5 5 5 4 1 0
46 49 50 46 44 46 48 49 48 41 32 24 17 13 15 18 18 15 16 20 22 20 21 25 27 28 28 28 25 20 17 17 17 13 10 10 9 6 5 6 4 1 0
49 50 50 48 44 42 43 44 44 40 32 25 19 16 17 18 18 17 18 22 22 19 17 18 20 22 24 26 23 17 14 14 15 13 9 8 7 5 4 4 3 1 0
54 54 54 51 45 40 39 37 37 36 32 26 22 21 21 21 21 20 20 23 23 19 18 17 17 17 20 23 22 17 14 15 15 14 11 8 6 5 5 4 2 1 0
58 58 58 55 49 43 39 34 31 31 29 26 24 25 26 25 24 22 21 23 23 22 21 21 19 17 17 19 19 17 15 15 15 13 11 8 7 7 6 4 2 1 1
58 58 59 59 55 49 42 35 31 31 31 29 28 29 30 29 27 23 22 23 23 23 24 23 20 16 14 14 14 13 12 12 12 10 8 7 6 5 5 4 2 1 1
58 58 61 63 60 52 45 40 36 35 33 31 30 31 32 31 27 24 24 27 27 26 26 25 21 15 12 9 7 7 9 10 10 9 8 5 3 2 2 1 1 0 1
59 60 61 63 59 52 47 43 38 35 32 30 28 28 29 29 26 25 27 31 32 31 30 28 23 17 11 5 2 3 6 9 9 9 8 5 2 1 0 0 0 0 0
59 59 59 58 55 48 44 39 33 30 29 27 25 25 26 26 26 28 30 33 35 34 32 30 26 20 12 5 1 1 5 8 9 9 8 6 4 2 1 0 0 0 0
56 55 54 53 49 43 39 35 31 27 24 22 22 24 25 25 26 29 32 33 34 32 30 28 26 21 13 5 1 1 4 7 8 7 6 6 4 2 0 0 0 0 0
50 49 49 47 43 38 36 35 32 26 22 20 22 24 25 23 23 27 31 32 31 28 25 22 21 18 13 5 1 1 4 6 6 5 4 4 2 1 0 0 0 0 0
41 42 43 41 37 33 34 34 30 25 23 23 22 23 23 21 21 25 28 27 26 24 21 18 17 15 11 5 1 1 3 5 4 3 3 3 1 0 0 0 0 0 0
33 36 36 34 30 28 29 29 27 24 23 22 20 18 17 17 18 21 22 22 21 20 19 17 15 12 8 4 1 0 1 3 3 3 3 2 1 0 0 0 0 0 0
32 33 31 28 25 23 22 23 22 21 20 18 15 14 13 14 15 16 16 17 17 16 15 12 10 7 5 3 1 0 0 1 2 3 2 1 0 0 0 0 0 0 0
31 30 27 23 20 17 15 15 14 13 14 13 11 11 11 12 11 10 10 11 12 11 8 5 4 3 3 3 2 1 0 0 1 2 1 0 0 0 0 0 0 0 0
25 24 21 17 14 10 8 8 7 9 12 11 9 9 10 10 6 4 3 5 6 5 3 1 1 1 1 2 2 1 0 0 0 0 0 0 0 0 0 0 0 0 0
20 19 17 13 9 6 4 4 6 9 12 11 8 8 9 7 3 1 1 2 2 1 0 0 0 0 0 1 1 1 0 0 0 0 0 0 0 0 0 0 0 0 0

GEFSMW_con_prob3kmehi_150.txt.gz
EHI
74 76 79 77 71 68 65 61 56 50 41 30 20 13 7 3 3 3 3 3 3 3 3 2 1 0 0 0 0 0 0 0 0 0 0 0 0 0 0 0 0 0 0
76 77 77 74 71 68 65 60 54 47 38 27 17 10 5 2 1 2 2 3 3 2 1 1 0 0 0 0 0 0 0 0 0 0 0 0 0 0 0 0 0 0 0
76 76 73 70 68 66 62 57 50 42 33 23 14 8 5 3 1 1 1 1 2 1 0 0 0 0 0 0 0 0 0 0 0 0 0 0 0 0 0 0 0 0 0
73 73 71 67 64 62 58 51 45 38 30 22 15 9 5 4 3 2 1 0 1 1 0 0 0 0 0 0 0 0 0 0 0 0 0 0 0 0 0 0 0 0 0
72 71 68 63 60 59 56 49 42 34 28 22 15 8 5 4 4 3 2 1 0 0 0 0 0 0 0 0 0 0 0 0 0 0 0 0 0 0 0 0 0 0 0
71 70 65 59 56 56 54 49 40 32 26 22 14 8 5 4 4 4 3 2 0 0 0 0 0 0 0 0 0 0 0 0 0 0 0 0 0 0 0 0 0 0 0
68 66 59 54 53 52 50 47 39 31 26 21 15 9 6 5 5 3 2 1 0 0 1 1 1 0 0 0 0 0 0 0 0 0 0 0 0 0 0 0 0 0 0
60 56 51 50 50 48 46 42 37 31 26 19 13 8 5 5 4 2 1 1 0 0 1 1 1 0 0 0 0 0 0 0 0 0 0 0 0 0 0 0 0 0 0
50 47 45 46 46 43 41 36 31 28 23 16 8 4 3 3 3 2 2 1 1 0 0 1 1 1 1 1 0 0 0 0 0 0 0 0 0 0 0 0 0 0 0
43 40 39 39 37 36 35 31 27 23 19 13 7 3 1 2 3 3 3 2 1 0 0 0 1 2 2 2 1 1 0 0 0 0 0 0 0 0 0 0 0 0 0
37 36 34 32 30 31 30 27 23 18 14 11 7 4 2 3 4 3 2 1 1 1 0 0 0 1 3 3 3 2 1 1 1 0 0 0 0 0 0 0 0 0 0
36 34 33 31 29 28 27 24 20 15 11 9 8 6 5 4 4 3 1 1 1 2 1 0 0 1 2 4 4 3 3 2 2 1 0 0 0 0 0 0 0 0 0
39 37 33 30 26 24 22 20 18 15 11 9 9 8 7 6 4 2 0 0 1 1 1 0 0 1 2 5 5 4 3 3 3 2 1 0 0 0 0 0 0 0 0
44 39 31 24 21 18 18 18 18 16 13 11 10 9 8 7 5 3 2 2 2 1 0 0 1 2 3 5 6 5 4 3 3 3 2 1 0 0 0 0 0 0 0
47 40 29 23 19 17 17 18 18 17 14 13 11 10 8 8 8 7 6 5 5 3 2 1 1 2 4 4 5 5 4 3 3 3 3 1 0 0 0 0 0 0 0
47 42 32 26 23 21 20 18 16 14 12 11 11 10 9 9 9 9 9 8 7 6 5 4 3 3 3 2 2 3 3 3 3 3 3 2 1 0 0 0 0 0 0
46 44 36 28 25 24 21 16 13 11 10 9 9 10 9 9 8 8 8 8 6 6 6 5 4 4 2 1 0 1 2 3 3 3 3 3 2 1 0 0 0 0 0
40 38 31 25 22 22 19 14 9 8 9 9 9 9 9 8 6 6 6 5 4 4 4 4 3 2 1 0 0 0 1 2 3 3 3 3 3 2 1 0 0 0 0
33 29 25 22 19 18 16 11 8 8 9 9 9 8 8 8 7 6 5 5 4 3 2 1 1 0 0 0 0 0 0 1 1 2 2 2 3 2 1 0 0 0 0
32 28 23 19 14 11 10 9 9 9 8 8 7 6 7 8 8 8 7 6 5 3 2 1 1 0 0 0 0 0 0 1 1 1 1 1 1 1 1 0 0 0 0
31 28 23 15 8 6 5 6 7 6 5 5 4 3 4 6 8 8 7 6 5 4 3 3 2 1 0 0 0 0 0 1 2 2 2 1 1 1 0 0 0 0 0
25 24 19 10 4 3 3 3 3 3 2 1 1 1 1 2 5 6 5 5 5 4 3 3 3 2 1 0 0 0 0 1 1 1 2 2 2 1 0 0 0 0 0
19 18 14 7 2 1 1 1 1 1 0 0 0 0 0 0 2 3 4 4 3 3 2 2 2 2 1 0 0 0 0 0 0 0 1 1 1 1 0 0 0 0 0
15 13 10 5 1 0 0 0 0 0 0 0 0 0 0 0 0 1 2 2 1 1 1 1 1 1 0 0 0 0 0 0 0 0 0 0 0 0 0 0 0 0 0
10 9 6 4 1 0 0 0 0 0 0 0 0 0 0 0 0 0 1 1 1 1 0 0 0 0 0 0 0 0 0 0 0 0 0 0 0 0 0 0 0 0 0
6 5 3 2 1 0 0 0 0 0 0 0 0 0 0 0 0 0 0 0 0 1 0 0 0 0 0 0 0 0 0 0 0 0 0 0 0 0 0 0 0 0 0

GEFSMW_con_prob3kmehi_156.txt.gz
EHI
28 31 39 47 48 44 40 38 32 22 12 7 4 2 0 0 0 0 0 0 0 0 0 1 0 0 0 0 0 0 0 0 0 0 0 0 0 0 0 0 0 0 0
34 37 43 48 49 45 40 37 32 24 16 10 6 3 0 0 0 0 0 0 0 0 0 1 0 0 0 0 0 0 0 0 0 0 0 0 0 0 0 0 0 0 0
42 45 49 50 48 44 39 35 32 26 18 12 8 4 1 1 1 1 1 0 0 1 1 1 0 0 0 0 0 0 0 0 0 0 0 0 0 0 0 0 0 0 0
48 49 50 48 46 41 37 34 31 26 19 14 10 6 3 2 2 2 1 0 0 1 1 0 0 0 0 0 0 0 0 0 0 0 0 0 0 0 0 0 0 0 0
46 47 46 44 42 38 33 30 27 23 19 15 12 8 5 3 3 3 2 0 0 1 1 0 0 0 0 0 0 0 0 0 0 0 0 0 0 0 0 0 0 0 0
42 44 42 39 38 33 27 23 22 20 18 16 13 9 6 4 3 3 2 0 0 0 0 0 0 0 0 0 0 0 0 0 0 0 0 0 0 0 0 0 0 0 0
42 42 38 34 32 28 22 19 18 18 17 15 13 9 6 4 3 3 1 0 0 0 0 0 0 0 0 0 0 0 0 0 0 0 0 0 0 0 0 0 0 0 0
41 40 34 29 28 25 20 17 17 16 15 14 11 8 6 4 3 2 1 0 0 0 0 0 0 0 0 0 0 0 0 0 0 0 0 0 0 0 0 0 0 0 0
35 35 33 30 29 26 20 17 15 15 14 12 9 7 5 3 1 1 0 0 0 0 0 0 0 0 0 0 0 0 0 0 0 0 0 0 0 0 0 0 0 0 0
30 31 32 31 29 26 21 16 14 13 13 12 9 5 3 1 0 0 0 0 0 0 0 0 0 0 0 0 0 0 0 0 0 0 0 0 0 0 0 0 0 0 0
27 27 28 28 27 26 23 18 13 10 10 10 8 4 2 1 0 0 0 0 0 0 0 0 0 0 0 0 0 0 0 0 0 0 0 0 0 0 0 0 0 0 0
25 24 23 24 24 24 24 20 13 7 5 5 5 3 1 0 0 0 0 0 0 0 0 0 0 0 0 0 0 0 0 0 0 0 0 0 0 0 0 0 0 0 0
28 25 22 21 21 21 20 16 10 5 3 3 3 2 1 0 1 0 0 0 0 0 0 0 0 0 0 0 0 0 0 0 0 0 0 0 0 0 0 0 0 0 0
31 28 24 20 18 17 15 11 8 6 5 4 3 2 1 0 0 0 0 0 0 0 1 1 1 1 1 1 1 1 1 1 1 1 1 0 0 0 1 0 0 0 0
29 28 25 19 15 14 13 10 9 7 6 6 4 2 1 0 0 0 0 0 0 1 2 3 3 3 2 2 2 2 2 2 2 2 2 1 0 0 0 0 0 0 0
26 26 22 17 15 14 13 11 8 6 6 5 3 1 1 0 0 0 0 0 1 3 4 4 4 4 3 3 1 1 2 2 2 3 3 2 0 0 0 0 0 0 0
25 22 18 14 13 13 13 11 7 5 4 3 1 0 0 0 0 0 0 0 2 4 5 4 3 3 2 2 1 0 1 1 1 2 2 1 0 1 1 1 0 0 0
23 20 16 13 12 12 12 9 5 4 3 1 0 0 0 0 0 0 0 1 2 4 4 3 1 1 1 1 0 0 0 0 0 1 2 1 0 1 2 1 0 0 0
22 20 16 14 12 12 11 8 5 4 2 1 0 0 0 0 0 0 0 1 2 3 2 1 0 0 0 0 0 0 0 0 0 1 1 0 0 1 1 1 0 0 1
20 18 15 12 12 10 8 7 6 4 2 0 0 0 0 0 0 0 0 1 1 1 1 0 0 0 0 0 0 0 0 0 0 0 0 0 0 0 0 0 0 0 1
15 14 11 9 8 6 6 5 4 2 1 0 0 0 0 0 0 0 0 0 0 0 0 0 0 0 0 0 0 0 0 0 0 0 0 0 0 0 0 0 0 0 1
10 8 6 4 3 3 3 2 1 1 0 0 0 0 0 0 0 0 0 0 0 0 0 0 0 0 0 0 0 0 0 0 0 0 0 0 0 0 0 0 0 0 0
9 7 4 2 1 1 1 1 0 0 0 0 0 0 0 0 0 0 0 0 0 0 0 0 0 0 0 0 0 0 0 0 0 0 0 0 0 0 0 0 0 0 0
9 7 3 1 0 0 0 0 0 0 0 0 0 0 0 0 0 0 0 0 0 0 0 0 0 0 0 0 0 0 0 0 0 0 0 0 0 0 0 0 0 0 0
7 5 3 1 0 0 0 0 0 0 0 0 0 0 0 0 0 0 0 0 0 0 0 0 0 0 0 0 0 0 0 0 0 0 0 0 0 0 0 0 0 0 0
4 4 3 2 1 0 0 0 0 0 0 0 0 0 0 0 0 0 0 0 0 0 0 0 0 0 0 0 0 0 0 0 0 0 0 0 0 0 0 0 0 0 0

GEFSMW_con_prob3kmehi_162.txt.gz
EHI
48 52 52 48 49 52 53 53 52 50 45 38 28 18 10 5 2 2 4 4 2 1 0 0 0 0 0 0 0 0 0 0 0 0 0 0 0 0 0 0 0 0 0
49 54 57 56 56 57 54 51 50 48 44 38 29 19 10 5 3 4 7 6 4 2 1 0 0 0 0 0 0 0 0 0 0 0 0 0 0 0 0 0 0 0 1
47 53 61 63 62 58 51 45 45 44 40 36 30 22 13 7 5 8 11 9 5 3 2 0 0 0 0 0 0 0 0 1 1 1 1 0 0 0 0 0 0 0 1
44 49 59 63 59 52 45 41 41 40 38 34 30 24 17 11 8 10 11 9 5 3 1 1 1 1 0 0 0 0 0 1 2 3 2 1 1 0 0 0 0 0 1
42 46 53 57 52 43 37 36 38 39 36 31 28 24 19 13 10 10 9 8 6 4 2 2 2 1 0 0 0 0 0 1 2 3 3 3 2 1 0 0 0 0 0
39 44 49 52 48 38 32 32 36 38 34 30 26 24 20 15 12 10 8 7 7 6 4 2 2 1 0 0 0 0 0 0 1 2 3 3 3 1 0 0 0 0 0
39 43 47 48 45 37 32 32 35 35 32 28 25 23 21 16 12 9 7 7 7 6 4 1 1 1 0 0 1 1 1 1 1 1 2 4 4 2 2 2 1 0 0
42 43 44 44 42 39 36 34 35 33 29 26 23 21 19 14 9 7 6 5 5 5 3 1 1 1 1 2 2 1 1 1 1 1 2 4 5 4 4 5 3 1 0
44 43 42 41 41 41 40 37 35 32 26 23 21 18 14 10 6 5 5 4 4 4 3 3 2 1 2 2 2 1 1 2 2 1 1 3 4 5 6 7 5 3 2
46 44 43 41 39 40 42 41 36 31 26 22 19 14 9 6 4 3 4 4 4 4 4 4 3 1 1 2 2 1 1 2 3 2 1 1 3 6 8 9 8 6 5
46 45 43 42 40 40 43 43 38 32 27 23 20 14 8 5 2 3 4 5 3 2 3 3 3 1 1 2 3 2 1 1 2 2 2 2 4 7 9 10 9 8 8
45 43 42 44 44 44 43 41 37 32 27 24 21 18 13 6 4 4 5 4 2 0 1 2 2 1 2 3 4 3 1 1 2 4 6 6 6 7 8 9 9 8 9
46 43 43 47 49 47 42 38 33 28 25 23 21 21 17 10 6 5 5 4 2 1 1 1 1 2 4 5 5 5 5 4 5 7 9 7 6 7 8 7 7 7 7
51 48 47 48 50 48 42 35 30 25 22 21 21 21 18 13 9 8 7 6 3 2 2 2 2 3 5 6 7 7 8 8 8 8 8 7 6 6 7 6 6 6 6
54 53 52 50 49 49 44 36 29 25 22 21 21 20 18 16 15 13 10 7 5 4 4 4 4 4 5 7 7 8 8 9 9 8 6 5 5 4 4 4 4 5 5
52 54 55 53 50 48 44 37 30 26 24 23 21 20 18 17 16 15 12 9 8 6 6 6 6 5 5 5 5 5 6 7 7 6 5 4 4 4 3 2 2 2 3
51 53 54 54 52 47 41 37 33 28 24 22 19 18 17 15 13 12 12 12 11 9 8 8 7 6 5 3 2 2 3 4 4 3 3 3 3 4 4 3 1 1 1
51 52 53 52 50 44 39 36 33 28 23 19 18 17 16 12 10 9 10 11 12 11 9 8 8 6 3 1 0 0 1 2 2 2 2 2 2 3 3 2 2 2 2
49 50 51 49 44 41 40 37 31 25 20 18 17 15 12 9 8 7 8 9 10 10 9 8 7 5 2 0 0 0 0 0 0 1 1 1 1 1 1 1 1 1 1
47 47 47 45 42 43 44 40 32 23 18 17 14 11 7 6 6 7 8 8 7 7 7 6 5 3 1 0 0 0 0 0 0 1 1 1 0 0 0 0 0 0 0
42 42 44 44 43 43 44 41 32 23 17 14 10 7 4 4 5 6 7 7 6 4 4 4 3 2 1 0 0 0 0 0 0 1 2 1 0 0 0 0 0 0 0
33 35 39 41 40 38 36 34 27 20 15 10 6 3 2 2 2 3 5 5 4 3 3 3 3 2 1 1 0 0 0 0 1 2 2 1 0 0 0 0 0 0 0
27 29 32 33 32 29 27 24 19 15 11 6 2 0 0 0 0 1 2 2 2 2 2 3 3 3 2 2 1 0 0 0 1 1 1 1 0 0 0 0 0 0 0
23 24 25 26 25 22 21 18 13 10 7 4 1 0 0 0 0 1 1 1 1 1 1 1 2 2 2 2 1 0 0 0 0 0 0 0 0 0 0 0 0 0 0
20 21 21 20 18 17 16 13 10 7 4 1 0 0 0 0 0 0 0 0 1 0 0 0 1 1 1 1 0 0 0 0 0 0 0 0 0 0 0 0 0 0 0
20 20 19 16 15 14 12 10 8 5 2 0 0 0 0 0 0 0 0 0 1 0 0 0 0 0 0 0 0 0 0 0 0 0 0 0 0 0 0 0 0 0 0

GEFSMW_con_prob3kmehi_168.txt.gz
EHI
88 89 88 84 83 85 85 80 73 68 64 60 52 46 39 28 22 24 26 24 20 14 9 9 13 12 7 4 4 5 5 4 4 2 0 1 3 5 6 6 5 5 7
89 89 88 85 83 84 84 81 76 71 66 61 54 47 40 31 23 24 28 27 21 16 11 10 10 10 7 5 7 9 7 5 5 4 1 1 2 3 5 6 6 6 7
87 86 85 84 82 82 82 81 78 74 69 63 55 49 44 34 26 26 30 29 23 19 16 14 10 7 5 5 8 10 8 6 5 4 2 0 0 2 4 5 7 9 10
82 82 81 80 78 77 79 81 80 76 70 62 55 50 46 36 28 27 29 28 24 19 18 17 15 10 6 5 6 8 9 8 5 3 1 0 0 2 3 3 7 11 13
77 79 79 77 74 73 74 78 79 75 69 62 54 48 43 35 28 24 25 25 20 16 15 16 18 16 11 8 7 9 11 9 5 3 1 1 1 1 2 2 4 7 9
74 76 78 76 73 71 71 73 74 72 67 60 52 46 39 33 27 22 21 20 15 11 10 12 16 17 13 10 11 13 12 8 5 3 2 2 3 2 1 0 1 2 3
71 75 78 77 73 69 68 69 68 67 63 55 49 43 38 32 27 22 19 16 12 10 10 11 14 15 12 10 12 14 12 9 7 6 5 5 4 2 1 0 0 0 0
71 75 78 76 72 69 67 67 66 64 59 52 46 41 37 32 26 22 18 15 12 12 13 15 15 14 12 9 11 13 12 12 11 9 8 7 4 2 1 1 1 0 0
68 71 75 75 72 69 68 67 66 62 56 50 44 39 36 32 28 24 20 17 15 14 16 19 16 13 12 10 10 10 9 11 13 11 10 9 6 3 3 3 2 1 1
62 68 72 73 71 70 71 70 67 63 58 51 43 37 35 33 30 26 22 19 17 15 16 18 16 13 12 12 11 8 7 9 11 12 12 11 9 8 7 6 5 4 2
64 70 74 73 71 71 74 75 70 65 60 52 44 39 36 33 31 28 24 21 18 15 14 14 15 14 13 13 12 8 7 8 10 11 13 15 14 13 12 10 7 5 4
68 73 77 76 72 70 74 75 70 64 58 52 47 42 37 34 32 29 26 24 21 19 15 13 13 12 12 12 11 9 9 9 10 10 13 16 16 14 13 10 7 5 5
69 75 79 77 73 70 70 69 65 60 55 50 47 44 39 36 34 30 27 25 25 23 19 15 13 12 11 11 10 9 10 10 9 9 11 13 13 12 10 8 6 5 4
73 77 80 78 75 71 69 65 62 57 52 48 47 45 40 37 34 30 26 25 24 22 19 16 14 13 11 9 8 7 8 8 8 8 7 7 8 7 5 5 5 5 4
79 82 83 81 77 72 68 65 63 58 52 48 47 45 40 38 36 32 27 25 23 21 19 17 15 12 8 5 4 4 5 5 6 6 4 4 4 4 3 3 4 4 4
83 85 86 85 80 73 70 69 65 59 53 48 47 44 40 37 34 30 27 25 25 23 20 17 15 10 5 2 1 2 3 4 5 5 5 4 3 2 3 3 3 3 2
84 86 88 86 80 74 72 72 67 59 53 48 46 44 41 36 32 28 25 25 26 24 20 17 15 10 4 1 0 0 1 3 5 6 6 5 2 1 2 2 2 1 1
85 87 86 82 76 73 71 71 66 58 52 47 45 42 38 34 30 27 24 24 25 23 18 15 13 9 5 1 0 0 0 1 2 4 5 4 1 0 1 1 1 1 1
85 84 81 76 72 71 69 66 62 56 50 46 42 39 35 31 30 28 24 21 20 18 14 11 9 7 4 2 0 0 0 0 0 1 2 2 1 0 0 0 0 0 1
81 80 76 73 71 70 65 61 57 53 47 43 39 36 34 30 28 26 22 17 13 11 8 6 6 5 4 2 0 0 0 0 0 0 0 0 0 0 0 0 1 0 0
74 71 68 67 66 64 60 56 53 49 43 39 37 36 34 28 23 21 18 13 9 7 6 5 5 4 3 1 0 0 0 0 0 0 1 1 0 0 0 0 0 0 0
64 60 58 58 57 55 53 51 48 43 38 34 33 32 30 23 17 14 12 9 7 6 5 4 4 4 3 1 0 0 0 0 0 0 1 1 0 0 0 0 0 0 0
56 54 52 51 50 48 46 44 40 36 32 27 25 23 21 15 9 7 7 5 4 4 4 4 4 3 3 2 1 1 0 0 0 0 1 1 0 0 0 0 0 0 0
51 51 49 46 43 39 36 34 33 29 25 20 17 15 12 8 3 2 2 1 1 2 2 2 3 3 3 2 2 2 1 0 0 0 0 0 0 0 0 0 0 0 0
46 45 42 38 34 30 28 27 26 23 19 15 13 10 7 3 1 0 0 0 0 1 1 1 1 2 2 1 1 2 1 0 0 0 0 0 0 0 0 0 0 0 0
41 39 35 31 27 26 25 24 22 19 17 14 11 8 5 2 0 0 0 0 0 0 0 0 0 1 1 0 0 1 1 0 0 0 0 0 0 0 0 0 0 0 0

GEFSMW_con_prob3kmehi_174.txt.gz
EHI
64 68 75 79 76 68 60 52 47 46 43 33 21 13 8 4 2 1 1 3 2 1 0 0 0 0 0 0 0 0 0 0 0 0 0 0 0 0 0 0 1 2 2
67 70 74 77 76 69 62 56 50 46 42 32 21 13 7 4 2 1 1 1 1 0 0 0 0 0 0 0 0 0 0 0 0 0 0 0 0 0 0 0 0 1 1
71 71 73 75 74 70 64 57 51 44 39 32 22 14 8 4 2 1 1 1 0 0 0 0 0 0 0 0 0 0 0 0 0 0 0 0 0 0 0 0 0 0 0
73 73 74 74 72 68 63 56 48 40 36 32 24 15 9 5 3 2 2 1 0 0 0 1 1 0 0 0 0 0 0 0 0 0 0 0 0 0 0 0 0 0 0
76 75 75 74 70 67 63 54 44 36 33 29 21 15 10 6 3 2 2 1 1 0 0 1 2 1 0 0 0 0 0 0 0 0 0 0 0 0 0 0 0 0 0
78 77 75 71 68 67 64 54 42 34 29 25 18 13 11 7 5 4 3 2 2 1 0 1 2 2 1 0 0 0 0 0 0 0 0 0 0 0 0 0 0 0 0
75 75 73 69 68 69 66 55 44 35 29 24 19 14 10 7 6 5 3 3 4 3 1 0 1 2 1 0 0 0 0 0 0 0 0 0 0 0 0 0 0 0 0
71 71 70 68 68 68 65 57 49 40 34 28 22 15 10 6 4 3 2 2 4 4 2 1 1 1 0 0 0 0 0 0 0 0 0 0 0 0 0 0 0 0 0
69 68 66 63 62 62 62 59 53 45 39 32 25 18 11 6 5 4 2 2 3 3 2 1 2 1 0 0 0 0 0 0 0 0 0 0 0 0 0 0 0 0 0
65 63 58 55 55 57 59 59 54 47 41 35 27 20 13 8 6 6 5 3 3 2 1 1 2 1 0 0 0 0 0 0 0 0 0 0 0 0 0 0 0 0 0
59 54 49 49 51 54 57 57 52 45 39 35 30 23 15 9 7 7 6 5 4 1 0 1 2 1 1 0 0 0 0 0 0 0 0 0 0 0 0 0 0 0 1
55 51 49 50 52 55 55 54 49 42 36 33 31 26 18 12 10 9 8 7 4 1 0 1 2 2 1 0 0 0 0 0 0 0 0 0 0 0 0 0 0 0 1
56 53 52 51 54 55 53 50 45 39 35 33 30 25 19 15 13 12 9 7 4 1 1 2 2 1 1 0 0 0 0 0 0 0 0 0 0 0 0 0 0 0 1
57 55 50 48 51 53 52 48 42 38 37 34 29 24 19 16 15 14 11 7 3 2 2 2 1 0 0 0 0 0 0 0 0 0 0 0 0 0 0 0 0 0 0
58 57 53 50 51 54 52 46 41 38 37 34 29 24 20 17 15 14 11 8 5 4 3 1 0 0 0 0 0 0 0 0 0 0 0 0 0 0 0 0 0 0 0
57 59 59 57 57 56 51 44 40 37 36 34 30 24 20 17 15 13 10 9 7 5 3 1 0 0 0 0 0 0 0 0 0 0 0 0 0 0 0 0 0 0 0
56 59 61 60 59 55 48 42 37 35 35 33 28 23 20 18 15 13 11 9 6 4 3 1 0 0 0 0 0 0 0 0 0 0 0 0 0 0 0 0 0 0 0
58 59 59 59 56 50 44 40 37 35 34 30 25 21 20 18 15 12 11 7 4 3 2 1 0 0 0 0 0 0 0 0 0 0 0 0 0 0 0 0 0 0 0
61 60 59 58 52 46 42 40 38 35 32 27 23 19 18 16 13 9 7 4 1 1 1 0 0 0 0 0 0 0 0 0 0 0 0 0 0 0 0 0 0 0 0
60 59 57 54 47 42 41 40 37 33 28 24 20 17 15 13 9 6 3 1 0 0 0 0 0 0 0 0 0 0 0 0 0 0 0 0 0 0 0 0 0 0 0
57 54 51 46 40 36 36 35 31 27 23 19 16 14 11 9 6 3 1 0 0 0 0 0 0 0 0 0 0 0 0 0 0 0 0 0 0 0 0 0 0 0 0
52 50 46 40 33 30 29 28 24 20 17 16 13 10 8 6 3 1 0 0 0 0 0 0 0 0 0 0 0 0 0 0 0 0 0 0 0 0 0 0 0 0 0
46 45 42 36 29 26 24 22 19 16 16 14 11 8 6 4 2 0 0 0 0 0 0 0 0 0 0 0 0 0 0 0 0 0 0 0 0 0 0 0 0 0 0
40 40 37 30 25 22 20 17 16 16 15 13 9 5 3 2 0 0 0 0 0 0 0 0 0 0 0 0 0 0 0 0 0 0 0 0 0 0 0 0 0 0 0
31 31 29 25 22 19 16 14 14 14 13 9 5 2 1 0 0 0 0 0 0 0 0 0 0 0 0 0 0 0 0 0 0 0 0 0 0 0 0 0 0 0 0
24 24 24 22 20 17 14 13 13 12 10 6 2 0 0 0 0 0 0 0 0 0 0 0 0 0 0 0 0 0 0 0 0 0 0 0 0 0 0 0 0 0 0

GEFSMW_con_prob3kmehi_180.txt.gz
EHI
12 17 24 30 34 35 34 31 24 17 14 11 10 8 5 3 1 0 0 0 0 1 1 1 0 0 1 2 2 3 3 3 3 3 2 1 0 0 0 1 2 2 2
17 23 30 35 37 36 35 34 28 20 14 11 10 8 5 4 3 2 1 1 0 1 1 0 0 0 0 1 1 2 2 2 2 2 1 0 0 0 0 0 1 1 1
27 31 36 38 39 37 35 34 30 23 15 11 9 7 6 6 5 4 3 2 2 2 1 1 1 0 0 0 0 1 1 1 1 1 0 0 0 0 0 0 0 0 0
36 38 38 38 39 39 34 29 25 21 15 12 10 7 6 6 6 5 4 3 3 3 3 2 2 1 1 1 1 1 0 0 0 0 0 0 0 0 0 0 0 0 0
39 39 37 35 38 39 33 25 20 18 16 14 11 8 7 6 5 4 3 3 3 3 3 3 3 3 2 2 2 2 1 0 0 0 0 0 0 0 0 0 0 0 0
38 37 35 35 37 36 30 23 19 17 17 16 13 10 8 6 4 3 3 3 3 3 3 3 3 3 3 3 3 3 2 1 0 0 0 0 0 0 0 0 0 0 0
35 34 34 35 36 34 28 22 18 17 18 18 17 13 9 6 5 4 3 3 3 3 3 3 3 3 3 3 3 3 3 1 0 0 0 0 0 0 0 0 0 0 0
31 32 33 33 32 31 27 23 19 16 17 18 18 16 11 8 6 5 4 3 3 3 3 3 3 3 3 3 3 3 3 2 1 0 0 0 0 0 0 0 0 0 0
29 30 32 30 28 27 25 22 19 17 18 19 18 16 12 9 7 6 5 4 4 3 3 3 3 2 2 2 2 3 3 3 2 1 0 0 0 0 0 0 0 0 0
27 29 31 30 28 26 23 20 19 19 20 20 18 15 12 9 7 6 6 6 5 4 3 2 1 1 1 1 1 1 2 2 2 1 0 0 0 0 0 0 0 0 0
25 28 29 29 29 27 23 20 20 21 21 21 19 16 12 10 8 7 6 6 6 5 3 2 1 1 1 0 0 0 1 1 1 0 0 0 0 0 0 0 0 0 0
24 26 26 26 28 28 25 24 26 25 21 20 20 17 13 10 9 8 7 7 6 5 4 2 1 1 0 0 0 0 0 0 0 0 0 0 0 0 0 0 0 0 0
23 23 23 24 28 29 28 28 29 28 23 21 20 17 14 11 9 9 8 7 6 4 3 2 1 0 0 0 0 0 0 0 0 0 0 0 0 0 0 0 0 0 0
22 22 23 25 28 29 27 27 28 27 24 21 19 17 14 11 10 10 10 8 6 5 3 2 0 0 0 0 0 0 0 0 0 0 0 0 0 0 0 0 0 0 0
24 25 26 28 30 27 24 23 24 25 24 23 20 17 14 12 10 9 9 7 6 6 5 3 1 0 0 0 0 0 0 0 0 0 0 0 0 0 0 0 0 0 0
25 26 29 32 32 27 22 20 21 22 22 21 17 15 13 11 9 8 6 5 5 6 5 3 1 0 0 0 0 0 0 0 0 0 0 0 0 0 0 0 0 0 0
25 27 32 36 35 30 23 20 21 22 20 18 15 12 12 10 8 5 4 5 5 4 3 2 1 0 0 0 0 0 0 0 0 0 0 0 0 0 0 0 0 0 0
28 30 34 37 35 30 24 23 25 25 22 19 16 14 13 12 9 6 5 4 3 1 1 1 0 0 0 0 0 0 0 0 0 0 0 0 0 0 0 0 0 0 0
32 31 32 35 33 28 25 25 25 25 23 20 17 15 14 12 10 7 4 2 1 0 0 0 0 0 0 0 0 0 0 0 0 0 0 0 0 0 0 0 0 0 0
35 32 31 31 29 27 25 25 23 21 19 17 14 12 11 10 8 5 3 1 0 0 0 0 0 0 0 0 0 0 0 0 0 0 0 0 0 0 0 0 0 0 0
35 33 30 26 24 25 26 25 22 17 14 13 11 10 8 7 5 4 2 1 0 0 0 0 0 0 0 0 0 0 0 0 0 0 0 0 0 0 0 0 0 0 0
36 33 28 23 20 21 24 24 18 13 11 11 10 8 6 4 3 3 2 1 0 0 0 0 0 0 0 0 0 0 0 0 0 0 0 0 0 0 0 0 0 0 0
35 32 28 23 17 16 18 16 12 11 11 10 9 7 5 4 3 3 1 0 0 0 0 0 0 0 0 0 0 0 0 0 0 0 0 0 0 0 0 0 0 0 0
28 28 26 21 15 13 12 10 9 11 12 11 9 7 6 5 3 2 1 0 0 0 0 0 0 0 0 0 0 0 0 0 0 0 0 0 0 0 0 0 0 0 0
20 20 20 16 12 11 10 10 10 12 12 11 9 7 6 4 2 1 0 0 0 0 0 0 0 0 0 0 0 0 0 0 0 0 0 0 0 0 0 0 0 0 0
14 14 14 12 10 9 10 11 12 12 11 10 9 7 5 3 1 0 0 0 0 0 0 0 0 0 0 0 0 0 0 0 0 0 0 0 0 0 0 0 0 0 0

GEFSMW_con_prob3kmehi_186.txt.gz
EHI
27 23 19 19 23 29 32 33 32 31 32 28 20 14 10 6 4 2 1 1 1 2 3 4 4 3 2 1 0 0 0 0 0 0 0 0 0 0 0 0 0 0 0
31 28 25 25 29 34 35 35 34 32 31 30 23 16 10 7 6 4 2 2 3 3 3 3 3 4 3 1 0 0 0 0 0 0 1 1 0 0 0 0 0 0 1
35 34 35 36 36 38 38 36 36 34 31 28 24 18 14 11 8 6 4 3 4 5 5 3 2 2 2 2 0 0 1 1 0 1 2 2 2 2 1 0 0 0 1
35 37 41 42 40 37 35 36 38 36 32 26 21 19 17 13 9 5 4 3 4 5 6 4 2 2 2 1 1 1 2 2 1 2 3 3 4 3 1 0 0 1 1
34 36 38 40 38 32 30 34 38 37 32 27 22 20 19 15 9 5 4 5 4 4 5 6 6 5 4 3 2 3 3 3 3 4 4 4 4 3 2 0 0 1 1
35 35 36 37 34 30 27 30 33 34 32 29 25 23 22 18 13 9 7 6 5 4 5 6 9 9 6 4 3 3 4 4 4 5 5 5 4 3 1 0 1 1 1
36 38 39 39 36 33 29 29 32 33 32 32 30 26 23 20 17 12 9 7 6 5 6 7 9 10 8 5 3 3 3 4 4 5 6 6 5 4 2 1 2 1 1
36 39 40 39 39 37 34 34 36 36 34 33 31 26 23 20 18 14 10 8 7 7 7 8 9 9 8 5 4 3 3 3 4 5 6 7 5 4 4 3 3 2 1
35 38 38 37 37 37 37 38 39 39 37 34 28 24 23 22 20 17 13 10 11 10 8 8 9 9 7 6 5 4 3 4 4 5 6 7 5 4 4 5 5 5 3
37 39 38 36 36 37 39 38 39 40 38 33 27 24 24 25 23 20 16 13 12 11 9 8 8 7 7 6 6 4 3 3 4 4 5 6 5 3 4 6 8 7 6
40 41 40 38 38 38 39 39 39 38 36 33 30 27 26 25 24 21 17 15 13 11 9 8 7 7 7 7 7 5 4 4 4 4 5 6 6 5 5 6 8 8 7
46 45 43 41 39 38 39 42 41 38 35 35 35 32 28 25 23 21 18 15 14 13 11 9 8 9 9 10 9 7 5 5 5 5 6 6 7 7 6 4 4 5 5
52 50 45 41 37 36 38 42 41 37 35 36 37 35 30 27 25 22 18 17 16 15 12 9 9 10 10 10 8 7 7 7 6 6 5 6 7 6 4 2 1 1 1
55 51 46 40 38 38 39 40 40 37 35 36 38 36 32 29 26 23 20 18 17 15 12 8 7 7 7 6 6 6 7 7 6 5 3 3 4 4 3 1 0 0 0
55 52 47 44 45 45 42 40 40 40 39 39 38 35 31 28 25 24 22 19 17 15 12 9 8 7 5 3 3 4 5 5 5 3 2 1 1 1 1 0 0 0 0
58 56 51 49 51 49 44 42 43 44 44 42 38 33 29 25 22 23 22 19 17 16 13 11 10 9 6 2 1 2 2 3 3 1 1 0 0 0 0 0 0 0 0
61 60 54 52 53 51 45 44 45 46 46 42 34 28 25 22 21 21 20 18 16 14 13 11 10 8 5 1 0 0 1 1 1 0 0 0 0 0 0 0 0 0 0
63 60 55 53 54 52 47 44 43 45 44 38 31 24 21 20 20 20 19 16 14 13 11 10 8 6 3 0 0 0 0 0 0 0 0 0 0 0 0 0 0 0 0
65 60 55 54 56 53 47 42 42 43 40 34 29 24 20 19 20 19 18 17 15 12 9 7 7 5 2 0 0 0 0 0 0 0 0 0 0 0 0 0 0 0 1
63 60 58 58 59 55 46 41 40 40 37 32 29 24 20 19 20 20 18 16 14 11 8 6 6 4 1 0 0 0 0 0 0 0 0 0 0 0 0 0 0 1 2
59 61 61 62 62 55 47 42 39 36 34 30 27 23 20 19 20 20 17 14 11 9 7 5 5 3 1 0 0 0 0 0 0 0 0 0 0 0 0 0 0 1 2
57 60 62 61 58 52 48 45 38 33 29 25 22 20 19 18 17 17 15 13 9 7 5 4 3 1 0 0 0 0 0 0 0 0 0 0 0 0 0 0 0 1 1
56 58 58 55 49 46 47 44 36 29 25 21 18 17 16 15 14 14 13 12 9 5 4 3 2 1 0 0 0 0 0 0 0 0 0 0 0 0 0 0 0 0 0
53 54 52 48 43 40 39 38 34 28 24 21 18 15 14 14 13 12 12 11 7 4 3 3 2 1 0 0 0 0 0 0 0 0 0 0 0 0 0 0 0 0 0
46 46 44 41 37 33 30 31 30 27 24 21 19 17 14 13 12 11 9 8 5 3 3 3 2 1 0 0 0 0 0 0 0 0 0 0 0 0 0 0 0 0 0
40 39 38 35 31 27 26 26 26 24 23 22 21 18 15 12 11 9 7 5 3 2 3 3 1 0 0 0 0 0 0 0 0 0 0 0 0 0 0 0 0 0 0

GEFSMW_con_prob3kmehi_192.txt.gz
EHI
56 55 50 52 59 63 61 54 46 42 38 34 31 25 18 15 15 14 14 14 13 12 11 10 9 8 6 4 4 4 5 6 6 4 1 0 1 5 8 6 2 1 3
66 64 60 56 61 67 66 60 54 47 41 37 33 27 21 18 18 18 20 20 19 16 12 11 11 8 6 4 4 5 5 4 4 3 1 0 1 3 5 5 3 3 3
71 70 66 61 62 68 69 65 61 53 44 39 33 27 23 21 21 22 25 26 24 20 16 15 15 12 8 6 5 5 5 4 3 2 1 1 1 1 2 3 5 5 5
68 69 69 65 62 64 68 71 67 58 48 40 32 27 25 23 23 24 25 27 26 22 20 19 18 16 12 8 7 6 6 4 3 3 3 3 3 2 2 2 3 5 6
63 67 70 67 62 61 67 72 70 63 53 44 36 31 26 23 22 22 23 25 26 25 22 20 19 17 13 11 9 8 6 5 5 5 4 4 5 4 3 1 1 2 4
59 65 70 68 63 61 64 67 67 64 57 48 40 35 29 22 20 20 21 23 27 27 24 21 20 18 14 12 11 9 8 7 6 5 3 3 4 4 3 2 1 0 1
57 62 68 69 65 62 63 64 66 64 57 48 41 38 33 25 22 22 22 24 26 26 25 23 21 19 15 12 11 11 10 8 6 5 3 3 4 5 5 3 1 0 0
53 57 63 65 64 62 61 64 67 64 57 48 43 41 37 30 26 26 26 26 25 23 22 23 20 17 15 13 12 13 11 8 6 6 5 5 6 7 7 6 3 1 0
50 52 54 58 61 60 60 64 68 65 57 49 45 42 39 34 30 30 31 30 26 22 23 24 21 17 15 15 15 14 11 8 9 8 7 7 7 7 7 7 6 2 0
46 47 48 51 57 60 62 66 69 66 58 52 47 43 40 37 34 34 34 33 28 24 25 26 23 17 15 15 15 13 10 8 10 10 9 8 7 7 6 6 6 3 1
46 47 47 50 56 61 64 67 68 65 59 54 50 46 40 38 37 36 35 34 31 27 26 26 23 17 14 16 16 13 9 8 9 10 10 9 8 7 7 6 5 3 3
51 51 51 52 56 60 63 64 65 63 58 54 51 46 40 38 38 37 35 33 31 28 25 24 22 17 15 16 16 12 9 8 8 9 9 7 6 6 5 5 4 3 3
60 60 59 57 56 59 61 61 61 61 57 52 50 47 42 40 39 38 36 33 30 27 24 22 20 17 15 15 14 11 9 8 7 6 5 4 4 4 3 3 3 2 1
70 71 70 65 60 58 59 59 59 60 57 53 51 49 47 44 40 38 36 33 30 26 24 22 18 15 12 11 11 10 9 8 6 4 3 3 3 2 2 2 2 1 0
76 77 78 74 67 60 60 60 59 59 58 55 54 53 52 45 38 34 33 32 31 27 25 22 18 13 9 7 7 8 8 7 6 4 3 3 2 1 1 1 1 0 0
78 80 81 80 73 67 64 63 61 59 56 54 54 54 51 41 32 28 29 29 28 26 23 20 17 12 7 4 3 4 5 7 6 5 3 2 1 0 0 0 0 0 0
80 83 83 81 78 73 69 64 60 58 55 52 52 52 47 37 28 25 25 25 24 23 21 18 16 11 6 2 1 2 4 6 6 4 2 1 0 0 0 0 0 0 0
81 82 81 78 77 75 69 63 59 58 56 53 50 49 44 36 29 25 23 23 21 20 19 18 15 11 6 2 0 1 2 4 4 3 1 0 0 0 0 0 0 0 0
79 78 76 75 74 72 67 62 58 56 54 51 48 44 40 34 29 25 23 21 20 18 18 17 14 10 6 2 0 1 2 3 3 2 1 0 0 0 0 0 0 0 0
76 74 72 72 73 71 66 61 58 56 53 49 44 40 35 31 28 25 23 20 18 17 16 15 12 10 6 2 0 1 2 3 3 1 0 0 0 0 0 0 0 0 0
73 71 70 71 71 70 67 64 61 58 53 46 42 38 32 27 25 24 21 19 18 17 15 12 10 9 7 2 0 1 2 2 2 1 0 0 0 0 0 0 0 0 0
70 69 68 69 68 67 66 65 63 58 50 41 37 34 28 24 22 21 20 18 18 18 14 11 10 9 7 2 0 0 1 1 1 0 0 0 0 0 0 0 0 0 0
68 65 64 64 64 64 63 62 60 54 45 36 31 27 23 21 21 20 19 18 18 17 14 11 10 10 7 3 0 0 0 0 0 0 0 0 0 0 0 0 0 0 0
63 60 58 58 58 58 56 55 53 48 39 31 26 21 19 20 21 20 19 18 17 17 15 13 12 10 8 4 1 0 0 0 0 0 0 0 0 0 0 0 0 0 0
54 52 49 50 50 48 47 46 45 40 33 27 23 19 17 19 21 20 17 15 15 13 12 12 11 10 7 4 1 0 0 0 0 0 0 0 0 0 0 0 0 0 0
47 45 43 43 42 41 40 40 40 36 30 25 22 18 17 20 22 19 15 12 10 9 8 9 8 7 5 2 1 0 0 0 0 0 0 0 0 0 0 0 0 0 0

GEFSMW_con_prob3kmehi_198.txt.gz
EHI
38 43 47 47 43 38 29 23 23 22 19 16 13 10 8 8 8 7 6 5 6 7 7 6 4 3 3 2 1 0 0 1 1 1 0 0 0 1 2 2 2 1 0
38 44 49 50 48 44 37 32 28 26 23 19 14 11 10 9 9 8 6 5 6 7 7 6 5 4 3 3 2 1 1 1 1 1 1 0 0 0 1 1 1 0 0
39 44 49 52 53 51 46 40 33 29 26 21 16 13 11 11 11 9 7 5 5 6 6 6 6 5 5 4 2 1 2 2 2 2 1 0 0 0 0 0 0 0 0
39 43 50 54 54 51 46 40 33 28 25 22 19 15 11 10 10 9 7 6 6 6 6 6 6 6 6 6 4 3 3 3 3 3 2 1 1 0 1 1 0 0 0
41 46 52 56 54 49 44 39 34 29 25 23 21 18 14 12 11 10 8 7 7 7 7 7 7 7 7 7 6 4 4 3 3 3 3 3 2 2 2 2 1 0 0
48 51 54 56 56 52 46 42 39 34 29 27 26 24 21 18 15 13 12 10 9 7 7 8 8 7 7 7 6 6 5 4 3 3 3 3 3 3 3 2 1 0 0
50 51 54 58 59 57 52 47 43 39 35 33 31 28 25 22 18 17 16 13 10 8 9 9 8 7 7 7 7 7 6 5 4 3 3 3 3 3 3 2 1 0 0
45 44 50 57 60 59 56 52 47 44 41 39 35 30 27 25 22 20 19 16 12 12 12 9 8 8 8 8 8 8 7 5 3 2 2 2 2 2 2 2 1 1 0
38 38 42 50 55 57 56 54 51 47 44 42 37 32 30 30 27 25 22 18 15 15 14 11 9 9 8 6 6 6 6 4 2 1 1 2 2 2 2 2 3 2 2
34 34 36 42 48 51 53 53 51 49 45 42 38 34 33 32 30 27 24 21 18 17 16 14 11 8 6 4 4 4 4 4 1 0 1 2 2 2 2 2 3 3 2
32 33 35 40 44 47 49 49 50 49 46 44 40 35 33 32 30 28 24 21 19 18 17 15 12 7 5 5 5 4 4 4 2 1 1 1 1 1 1 1 1 1 1
33 34 38 44 47 48 48 47 49 50 48 44 40 38 36 33 31 28 24 20 19 18 16 15 11 8 7 8 7 5 4 3 3 2 1 1 1 1 0 0 0 0 0
39 41 44 47 49 50 49 47 48 51 49 45 42 41 40 36 32 29 24 20 19 18 16 15 13 11 10 10 8 6 4 3 3 3 2 1 2 1 1 1 0 0 0
47 49 49 47 48 50 49 47 49 51 50 47 44 43 40 35 31 28 24 20 18 17 16 16 15 12 10 9 8 6 5 4 3 2 2 2 2 1 0 0 0 0 0
53 53 51 48 49 50 48 48 48 49 49 48 45 40 35 31 27 24 22 18 15 14 15 15 13 10 8 6 6 5 4 3 2 1 1 1 1 0 0 0 0 0 0
57 54 51 50 51 52 50 49 48 46 46 48 43 35 29 25 23 19 17 16 13 12 14 13 10 6 5 3 2 2 1 1 1 1 0 0 0 0 0 0 0 0 0
58 55 51 50 51 51 50 49 47 43 43 44 40 31 25 21 19 16 15 15 13 12 11 11 9 6 4 3 1 0 0 0 1 1 0 0 0 0 0 0 0 0 0
59 57 53 50 49 48 46 45 44 42 41 39 34 28 23 19 17 16 16 15 13 11 10 10 9 8 5 3 1 0 0 0 1 1 0 0 0 0 0 0 0 0 0
59 58 56 53 50 46 43 43 41 39 37 34 29 25 20 18 17 16 16 15 12 11 10 10 10 8 5 3 2 0 0 0 0 0 0 0 0 0 0 0 0 0 0
59 59 59 57 51 45 44 43 38 34 31 28 25 22 18 17 16 16 15 14 12 11 11 10 10 8 5 2 1 0 0 0 0 0 0 0 0 0 0 0 0 0 0
58 59 60 57 52 46 44 41 34 28 25 24 22 19 16 15 15 14 14 14 12 12 11 10 9 8 6 3 1 0 0 0 0 0 0 0 0 0 0 0 0 0 0
57 58 56 52 48 46 42 37 31 26 24 24 21 16 13 12 12 13 13 14 13 13 12 11 9 8 6 3 1 0 0 0 0 0 0 0 0 0 0 0 0 0 0
54 52 48 44 42 40 37 33 28 25 25 22 17 12 9 9 10 12 13 14 14 13 12 11 9 8 6 3 1 0 0 0 0 0 0 0 0 0 0 0 0 0 0
49 47 42 39 36 32 28 25 24 24 23 20 14 9 7 7 9 10 12 13 13 13 12 10 9 9 6 3 1 0 0 0 0 0 0 0 0 0 0 0 0 0 0
41 39 37 34 30 25 20 18 18 20 20 16 12 8 7 6 7 8 9 10 10 10 9 8 8 7 6 3 1 0 0 0 0 0 0 0 0 0 0 0 0 0 0
33 34 32 29 24 20 17 14 15 17 17 14 10 7 6 6 5 6 7 7 7 6 6 6 6 5 4 3 1 0 0 0 0 0 0 0 0 0 0 0 0 0 0

GEFSMW_con_prob3kmehi_204.txt.gz
EHI
17 16 14 10 7 5 4 5 7 8 6 5 5 5 4 2 1 0 0 0 0 0 0 0 0 0 0 0 0 0 0 0 0 0 0 0 0 0 0 0 0 0 0
17 15 12 9 8 7 6 7 8 8 7 6 6 5 4 2 0 0 0 0 0 0 0 0 0 0 0 0 1 1 1 0 0 0 0 0 0 0 0 0 0 0 0
14 14 12 11 11 11 12 12 11 8 7 7 7 6 4 2 1 0 0 0 0 0 0 0 0 0 0 1 1 2 2 1 0 0 0 0 0 0 0 0 0 0 0
12 13 15 16 17 18 18 17 13 9 7 7 6 5 4 3 1 0 0 0 0 0 0 0 0 0 1 2 2 2 3 3 1 0 0 0 0 0 0 0 0 0 0
10 12 16 18 20 23 23 19 13 9 7 6 5 4 4 3 2 1 0 0 0 0 0 0 1 1 2 4 4 4 3 3 2 1 0 0 0 0 0 0 0 0 0
8 11 14 15 19 23 23 19 14 9 7 6 5 5 5 4 4 3 1 0 0 0 0 1 2 3 4 5 6 5 4 3 3 1 0 0 0 0 0 0 0 0 0
7 10 12 13 18 22 21 18 15 10 8 8 8 7 7 7 7 6 3 1 1 1 1 2 3 4 5 6 6 5 4 3 3 2 1 0 0 0 0 0 0 0 0
8 9 9 11 17 21 21 20 17 13 10 10 10 9 8 9 10 9 6 3 2 2 3 3 3 4 6 6 5 4 3 3 3 2 1 0 0 0 0 0 0 0 0
9 8 7 8 12 18 21 21 19 16 12 11 11 10 10 12 12 11 8 5 4 4 4 4 4 5 6 5 4 3 3 3 3 2 1 0 0 0 0 0 0 0 1
9 8 8 7 8 13 17 19 20 18 14 11 11 12 12 14 14 14 12 9 7 6 6 6 6 7 6 4 3 3 3 3 3 2 1 0 0 0 0 0 0 1 2
9 8 8 9 9 11 14 18 21 20 17 14 15 15 15 15 16 17 17 15 12 10 9 9 9 8 6 4 4 4 3 3 3 2 1 0 0 0 0 0 0 0 1
9 9 10 11 11 13 14 16 19 20 18 18 18 19 18 17 17 19 20 20 17 14 12 11 10 7 5 5 6 6 5 4 4 3 1 1 1 2 1 0 0 0 0
11 10 11 11 13 14 15 15 16 17 18 18 19 20 20 19 17 17 19 20 18 15 13 12 10 8 6 7 8 7 6 6 5 4 3 2 3 3 2 1 0 0 0
15 14 12 11 13 14 16 15 14 16 18 19 20 22 23 20 17 15 16 17 15 13 11 10 9 8 7 7 7 7 7 6 6 4 3 3 3 2 2 1 0 0 0
20 17 13 12 13 16 17 15 13 14 17 19 21 23 23 20 16 14 14 14 13 11 9 8 9 8 7 7 6 6 6 6 5 3 2 2 1 1 1 0 0 0 0
23 20 15 13 15 19 21 19 15 13 15 17 19 19 19 17 14 13 12 12 11 10 7 7 8 8 6 6 6 6 5 5 3 1 1 1 0 0 0 0 0 0 0
24 23 20 16 17 22 25 24 20 17 17 16 15 15 14 13 12 12 12 12 11 9 7 6 6 6 5 4 4 3 3 2 1 0 0 0 0 0 0 0 0 0 0
27 27 26 22 21 24 27 27 26 24 22 19 16 14 12 10 10 11 13 13 11 10 8 6 6 4 3 3 3 1 1 0 0 0 0 0 0 0 0 0 0 0 0
31 32 31 27 26 28 29 30 31 29 26 23 19 15 11 9 7 9 11 12 13 11 9 7 5 4 3 3 2 1 0 0 0 0 0 0 0 0 0 0 0 0 0
35 35 34 30 28 29 30 31 31 28 25 22 19 14 11 8 7 7 8 11 13 12 9 7 5 4 3 3 2 1 0 0 0 0 0 0 0 0 0 0 0 0 0
37 38 37 34 29 27 28 29 27 23 21 19 16 13 10 8 6 5 6 8 10 10 9 7 5 4 3 2 1 0 0 0 0 0 0 0 0 0 0 0 0 0 0
40 39 38 35 29 26 26 25 22 19 18 17 14 11 9 6 4 3 3 4 5 6 6 6 5 5 3 2 0 0 0 0 0 0 0 0 0 0 0 0 0 0 0
38 37 36 32 27 24 24 23 19 16 14 13 11 8 6 4 2 1 1 2 2 2 2 3 4 4 3 2 1 1 1 0 0 0 0 0 0 0 0 0 0 0 0
36 36 34 30 24 21 19 17 15 13 11 8 7 5 4 3 2 1 1 1 1 0 0 2 3 3 3 3 3 2 2 1 1 0 0 0 0 0 0 0 0 0 0
33 33 31 27 23 19 15 11 10 10 8 5 4 2 2 2 1 0 0 0 0 0 0 1 2 2 2 2 2 2 2 2 2 1 0 0 0 0 0 0 0 0 0
28 29 27 23 21 18 14 10 8 8 6 4 3 2 1 1 1 0 0 0 0 0 0 1 1 1 1 1 1 1 2 3 2 1 0 0 0 0 0 0 0 0 0

GEFSMW_con_prob3kmehi_210.txt.gz
EHI
8 6 7 9 9 10 14 16 19 19 17 13 9 6 4 3 3 3 3 3 3 3 4 5 6 5 4 3 3 3 3 3 3 3 2 1 0 0 0 0 0 0 0
9 8 9 11 12 12 15 18 21 21 18 13 10 7 5 5 4 4 4 4 4 5 6 7 7 5 4 3 3 3 3 3 3 3 2 1 1 1 0 0 1 1 1
9 11 12 13 13 14 16 19 23 25 20 15 12 11 9 8 8 7 6 6 7 7 9 10 9 7 5 4 3 3 3 3 3 3 3 2 2 1 0 0 1 2 2
9 10 13 14 13 14 17 21 27 27 23 18 16 15 14 12 10 8 8 8 9 9 11 12 11 9 7 5 4 3 3 3 3 3 3 3 3 1 0 0 1 1 2
8 9 12 15 13 14 17 24 29 30 26 22 20 19 18 15 11 9 9 8 7 8 10 12 13 11 9 6 4 3 4 4 4 4 4 5 4 3 1 0 1 1 2
9 10 13 16 16 15 17 22 29 31 29 25 23 22 20 18 15 13 11 8 6 6 8 10 11 12 10 7 5 5 6 6 6 6 6 6 6 5 4 3 3 2 2
12 11 13 17 18 19 18 21 27 30 29 27 25 24 21 18 17 15 12 9 7 6 7 8 9 10 10 9 7 7 8 8 7 7 8 7 6 7 7 6 5 4 2
15 12 11 15 19 22 21 21 27 30 30 28 27 25 21 16 14 14 11 8 6 7 8 8 8 10 11 10 10 10 9 8 9 8 8 7 8 8 8 8 8 6 3
18 15 12 13 18 22 21 22 28 33 33 32 31 27 22 16 13 12 11 9 9 9 10 10 11 12 12 12 12 11 10 10 11 10 8 8 8 10 9 9 9 9 6
24 21 17 15 17 20 22 24 28 33 35 34 31 27 24 20 16 15 15 15 15 15 14 13 14 15 14 13 13 12 11 12 12 11 10 8 8 9 9 9 9 9 9
29 27 24 21 21 22 26 29 31 32 33 32 29 26 25 23 20 18 18 19 20 20 18 17 17 18 17 15 14 13 13 13 13 11 9 8 7 8 8 8 8 9 10
32 32 31 31 30 29 32 35 35 32 30 30 30 28 27 26 24 22 21 21 21 21 21 20 20 20 18 16 15 15 15 14 12 10 8 7 7 6 7 7 8 9 9
37 37 38 39 39 38 37 39 38 35 32 32 33 31 29 29 27 24 22 22 21 20 19 19 19 19 17 17 16 16 15 14 11 9 7 6 7 7 7 7 8 9 9
42 43 44 44 44 45 44 42 40 38 35 33 32 31 29 28 25 22 20 19 18 16 15 15 16 16 15 14 14 14 15 14 12 10 8 7 7 8 7 7 7 9 9
47 51 54 52 51 52 50 44 42 41 38 35 32 31 28 25 21 19 17 16 14 14 14 13 13 13 12 11 11 12 13 13 13 12 10 8 7 6 5 5 6 7 9
52 56 60 60 58 57 53 47 44 43 41 38 35 32 29 25 21 18 17 17 17 16 15 14 12 11 9 8 8 9 11 12 12 12 11 8 6 3 2 2 2 4 5
54 57 60 61 61 57 52 48 45 44 44 42 39 35 31 28 23 20 20 22 23 21 17 14 12 10 8 7 5 6 8 11 11 11 10 7 4 3 2 2 2 2 2
51 55 59 62 61 55 49 47 46 46 46 45 40 37 34 30 27 24 24 25 25 23 18 13 11 10 8 5 3 3 6 9 9 9 8 6 4 4 4 4 5 4 3
51 56 61 65 63 56 49 46 46 48 47 45 42 39 35 32 29 27 26 26 24 21 17 12 11 10 8 3 1 2 4 6 7 7 6 5 4 4 4 5 6 5 3
54 57 61 64 62 58 54 51 50 49 47 44 42 38 34 31 29 27 27 26 24 20 14 9 8 8 6 3 1 1 3 4 4 4 3 3 3 3 2 4 5 3 1
53 55 58 59 58 56 57 57 55 51 47 43 40 36 31 28 25 24 25 25 23 18 12 7 5 5 5 4 2 1 1 2 1 1 1 2 2 1 1 2 3 1 0
50 52 54 53 51 51 54 57 56 51 46 42 39 34 29 24 21 19 19 20 19 14 9 6 4 3 4 4 3 1 0 0 0 0 1 2 1 0 0 0 1 0 0
47 50 51 50 47 46 48 51 51 48 45 42 37 32 26 21 16 14 13 14 13 9 6 4 3 3 3 3 2 1 0 0 0 0 1 1 1 0 0 0 0 0 0
42 45 48 47 44 41 42 44 44 44 44 40 33 27 23 17 14 11 10 10 9 6 4 3 3 3 3 3 2 2 1 0 0 0 1 1 1 0 0 0 0 0 0
36 40 43 42 39 36 37 38 38 39 38 35 28 22 18 15 12 10 9 7 5 3 3 3 3 3 3 3 3 2 1 0 0 0 1 2 2 1 1 0 0 0 0
34 36 39 38 36 34 33 34 35 35 34 30 24 18 16 14 12 10 7 4 2 2 3 3 3 3 3 3 3 2 1 0 0 0 1 2 3 2 2 1 1 1 1

GEFSMW_con_prob3kmehi_216.txt.gz
EHI
33 31 28 29 35 40 40 33 27 27 28 27 26 25 23 24 25 24 21 17 15 15 14 11 10 9 10 9 8 7 5 4 3 3 3 5 7 8 8 8 6 7 11
38 38 35 36 43 48 44 37 33 32 29 27 25 23 21 23 25 26 24 22 19 17 15 13 12 11 12 12 10 9 7 5 4 4 4 4 5 6 6 9 9 10 12
45 47 44 43 49 51 47 42 41 38 32 26 22 22 23 24 24 27 29 28 24 20 18 17 15 13 14 13 13 12 11 8 6 7 6 5 5 4 6 8 9 10 10
45 49 49 45 45 46 45 45 45 41 34 27 22 23 26 26 25 27 31 32 29 24 22 22 19 17 15 14 14 14 13 11 10 10 9 8 7 6 5 6 7 7 7
42 46 50 48 42 40 44 49 50 45 38 31 26 26 26 25 26 28 31 33 33 29 26 26 26 23 20 18 17 16 16 15 14 13 11 10 10 9 8 7 7 6 5
41 43 49 52 46 40 43 52 55 50 43 36 32 30 27 26 28 31 33 33 34 33 30 29 30 27 23 21 21 21 21 20 17 15 14 13 12 11 10 10 9 7 6
41 41 48 54 48 43 46 52 56 53 46 41 38 34 30 29 31 34 34 31 31 34 34 31 28 25 21 21 23 24 23 22 19 17 16 16 15 13 12 13 12 9 8
42 41 47 51 46 44 50 57 59 54 49 45 42 39 34 31 32 35 33 29 29 33 35 31 26 23 20 19 21 23 22 21 20 18 16 17 18 17 15 13 11 10 9
39 40 45 46 44 46 54 61 60 56 51 48 45 44 40 33 30 33 34 31 30 32 33 31 27 24 21 20 20 21 20 19 18 16 14 15 18 19 16 12 11 11 11
36 38 41 43 44 49 56 61 61 57 53 50 48 48 45 37 31 32 34 35 34 33 32 29 26 23 21 20 21 20 19 17 15 14 13 14 15 17 16 14 13 14 13
35 37 41 44 46 50 56 61 61 58 55 53 51 49 47 42 36 34 35 37 37 35 31 27 24 21 20 19 20 20 18 15 13 12 11 11 13 15 16 16 15 13 12
38 41 45 49 52 53 56 60 61 61 58 56 54 50 47 45 41 38 35 36 37 34 30 26 24 22 20 18 18 19 17 14 11 10 9 9 11 13 14 14 13 11 9
46 48 52 56 59 60 59 60 60 61 61 60 58 53 49 47 44 40 36 35 35 33 29 27 26 24 21 19 17 17 16 14 12 10 8 8 9 11 11 10 10 9 7
51 54 59 65 68 66 65 63 61 59 60 62 60 56 52 49 46 40 35 33 33 31 29 28 26 23 20 18 16 15 15 15 13 11 10 9 9 9 9 8 8 7 6
51 57 66 74 75 72 69 65 62 60 60 61 60 57 54 51 46 40 36 33 31 29 29 30 27 22 17 15 13 13 13 12 10 9 9 9 9 9 8 7 6 6 5
53 61 72 78 79 76 72 68 65 62 62 62 61 59 55 51 45 40 36 34 30 29 30 32 30 23 15 10 9 10 11 9 7 7 6 6 7 7 6 5 4 3 3
59 67 76 79 79 78 77 73 69 66 65 65 64 61 56 51 46 40 36 33 31 29 31 33 32 24 14 6 5 6 8 7 6 5 4 3 3 3 5 4 2 2 2
66 72 76 77 78 79 80 77 72 68 66 66 64 61 58 54 49 43 38 34 32 29 29 31 31 24 13 5 3 3 5 7 6 5 4 3 2 2 3 3 2 2 2
68 71 73 74 75 77 79 78 73 68 67 66 64 61 59 57 53 47 41 37 33 29 27 29 29 23 13 5 2 1 3 5 6 6 6 6 4 1 1 1 2 2 1
59 62 67 71 73 75 75 75 72 68 66 65 63 60 58 56 54 48 43 39 35 30 27 26 24 19 11 5 1 1 2 4 6 8 9 7 4 1 0 1 2 2 1
52 55 61 67 71 72 72 71 69 67 64 61 59 57 54 52 50 47 43 39 34 29 27 25 21 16 9 4 1 1 2 3 6 8 9 7 3 0 0 1 2 2 2
51 54 58 63 67 69 70 70 68 67 64 59 55 53 50 48 46 44 40 36 31 27 26 24 21 16 9 4 1 0 1 2 4 7 7 5 1 0 0 0 1 1 1
51 53 57 61 64 65 66 67 67 65 62 57 52 49 47 45 43 41 37 31 28 25 24 22 20 16 10 6 4 2 0 0 2 4 4 2 0 0 0 0 0 1 2
48 51 56 60 61 59 59 60 60 58 56 53 48 44 42 41 40 38 32 26 22 20 20 18 16 13 10 8 6 4 2 1 1 1 1 0 0 0 0 0 0 1 3
45 48 53 57 58 55 54 54 53 50 49 47 42 36 34 35 35 32 26 18 13 12 12 12 11 9 7 5 4 4 3 2 1 0 0 0 0 0 0 0 1 3 4
44 47 50 54 55 53 52 52 50 48 47 44 37 31 29 31 31 28 21 12 7 6 6 7 8 7 5 2 1 2 3 3 2 1 0 0 0 0 0 1 2 4 3

GEFSMW_con_prob3kmehi_222.txt.gz
EHI
6 11 17 21 22 19 15 13 10 6 2 0 0 1 2 2 3 5 8 9 7 6 6 5 4 4 4 3 3 3 2 1 2 3 3 2 1 0 0 0 0 0 0
9 15 21 24 24 21 18 15 11 7 3 1 1 2 2 2 1 3 6 7 7 7 7 6 5 4 4 3 3 3 3 2 3 3 3 2 1 1 1 0 0 0 0
12 18 26 29 28 25 22 19 14 11 8 6 5 5 5 3 1 2 4 6 6 8 8 7 6 5 5 4 3 3 3 3 3 3 3 3 2 2 2 1 1 0 0
15 20 29 35 34 29 25 22 19 17 14 12 11 9 7 5 3 3 5 6 8 9 9 9 9 8 7 6 5 4 4 3 3 3 3 3 3 3 3 3 2 1 0
17 19 28 37 38 33 30 28 24 21 18 16 14 12 9 6 4 5 8 9 9 9 10 11 11 11 11 9 6 5 5 4 4 4 4 4 4 4 4 4 3 1 0
19 18 24 34 39 39 39 35 29 23 19 17 16 14 13 10 9 10 12 11 10 9 10 12 11 11 11 8 6 5 6 6 6 6 6 6 6 6 6 5 4 2 1
20 18 20 30 39 43 44 40 33 27 23 21 19 18 17 16 16 15 14 13 11 11 12 12 10 9 8 6 4 5 6 6 7 7 6 6 6 7 8 7 5 3 1
22 20 20 28 38 44 45 42 37 32 30 28 25 22 21 21 19 15 14 13 12 12 13 11 8 7 7 6 5 6 6 6 7 6 5 4 4 6 7 7 5 3 1
23 21 21 28 36 41 43 42 40 37 36 34 30 25 21 21 19 15 12 11 10 10 10 8 6 5 6 7 8 8 7 6 6 5 4 4 4 4 5 5 4 3 2
24 22 23 29 33 36 39 41 41 42 41 38 34 27 22 18 17 15 14 11 10 9 8 6 5 5 6 8 9 9 7 6 6 6 6 5 4 4 4 3 3 3 3
26 24 25 28 31 34 37 39 41 44 44 41 36 31 24 19 16 16 16 14 11 10 9 7 5 6 7 9 10 9 7 6 6 6 6 6 6 6 5 4 4 3 3
28 27 27 27 28 33 38 40 44 44 44 44 43 38 29 22 19 18 17 14 12 11 11 9 8 7 9 10 11 10 8 6 6 6 5 5 5 6 6 6 5 4 4
32 30 29 27 28 33 39 44 48 47 47 48 49 43 34 28 24 21 17 15 14 12 11 11 10 9 9 10 11 10 7 6 5 3 3 3 3 5 5 5 5 5 5
34 32 30 28 28 32 38 44 48 49 49 50 50 46 40 33 27 22 19 17 15 14 13 11 11 9 8 8 9 8 6 3 2 1 1 1 1 2 3 3 2 3 3
36 35 33 31 29 31 34 39 44 46 46 46 47 47 43 36 28 22 19 18 16 15 13 12 11 11 10 9 8 6 4 1 0 0 0 0 0 0 1 1 0 1 1
42 41 38 35 32 30 31 34 39 42 42 42 45 46 44 38 29 23 22 21 19 17 15 14 13 12 11 9 8 6 3 1 1 0 0 0 0 0 0 0 0 0 0
47 46 42 39 37 34 32 34 38 41 41 42 44 45 43 38 29 24 24 24 23 21 20 18 16 14 10 7 6 5 3 3 2 1 0 0 0 0 0 0 0 0 0
44 46 45 42 41 39 38 37 39 42 43 43 45 45 42 38 32 27 25 25 25 24 23 20 17 13 8 5 3 2 2 2 2 1 0 0 0 0 0 0 0 0 0
41 44 47 47 44 42 42 41 42 44 46 46 44 44 42 39 35 31 27 26 25 24 23 19 15 12 6 2 1 0 1 1 1 1 0 0 1 1 0 0 0 0 0
41 44 47 49 46 42 43 45 46 48 49 46 42 40 39 38 36 32 28 26 25 23 20 17 14 11 6 1 0 0 0 0 0 0 0 1 1 1 0 0 1 0 0
42 45 47 47 45 43 43 45 46 46 45 43 40 37 36 34 32 28 26 25 24 21 19 16 13 11 6 1 0 0 0 0 0 0 0 1 1 1 0 0 0 0 0
43 44 44 43 42 41 40 40 39 37 38 40 39 36 34 32 28 25 23 22 21 20 17 14 12 9 5 2 1 0 0 0 0 0 0 0 0 0 0 0 0 0 0
41 41 41 41 40 38 36 33 31 30 34 37 36 35 32 28 25 22 20 20 18 16 14 12 8 6 4 3 2 1 0 0 0 1 0 0 0 0 0 0 0 0 0
34 35 36 37 36 35 31 27 25 27 31 33 34 32 27 23 20 19 17 16 14 12 10 8 6 5 4 4 3 1 0 0 0 0 0 0 0 0 0 0 0 0 0
25 26 28 29 31 30 26 22 21 23 27 30 30 27 23 19 17 16 13 11 9 8 7 6 5 4 4 3 2 1 0 0 0 0 0 0 0 0 0 0 0 0 0
18 19 22 25 27 27 24 20 19 19 22 26 27 25 22 19 17 15 10 6 5 5 6 6 5 4 3 2 1 0 0 0 0 0 0 0 0 0 0 0 0 0 0

GEFSMW_con_prob3kmehi_228.txt.gz
EHI
0 1 3 5 7 7 6 4 2 1 0 0 0 0 0 0 0 0 0 0 1 1 0 0 0 0 0 0 0 0 0 0 1 1 0 0 0 0 0 0 0 1 1
0 1 4 7 8 7 6 5 3 2 1 0 0 0 0 0 0 0 0 1 2 2 1 1 1 1 0 0 0 1 1 1 2 2 1 1 1 1 1 1 1 1 2
1 3 7 9 8 8 8 6 4 2 1 0 0 0 0 0 0 0 0 1 2 3 3 2 2 2 1 1 1 1 2 3 3 3 3 2 2 2 2 2 1 1 1
1 4 9 11 9 8 8 5 3 2 1 0 0 0 0 0 0 0 0 0 1 2 3 3 3 3 3 2 1 1 2 3 3 3 3 3 3 3 3 2 1 0 0
1 4 9 10 8 8 8 5 2 1 0 0 0 1 1 0 0 0 0 0 0 1 1 2 3 3 3 3 2 1 1 1 2 2 2 2 2 2 2 1 1 0 0
1 4 7 7 7 9 10 6 2 0 0 0 1 2 2 1 1 1 0 1 1 0 0 1 2 2 2 2 1 0 0 0 1 1 1 2 2 2 1 1 0 0 0
1 4 6 6 7 11 13 10 5 2 2 2 2 3 4 4 3 2 1 1 1 0 0 0 1 1 1 1 0 0 0 1 1 2 2 3 3 3 3 3 2 1 0
2 4 4 4 7 12 17 15 10 7 6 6 5 4 5 5 4 3 2 1 1 0 0 0 0 0 0 0 0 0 1 2 3 4 4 4 5 4 4 5 5 3 2
2 3 3 3 5 11 16 16 12 11 11 10 8 6 6 5 4 2 1 0 0 0 0 1 1 2 1 1 1 1 1 2 3 4 5 5 5 5 5 6 6 5 4
2 2 2 3 4 8 13 14 12 12 13 13 11 9 7 6 5 3 1 1 1 1 2 2 3 4 4 3 2 2 2 2 3 4 5 5 6 6 5 5 5 5 5
5 4 3 2 3 7 11 13 13 13 14 15 15 13 11 9 7 6 4 4 4 4 4 4 5 5 5 4 3 3 3 3 3 4 5 5 6 6 5 4 4 5 5
7 6 5 4 5 7 11 14 14 14 15 17 20 20 17 13 11 9 9 9 8 8 7 6 7 6 5 4 4 4 4 3 3 4 5 5 5 4 3 3 3 4 4
7 7 7 8 8 8 10 13 15 17 18 20 24 25 22 18 15 13 11 10 10 8 8 8 9 8 6 5 6 6 5 4 4 3 4 5 4 3 1 1 2 2 1
6 7 9 10 11 11 11 12 15 18 20 22 24 24 22 18 17 15 12 11 9 8 8 10 10 9 7 7 9 10 8 7 5 4 4 4 3 2 0 0 1 1 0
9 8 8 10 12 12 12 12 13 17 19 22 23 22 19 17 16 15 13 11 10 10 11 13 13 11 8 8 10 11 10 8 7 5 4 4 2 1 0 0 0 0 0
12 9 9 10 12 13 12 11 13 17 19 21 22 23 21 18 15 14 12 10 11 13 16 17 16 13 10 8 8 10 10 8 7 6 6 4 2 0 0 0 0 0 0
14 13 12 11 12 13 12 10 12 17 20 21 23 25 26 22 17 14 11 9 12 15 16 17 16 15 11 7 6 7 8 8 8 7 6 4 1 0 0 0 0 0 0
18 17 16 14 13 14 14 13 15 19 23 22 22 26 29 25 20 16 12 10 11 13 13 14 14 14 11 7 4 5 7 8 8 7 5 2 0 0 0 0 0 0 0
20 21 20 18 17 18 19 20 21 24 27 27 26 28 29 27 23 19 14 10 9 9 10 11 11 11 10 7 4 4 6 7 7 6 3 1 0 0 0 0 0 0 0
19 22 23 23 23 22 23 26 27 28 29 30 29 29 28 25 22 19 15 10 8 7 8 9 9 9 8 6 4 4 6 6 6 5 2 0 0 0 0 0 0 0 0
16 20 24 25 24 23 24 26 27 26 25 25 25 25 24 21 17 16 15 12 9 7 7 7 7 7 7 5 4 3 4 5 6 5 3 1 0 0 0 0 0 0 0
15 19 23 25 23 22 23 23 22 19 18 18 18 18 19 17 14 14 14 13 10 7 6 6 6 6 6 4 3 2 2 3 4 4 3 1 0 0 0 0 0 0 0
15 18 21 23 22 21 19 17 14 13 12 12 13 14 15 15 13 13 13 12 10 7 5 4 4 4 5 4 2 1 0 1 2 2 2 1 0 0 0 0 0 0 0
11 13 16 18 19 17 15 12 11 10 10 10 11 12 13 13 12 11 12 12 10 8 6 5 4 3 4 3 3 1 0 0 1 1 1 0 0 0 0 0 0 0 0
4 6 8 11 13 14 12 10 9 9 9 9 10 11 12 12 11 10 10 10 9 8 7 6 4 3 3 3 2 1 0 0 0 0 0 0 0 0 0 0 0 0 0
1 2 3 6 10 12 12 10 8 8 8 8 10 11 11 11 11 10 9 8 8 7 6 5 5 4 3 3 2 1 0 0 0 0 0 0 0 0 0 0 0 0 0

GEFSMW_con_prob3kmehi_234.txt.gz
EHI
0 0 1 2 4 6 7 6 6 4 2 1 2 3 2 1 1 1 1 0 1 3 3 2 3 3 2 1 1 0 0 0 0 0 0 1 2 3 4 4 3 1 0
0 1 2 3 5 8 8 7 6 5 3 2 2 3 2 0 0 0 0 0 1 3 3 4 4 4 4 3 2 2 1 1 0 0 0 0 1 2 3 4 3 1 0
0 1 2 5 8 9 9 8 8 6 4 3 3 3 2 1 0 0 0 0 1 2 4 5 6 6 6 5 5 5 4 3 1 1 1 0 0 1 1 2 2 1 0
1 0 2 5 7 8 8 9 11 11 8 6 4 2 2 1 0 0 0 1 2 3 5 7 8 8 7 6 6 6 6 5 3 2 2 2 1 1 2 2 2 1 0
2 1 1 3 3 4 5 8 13 15 13 10 7 4 2 1 1 1 1 3 4 4 4 6 8 8 7 7 7 8 8 7 5 3 3 3 3 3 3 3 4 3 2
6 3 1 1 1 3 5 7 12 15 14 12 9 6 4 3 4 4 3 3 5 4 3 4 7 8 8 9 10 11 9 7 7 6 6 5 5 4 4 5 6 6 5
9 6 5 4 4 6 8 10 13 14 13 12 11 9 6 5 6 5 3 2 3 4 3 3 5 7 9 12 13 13 10 7 8 9 8 7 7 6 7 8 8 7 7
10 9 8 8 8 9 12 14 14 13 12 12 12 11 8 5 4 3 2 1 1 3 4 5 5 7 10 13 14 14 10 7 7 8 8 9 8 8 9 11 10 8 7
11 8 7 8 9 9 11 13 14 13 13 13 13 13 10 7 4 4 4 4 4 5 7 9 9 10 11 13 14 13 10 8 6 6 9 11 9 8 9 11 10 8 7
12 8 6 6 7 8 8 11 14 14 14 14 14 14 13 11 9 10 11 11 11 11 12 13 12 11 13 14 14 13 11 8 7 7 10 11 10 8 9 9 10 9 9
15 12 9 8 9 9 9 11 14 17 17 17 17 17 17 17 17 17 18 18 17 17 17 16 14 13 14 15 15 14 11 9 9 10 11 12 12 11 9 8 9 10 10
20 18 16 15 14 12 12 14 16 19 21 21 20 20 20 21 22 22 21 21 20 20 20 20 18 15 13 15 16 15 12 11 11 12 13 13 13 12 10 8 8 8 9
23 23 23 22 19 18 18 18 19 22 24 23 22 22 21 21 23 23 22 21 21 20 20 21 21 17 13 14 16 16 15 13 13 13 13 13 14 13 11 9 8 8 8
27 26 27 28 27 26 25 24 24 26 27 25 24 24 24 22 22 23 22 20 19 18 19 21 22 18 15 14 16 17 17 15 14 13 12 13 14 13 11 10 9 9 9
32 30 30 32 30 30 30 29 28 30 30 27 26 28 28 25 23 23 22 20 19 18 19 20 20 18 15 12 14 16 17 16 16 14 13 13 12 11 10 9 8 9 10
34 33 33 34 32 30 30 30 30 32 32 30 28 28 29 28 27 26 25 25 23 20 20 20 19 17 14 10 9 12 15 17 16 14 13 12 10 9 8 7 6 7 8
35 36 37 36 34 32 32 31 31 31 32 30 28 27 28 30 31 32 32 31 28 24 22 20 19 18 14 8 4 6 12 15 15 14 14 13 11 11 10 8 5 5 5
35 37 38 37 35 35 35 34 32 31 30 29 28 27 28 31 33 35 35 33 31 29 26 22 21 20 14 6 1 3 9 13 13 14 15 15 13 12 12 10 8 6 6
33 33 33 31 30 32 34 36 34 31 29 29 29 28 28 31 34 36 36 33 31 31 29 26 25 24 16 6 1 3 8 12 13 14 15 15 13 11 10 10 10 8 7
31 30 30 29 29 32 35 36 33 30 28 29 30 30 30 30 31 33 35 33 30 29 27 25 25 24 16 5 0 2 8 12 12 13 14 12 10 7 6 8 9 8 7
29 30 32 33 35 37 38 36 32 30 29 30 31 31 29 28 27 29 32 31 28 26 25 23 22 19 11 3 0 2 5 9 11 12 12 10 6 3 3 4 7 6 5
26 30 34 36 38 39 39 36 33 31 31 30 29 27 25 25 25 26 26 25 23 24 25 22 20 15 9 4 2 1 1 4 8 9 9 7 3 1 0 1 3 3 3
25 27 30 32 33 34 35 33 30 29 28 27 26 23 20 19 20 20 19 18 19 21 24 22 18 13 9 7 5 2 1 2 4 6 6 4 1 0 0 0 1 1 2
22 24 25 25 25 27 27 25 23 23 24 23 22 19 16 13 13 13 13 14 15 17 21 21 17 12 9 8 7 5 3 2 3 4 4 3 1 1 2 1 1 2 3
18 20 21 19 18 20 21 20 19 20 21 19 16 14 13 11 11 10 10 9 10 11 14 16 14 10 8 7 6 5 4 4 4 3 3 3 3 3 3 3 3 4 4
16 17 17 16 17 17 18 18 18 20 21 18 13 10 11 12 11 9 8 6 6 6 7 9 10 9 7 5 4 4 4 4 4 4 3 3 3 3 3 3 4 4 4

GEFSMW_con_prob3kmehi_240.txt.gz
EHI
12 11 10 14 24 34 34 28 22 16 7 2 4 8 8 6 5 6 8 8 7 6 6 5 4 4 4 3 2 1 2 3 3 2 2 4 6 8 10 10 8 6 4
19 18 17 20 30 38 38 31 26 20 12 5 5 7 7 5 5 9 12 12 10 9 8 7 6 5 6 7 7 5 5 5 5 4 3 3 3 4 6 8 8 7 6
26 26 24 26 35 43 40 33 30 26 17 10 7 7 8 7 7 13 18 17 15 13 10 9 9 8 9 11 13 12 11 9 7 7 6 4 2 2 3 5 7 8 9
29 29 29 30 36 40 37 35 34 31 23 14 8 8 11 10 9 13 20 20 18 15 13 11 11 11 10 12 15 17 16 13 9 7 6 5 3 4 4 5 7 11 12
27 30 32 33 33 33 34 37 38 34 27 19 12 10 11 10 9 14 20 20 18 17 16 15 15 14 12 14 16 19 19 16 11 8 6 6 6 7 7 6 8 13 14
23 29 35 35 31 30 34 40 42 39 31 23 17 14 13 10 10 15 19 19 19 22 24 24 23 19 17 18 19 20 20 18 14 11 9 8 9 9 9 8 9 12 15
23 32 40 39 35 33 37 45 48 44 37 28 22 20 18 13 11 13 16 16 19 25 30 32 30 25 21 20 21 20 20 18 16 14 11 10 8 8 8 8 8 10 12
27 34 41 42 40 38 42 49 52 48 41 33 27 25 23 16 11 12 12 12 15 22 30 34 32 28 23 22 22 20 18 17 16 15 14 10 8 7 9 9 9 9 10
29 32 36 38 39 40 45 51 53 49 43 38 32 28 25 18 15 18 18 15 15 20 28 33 34 30 25 25 24 20 17 17 17 17 16 13 11 11 12 12 12 12 12
31 30 31 33 35 39 42 47 51 50 46 42 36 31 28 24 23 26 27 25 24 25 30 36 36 32 27 26 25 22 18 19 20 19 18 16 15 15 16 16 16 16 16
34 33 30 31 34 36 38 42 47 48 46 44 40 36 34 32 30 31 33 33 32 33 36 38 37 34 30 28 26 22 20 21 22 21 20 18 17 18 18 17 17 17 17
36 35 34 36 37 37 37 40 43 45 45 44 42 40 39 37 36 36 36 37 37 38 39 38 37 35 34 32 28 22 20 22 23 22 20 19 19 20 19 16 16 17 16
38 38 40 43 44 44 42 42 42 42 43 43 42 40 39 40 40 40 39 40 41 41 40 38 38 38 38 37 33 26 22 23 22 21 21 20 22 22 19 17 16 16 15
41 43 47 51 52 52 50 47 42 39 39 41 42 40 41 41 42 41 40 40 41 41 40 39 39 40 39 38 34 27 24 24 23 22 22 22 22 22 20 18 17 15 14
44 47 53 59 61 60 57 52 46 42 42 44 44 44 43 43 42 40 38 38 39 39 39 38 38 38 36 32 29 25 23 24 23 21 21 20 18 17 16 16 15 14 13
45 50 60 67 70 68 62 56 52 51 53 53 50 48 45 43 42 40 37 37 37 38 38 37 36 35 30 24 20 20 21 22 22 20 19 18 15 12 12 12 11 11 10
49 53 61 68 70 67 63 58 55 57 60 58 53 49 45 43 41 40 39 38 38 38 37 36 34 33 28 19 13 14 19 21 21 20 18 17 14 12 11 10 8 7 7
53 55 57 59 62 61 59 56 53 54 57 54 50 48 45 42 41 41 41 41 40 39 38 36 34 32 26 16 9 9 15 19 20 21 19 17 15 13 11 10 8 8 9
54 53 50 49 51 53 54 54 51 50 50 48 47 47 45 43 42 42 42 43 42 42 40 37 35 33 26 15 7 7 12 16 18 19 18 16 13 11 9 9 11 11 12
48 47 45 43 44 47 49 50 50 47 44 44 46 47 45 43 42 43 43 43 42 41 39 36 35 34 27 15 6 6 11 15 16 17 16 13 10 7 6 8 10 11 11
41 42 43 43 42 44 46 47 49 47 45 45 48 48 45 42 40 41 41 40 38 36 33 31 32 32 26 14 6 4 9 13 14 15 15 12 6 3 3 4 6 7 7
37 38 41 43 44 45 45 47 49 49 48 48 49 49 47 42 39 40 38 35 33 30 26 26 28 28 23 14 6 3 4 8 11 12 12 9 4 1 1 1 3 4 5
35 37 39 41 44 45 46 47 49 48 47 46 46 47 46 41 38 36 34 31 29 26 23 23 24 25 22 15 8 4 2 3 5 7 6 5 2 1 0 1 2 4 5
34 35 36 38 40 41 41 42 42 43 42 42 42 41 39 35 31 30 29 28 27 24 23 23 23 21 19 15 11 7 4 2 2 3 3 3 2 1 2 2 3 4 5
32 32 33 34 34 35 35 34 35 36 37 37 37 34 30 26 24 23 23 23 21 20 19 18 19 18 15 11 8 7 5 3 3 3 3 3 3 3 3 3 5 5 4
29 29 29 29 30 31 30 30 32 32 33 34 32 29 25 22 19 19 19 16 15 14 12 13 15 15 10 5 4 4 4 3 3 3 3 3 3 3 3 4 5 5 4